[[{"header":{"parameterUnit":"m.s-1","parameterCategory":1,"la1":30.6,"la2":29.2853,"lo1":-89.7004,"lo2":-87.6739,"dy":0.0162,"dx":0.0183,"nx":112,"ny":82,"refTime":"2024-05-06T12:00:00:Z","depth":0,"parameterNumber":2,"parameterNumberName":"U-component_of_WINDS"},"data":[0.0,0.0,0.0,0.0,0.0,0.0,0.0,0.0,0.0,0.0,0.0,0.0,0.0,0.0,0.0,0.0,0.0,0.0,0.0,0.0,0.0,0.0,0.0,0.0,0.0,0.0,0.0,0.0,0.0,0.0,0.0,0.0,0.0,0.0,0.0,0.0,0.0,0.0,0.0,0.0,0.0,0.0,0.0,0.0,0.0,0.0,0.0,0.0,0.0,0.0,0.0,0.0,0.0,0.0,0.0,0.0,0.0,0.0,0.0,0.0,0.0,0.0,0.0,0.0,0.0,0.0,0.0,0.0,0.0,0.0,0.0,0.0,0.0,0.0,0.0,0.0,0.0,0.0,0.0,0.0,0.0,0.0,0.0,0.0,0.0,0.0,0.0,0.0,0.0,0.0,0.0,-5.1435,-5.4317,-5.6338,-5.6969,-5.5597,-5.2855,-4.8476,0.0,0.0,0.0,0.0,0.0,0.0,0.0,0.0,0.0,0.0,0.0,0.0,0.0,0.0,0.0,0.0,0.0,0.0,0.0,0.0,0.0,0.0,0.0,0.0,0.0,0.0,0.0,0.0,0.0,0.0,0.0,0.0,0.0,0.0,0.0,0.0,0.0,0.0,0.0,0.0,0.0,0.0,0.0,0.0,0.0,0.0,0.0,0.0,0.0,0.0,0.0,0.0,0.0,0.0,0.0,0.0,0.0,0.0,0.0,0.0,0.0,0.0,0.0,0.0,0.0,0.0,0.0,0.0,0.0,0.0,0.0,0.0,0.0,0.0,0.0,0.0,0.0,0.0,0.0,0.0,0.0,0.0,0.0,0.0,0.0,0.0,0.0,0.0,0.0,0.0,0.0,0.0,0.0,0.0,0.0,0.0,0.0,0.0,0.0,0.0,0.0,0.0,0.0,0.0,-5.0854,-5.4672,-5.617,-5.6941,-5.7007,-5.6141,-5.3527,-4.8589,0.0,0.0,0.0,0.0,0.0,0.0,0.0,0.0,0.0,0.0,0.0,0.0,0.0,0.0,0.0,0.0,0.0,0.0,0.0,0.0,0.0,0.0,0.0,0.0,0.0,0.0,0.0,0.0,0.0,0.0,0.0,0.0,0.0,0.0,0.0,0.0,0.0,0.0,0.0,0.0,0.0,0.0,0.0,0.0,0.0,0.0,0.0,0.0,0.0,0.0,0.0,0.0,0.0,0.0,0.0,0.0,0.0,0.0,0.0,0.0,0.0,0.0,0.0,0.0,0.0,0.0,0.0,0.0,0.0,0.0,0.0,0.0,0.0,0.0,0.0,0.0,0.0,0.0,0.0,0.0,0.0,0.0,0.0,0.0,0.0,0.0,0.0,0.0,0.0,0.0,0.0,0.0,0.0,0.0,0.0,0.0,0.0,0.0,0.0,0.0,0.0,0.0,0.0,-5.0168,-5.324,-5.6006,-5.7108,-5.7444,-5.6995,-5.6529,-5.4167,-4.9174,-4.6907,0.0,0.0,0.0,0.0,0.0,0.0,0.0,0.0,0.0,0.0,0.0,0.0,0.0,0.0,0.0,0.0,0.0,0.0,0.0,0.0,0.0,0.0,0.0,0.0,0.0,0.0,0.0,0.0,0.0,0.0,0.0,0.0,0.0,0.0,0.0,0.0,0.0,0.0,0.0,0.0,0.0,0.0,0.0,0.0,0.0,0.0,0.0,0.0,0.0,0.0,0.0,0.0,0.0,0.0,0.0,0.0,0.0,0.0,0.0,0.0,0.0,0.0,0.0,0.0,0.0,0.0,0.0,0.0,0.0,0.0,0.0,0.0,0.0,0.0,0.0,0.0,0.0,0.0,0.0,0.0,0.0,0.0,0.0,0.0,0.0,0.0,0.0,0.0,0.0,0.0,0.0,0.0,0.0,0.0,0.0,0.0,0.0,0.0,0.0,0.0,0.0,0.0,-5.279,-5.5275,-5.6817,-5.764,-5.792,-5.7489,-5.6835,-5.4475,-4.9888,-4.7657,0.0,0.0,0.0,0.0,0.0,0.0,0.0,0.0,0.0,0.0,0.0,0.0,0.0,0.0,0.0,0.0,0.0,0.0,0.0,0.0,0.0,0.0,0.0,0.0,0.0,0.0,0.0,0.0,0.0,0.0,0.0,0.0,0.0,0.0,0.0,0.0,0.0,0.0,0.0,0.0,0.0,0.0,0.0,0.0,0.0,0.0,0.0,0.0,0.0,0.0,0.0,0.0,0.0,0.0,0.0,0.0,0.0,0.0,0.0,0.0,0.0,0.0,0.0,0.0,0.0,0.0,0.0,0.0,0.0,0.0,0.0,0.0,0.0,0.0,0.0,0.0,0.0,0.0,0.0,0.0,0.0,0.0,0.0,0.0,0.0,0.0,0.0,0.0,0.0,0.0,0.0,0.0,0.0,0.0,0.0,0.0,0.0,0.0,0.0,0.0,0.0,0.0,-5.3992,-5.6121,-5.7641,-5.7978,-5.8352,-5.8971,-5.6965,-5.417,-5.0638,-4.7477,0.0,0.0,0.0,0.0,0.0,0.0,0.0,0.0,0.0,0.0,0.0,0.0,0.0,0.0,0.0,0.0,0.0,0.0,0.0,0.0,0.0,0.0,0.0,0.0,0.0,0.0,0.0,0.0,0.0,0.0,0.0,0.0,0.0,0.0,0.0,0.0,0.0,0.0,0.0,0.0,0.0,0.0,0.0,0.0,0.0,0.0,0.0,0.0,0.0,0.0,0.0,0.0,0.0,0.0,0.0,0.0,0.0,0.0,0.0,0.0,0.0,0.0,0.0,0.0,0.0,0.0,0.0,0.0,0.0,0.0,0.0,0.0,0.0,0.0,0.0,0.0,0.0,0.0,0.0,0.0,0.0,0.0,0.0,0.0,0.0,0.0,0.0,0.0,0.0,0.0,0.0,0.0,0.0,0.0,0.0,0.0,0.0,0.0,0.0,0.0,0.0,0.0,-5.5423,-5.8127,0.0,-5.9646,-6.0002,-5.9271,-5.7734,-5.5024,-5.0771,0.0,0.0,0.0,0.0,0.0,0.0,0.0,0.0,0.0,0.0,0.0,0.0,0.0,0.0,0.0,0.0,0.0,0.0,0.0,0.0,0.0,0.0,0.0,0.0,0.0,0.0,0.0,0.0,0.0,0.0,0.0,0.0,0.0,0.0,0.0,0.0,0.0,0.0,0.0,0.0,0.0,0.0,0.0,0.0,0.0,0.0,0.0,0.0,0.0,0.0,0.0,0.0,0.0,0.0,0.0,0.0,0.0,0.0,0.0,0.0,0.0,0.0,0.0,0.0,0.0,0.0,0.0,0.0,0.0,0.0,0.0,0.0,0.0,0.0,0.0,0.0,0.0,0.0,0.0,0.0,0.0,0.0,0.0,0.0,0.0,0.0,0.0,0.0,0.0,0.0,0.0,0.0,0.0,0.0,0.0,0.0,0.0,0.0,0.0,0.0,0.0,0.0,-5.2765,-5.6908,-5.9609,0.0,-6.0748,-6.1122,-5.9978,-5.8515,-5.5809,-5.1456,0.0,0.0,0.0,0.0,0.0,0.0,0.0,0.0,0.0,0.0,0.0,0.0,0.0,0.0,0.0,0.0,0.0,0.0,0.0,0.0,0.0,0.0,0.0,0.0,0.0,0.0,0.0,0.0,0.0,0.0,0.0,0.0,0.0,0.0,0.0,0.0,0.0,0.0,0.0,0.0,0.0,0.0,0.0,0.0,0.0,0.0,0.0,0.0,0.0,0.0,0.0,0.0,0.0,0.0,0.0,0.0,0.0,0.0,0.0,0.0,0.0,0.0,0.0,0.0,0.0,0.0,0.0,0.0,0.0,0.0,0.0,0.0,0.0,0.0,0.0,0.0,0.0,0.0,0.0,0.0,0.0,0.0,0.0,0.0,0.0,0.0,0.0,0.0,0.0,0.0,0.0,0.0,0.0,0.0,0.0,0.0,0.0,0.0,0.0,0.0,0.0,0.0,-5.5077,-5.8334,-6.0334,-6.0149,-6.1022,-6.1548,-6.1321,-5.9166,-5.635,0.0,0.0,0.0,0.0,0.0,0.0,0.0,0.0,0.0,0.0,0.0,0.0,0.0,0.0,0.0,0.0,0.0,0.0,0.0,0.0,0.0,0.0,0.0,0.0,0.0,0.0,0.0,0.0,0.0,0.0,0.0,0.0,0.0,0.0,0.0,0.0,0.0,0.0,0.0,0.0,0.0,0.0,0.0,0.0,0.0,0.0,0.0,0.0,0.0,0.0,0.0,0.0,0.0,0.0,0.0,0.0,0.0,0.0,0.0,0.0,0.0,0.0,0.0,0.0,0.0,0.0,0.0,0.0,0.0,0.0,0.0,0.0,0.0,0.0,0.0,0.0,0.0,0.0,0.0,0.0,0.0,0.0,0.0,0.0,0.0,0.0,0.0,0.0,0.0,0.0,0.0,0.0,0.0,0.0,0.0,0.0,0.0,0.0,0.0,0.0,0.0,0.0,0.0,-5.4403,-5.8427,-6.1134,-6.111,-6.2321,-6.2876,-6.2252,-6.0396,-5.7786,-5.4537,0.0,0.0,0.0,0.0,0.0,0.0,0.0,0.0,0.0,0.0,0.0,0.0,0.0,0.0,0.0,0.0,0.0,0.0,0.0,0.0,0.0,0.0,0.0,0.0,0.0,0.0,0.0,0.0,0.0,0.0,0.0,0.0,0.0,0.0,0.0,0.0,0.0,0.0,0.0,0.0,0.0,0.0,0.0,0.0,0.0,0.0,0.0,0.0,0.0,0.0,0.0,0.0,0.0,0.0,0.0,0.0,0.0,0.0,0.0,0.0,0.0,0.0,0.0,0.0,0.0,0.0,0.0,0.0,0.0,0.0,0.0,0.0,0.0,0.0,0.0,0.0,0.0,0.0,0.0,0.0,0.0,0.0,0.0,0.0,0.0,0.0,0.0,0.0,0.0,0.0,0.0,0.0,0.0,0.0,0.0,0.0,0.0,0.0,0.0,0.0,0.0,0.0,-5.5359,-5.9022,-6.1517,-6.1848,-6.3019,-6.3571,-6.2978,-6.1582,-5.9344,-5.6047,0.0,0.0,0.0,0.0,0.0,0.0,0.0,0.0,0.0,0.0,0.0,0.0,0.0,0.0,0.0,0.0,0.0,0.0,0.0,0.0,0.0,0.0,0.0,0.0,0.0,0.0,0.0,0.0,0.0,0.0,0.0,0.0,0.0,0.0,0.0,0.0,0.0,0.0,0.0,0.0,0.0,0.0,0.0,0.0,0.0,0.0,0.0,0.0,0.0,0.0,0.0,0.0,0.0,0.0,0.0,0.0,0.0,0.0,0.0,0.0,0.0,0.0,0.0,0.0,0.0,0.0,0.0,0.0,0.0,0.0,0.0,0.0,0.0,0.0,0.0,0.0,0.0,0.0,0.0,0.0,0.0,0.0,0.0,0.0,0.0,0.0,0.0,0.0,0.0,0.0,0.0,0.0,0.0,0.0,0.0,0.0,0.0,0.0,0.0,0.0,0.0,0.0,-5.7172,-5.9797,-6.1555,-6.2301,-6.3208,-6.3669,-6.3382,-6.2618,-6.0796,-5.7522,0.0,0.0,0.0,0.0,0.0,0.0,0.0,0.0,0.0,0.0,0.0,0.0,0.0,0.0,0.0,0.0,0.0,0.0,0.0,0.0,0.0,0.0,0.0,0.0,0.0,0.0,0.0,0.0,0.0,0.0,0.0,0.0,0.0,0.0,0.0,0.0,0.0,0.0,0.0,0.0,0.0,0.0,0.0,0.0,0.0,0.0,0.0,0.0,0.0,0.0,0.0,0.0,0.0,0.0,0.0,0.0,0.0,0.0,0.0,0.0,-4.9195,0.0,0.0,0.0,0.0,0.0,0.0,0.0,0.0,0.0,0.0,0.0,0.0,0.0,0.0,0.0,0.0,0.0,0.0,0.0,0.0,0.0,0.0,0.0,0.0,0.0,0.0,0.0,0.0,0.0,0.0,0.0,0.0,0.0,0.0,0.0,0.0,0.0,0.0,0.0,0.0,0.0,-5.6403,-5.9339,-6.1484,-6.2168,-6.3006,-6.3442,-6.3279,-6.2409,-6.1047,-5.9034,-5.6645,0.0,0.0,0.0,0.0,0.0,0.0,0.0,0.0,0.0,0.0,0.0,0.0,0.0,0.0,0.0,0.0,0.0,0.0,0.0,0.0,0.0,0.0,0.0,0.0,0.0,0.0,0.0,0.0,0.0,0.0,0.0,0.0,0.0,0.0,0.0,0.0,0.0,0.0,0.0,0.0,0.0,0.0,0.0,0.0,0.0,0.0,0.0,0.0,0.0,0.0,0.0,0.0,0.0,0.0,0.0,0.0,0.0,0.0,0.0,0.0,-5.1165,0.0,0.0,0.0,0.0,0.0,0.0,0.0,0.0,0.0,0.0,0.0,0.0,0.0,0.0,0.0,0.0,0.0,0.0,0.0,0.0,0.0,0.0,0.0,0.0,0.0,0.0,0.0,0.0,0.0,0.0,0.0,0.0,0.0,0.0,0.0,0.0,0.0,0.0,0.0,0.0,-5.7178,-5.9875,-6.1878,-6.2586,-6.3067,-6.3242,-6.3099,-6.229,-6.1248,-5.9963,-5.7964,0.0,0.0,0.0,0.0,0.0,0.0,0.0,0.0,0.0,0.0,0.0,0.0,0.0,0.0,0.0,0.0,0.0,0.0,0.0,0.0,0.0,0.0,0.0,0.0,0.0,0.0,0.0,0.0,0.0,0.0,0.0,0.0,0.0,0.0,0.0,0.0,0.0,0.0,0.0,0.0,0.0,0.0,0.0,0.0,0.0,0.0,0.0,0.0,0.0,0.0,0.0,0.0,0.0,-5.5692,-5.574,-5.574,-5.574,-5.65,-5.7695,-5.5789,-5.4828,-5.4428,0.0,0.0,0.0,0.0,0.0,0.0,0.0,0.0,0.0,0.0,0.0,0.0,0.0,0.0,0.0,0.0,0.0,0.0,0.0,0.0,0.0,0.0,0.0,0.0,0.0,-5.1573,-5.1633,0.0,0.0,0.0,0.0,0.0,0.0,0.0,0.0,0.0,0.0,0.0,0.0,-5.845,-6.0722,-6.2285,-6.3073,-6.3147,-6.3099,-6.2978,-6.2242,-6.1384,-6.0456,-5.9024,-5.6808,0.0,0.0,0.0,0.0,0.0,0.0,0.0,0.0,0.0,0.0,0.0,0.0,0.0,0.0,0.0,0.0,0.0,0.0,0.0,0.0,0.0,0.0,0.0,0.0,0.0,0.0,0.0,0.0,0.0,0.0,0.0,0.0,-4.729,-4.801,0.0,0.0,0.0,0.0,0.0,0.0,0.0,0.0,0.0,0.0,0.0,0.0,0.0,-5.4707,-5.6413,-5.649,-5.7351,-5.8937,-5.8832,-5.8895,-5.8999,-5.8999,-5.947,-6.0267,-5.9279,0.0,-5.6611,-5.449,0.0,0.0,0.0,0.0,0.0,0.0,0.0,0.0,0.0,0.0,0.0,0.0,0.0,0.0,0.0,0.0,0.0,0.0,0.0,0.0,0.0,0.0,-5.3207,-5.5071,-5.4589,-5.3651,0.0,-5.2989,-5.2076,-5.0118,-5.1027,0.0,0.0,0.0,0.0,0.0,0.0,0.0,-5.9233,-6.0973,-6.2261,-6.2977,-6.3026,-6.2978,-6.283,-6.2096,-6.1288,-6.0456,-5.9575,-5.7877,-5.5221,-5.4452,0.0,0.0,0.0,0.0,0.0,0.0,0.0,0.0,0.0,0.0,0.0,0.0,0.0,0.0,0.0,0.0,0.0,0.0,0.0,0.0,0.0,0.0,0.0,0.0,0.0,0.0,0.0,0.0,0.0,-4.791,-4.9831,-5.0262,-5.0418,-5.0426,0.0,0.0,0.0,0.0,0.0,0.0,0.0,0.0,0.0,-5.5518,-5.6519,-5.7397,-5.825,-5.8329,-5.8681,-5.9376,-5.9483,-5.9509,-5.9509,-5.9562,-6.0303,-6.1435,-6.1073,-6.0557,-5.976,-5.7905,-5.6792,-5.6163,0.0,0.0,0.0,0.0,-5.0426,-5.0803,-5.0258,-5.1129,0.0,-5.24,0.0,0.0,0.0,0.0,0.0,0.0,0.0,0.0,0.0,0.0,-5.4577,-5.5518,-5.558,-5.5481,-5.5534,-5.607,-5.5744,0.0,-5.323,-5.3354,-5.1733,0.0,0.0,0.0,0.0,0.0,-5.9345,-6.1245,-6.2585,-6.2843,-6.283,-6.278,-6.278,-6.1593,-6.0652,-6.0298,-5.9089,-5.7664,-5.5942,-5.5149,-5.3281,0.0,0.0,0.0,0.0,0.0,0.0,0.0,0.0,0.0,0.0,0.0,0.0,0.0,0.0,0.0,0.0,0.0,0.0,0.0,0.0,0.0,0.0,0.0,0.0,0.0,0.0,0.0,0.0,-4.9809,-5.1837,-5.241,-5.2529,-5.2704,0.0,0.0,0.0,0.0,0.0,0.0,-5.5674,-5.6613,-5.7405,-5.8013,-5.8995,-5.9581,-5.9797,-6.0087,-6.0303,-6.0408,-6.0593,-6.0657,-6.0575,-6.0675,-6.138,-6.2538,-6.2593,-6.2512,-6.2223,-6.081,-5.9615,-5.8601,-5.7506,-5.6151,-5.4689,-5.3434,-5.3537,-5.4261,-5.3425,-5.4455,-5.6124,-5.6286,0.0,-5.5321,-5.4712,0.0,0.0,0.0,0.0,-5.5223,-5.6268,-5.6403,-5.634,-5.666,-5.6929,-5.7154,-5.7154,-5.8112,-5.8267,0.0,-5.5696,-5.5715,-5.4821,0.0,0.0,0.0,0.0,-5.8891,-5.9853,-6.1594,-6.2755,-6.2755,-6.2654,-6.2629,-6.2679,-6.114,-6.0139,-6.0139,-5.864,-5.7266,-5.6249,-5.5762,-5.4169,-5.1318,0.0,0.0,0.0,0.0,0.0,0.0,0.0,0.0,0.0,0.0,0.0,0.0,0.0,0.0,0.0,0.0,0.0,0.0,0.0,0.0,0.0,0.0,0.0,0.0,0.0,0.0,0.0,0.0,0.0,-5.4496,-5.3981,0.0,0.0,0.0,0.0,-5.5724,-5.6674,-5.7654,-5.8721,-5.8959,-5.9078,-5.9114,-5.9905,-6.0724,-6.1479,-6.217,-6.2896,-6.3651,-6.368,-6.368,-6.368,-6.3791,-6.3914,-6.4022,-6.4194,-6.3852,-6.3056,-6.2223,-6.0955,-5.9542,-5.947,-5.8927,-5.8213,-5.861,-5.8214,-5.752,-5.7982,-5.831,-5.856,-5.8757,-5.8547,-5.8042,-5.7015,-5.6701,0.0,0.0,-5.6994,-5.7942,-5.9302,-5.9131,-5.8916,-6.0451,-5.9666,-5.8595,-5.8595,-5.8816,-5.8777,0.0,-5.8565,-5.8697,-5.7272,0.0,-5.8628,-5.8737,-5.953,-6.0432,-6.1386,-6.213,-6.2629,-6.2629,-6.2603,-6.2552,-6.2423,-6.0963,-6.0015,-6.0015,-5.8519,-5.717,-5.6249,-5.6308,-5.5471,-5.3644,-5.2867,0.0,0.0,0.0,0.0,0.0,0.0,0.0,0.0,0.0,0.0,0.0,0.0,0.0,0.0,0.0,0.0,0.0,0.0,0.0,0.0,0.0,0.0,0.0,0.0,0.0,0.0,0.0,0.0,-5.5573,-5.5808,0.0,-5.7298,-5.7171,-5.7255,-5.7712,-5.8053,-5.8852,-6.0288,-6.0469,-6.1056,-6.2061,-6.2471,-6.2817,-6.3105,-6.3327,-6.3555,-6.3783,-6.3872,-6.3843,-6.3783,-6.3984,-6.4354,-6.4888,-6.5099,-6.5011,-6.4685,-6.3775,-6.2482,-6.0964,-6.0458,-5.9953,-5.941,-5.8923,-5.8852,-5.8908,-5.8373,-5.8999,-6.0113,-6.0562,-6.0358,-5.9878,-5.9509,-5.9303,-5.9168,-5.9086,-5.9494,-6.0038,-6.0522,-6.0152,-5.9745,-6.0201,-5.9974,-5.9602,-5.9595,-6.0053,-6.0461,-6.0344,-5.9826,-5.9222,-5.8591,-5.8947,-5.9361,-5.9488,-6.0205,-6.0876,-6.1284,-6.2026,-6.2449,-6.2449,-6.2397,-6.2344,-6.2407,-6.0861,-5.9645,-5.9135,-5.808,-5.7049,-5.6128,-5.6116,-5.5461,-5.3954,-5.3153,-5.1471,0.0,0.0,0.0,0.0,0.0,0.0,0.0,0.0,0.0,0.0,0.0,0.0,0.0,0.0,0.0,0.0,0.0,0.0,0.0,0.0,0.0,0.0,0.0,0.0,0.0,0.0,-5.5687,-5.6893,-5.7463,-5.8096,-5.9081,-5.9345,-5.9465,-5.9494,-6.0052,-6.0831,-6.1932,-6.2087,-6.2677,-6.3717,-6.4064,-6.4202,-6.4202,-6.4429,-6.4481,-6.4389,-6.4481,-6.4481,-6.4389,-6.4627,-6.5064,-6.5629,-6.5843,-6.5757,-6.5468,-6.4809,-6.3747,-6.2364,-6.134,-6.0796,-6.0526,-5.973,-5.9585,-5.9639,-5.8779,-5.9744,-6.142,-6.1722,-6.186,-6.1923,-6.1923,-6.182,-6.1572,-6.0976,-6.1171,-6.1468,-6.1099,-6.0909,-6.0789,-6.0642,-6.073,-6.0776,-6.0576,-6.0876,-6.1299,-6.1444,-6.0752,-6.0114,-6.0059,-6.0224,-6.0385,-6.0518,-6.1016,-6.1396,-6.1517,-6.199,-6.2318,-6.2318,-6.2238,-6.2222,-6.2275,-6.0451,-5.9118,-5.8623,-5.7556,-5.6551,-5.5704,-5.5668,-5.5014,-5.3599,-5.2543,-5.0982,-4.8932,0.0,0.0,0.0,0.0,0.0,0.0,0.0,0.0,0.0,0.0,0.0,0.0,0.0,0.0,0.0,0.0,0.0,0.0,0.0,0.0,0.0,0.0,0.0,-5.4831,-5.5652,-5.6893,-5.856,-5.8916,-5.9358,-6.011,-6.0898,-6.1312,-6.1165,-6.2743,-6.3693,-6.3728,-6.3849,-6.3938,-6.3974,-6.4542,-6.4839,-6.4839,-6.5475,-6.5804,-6.5804,-6.5804,-6.5804,-6.5804,-6.5958,-6.6115,-6.63,-6.6421,-6.6049,-6.5328,-6.5291,-6.4681,-6.3615,-6.222,-6.1666,-6.1602,-6.1429,-6.0782,-5.9899,-5.9632,-6.0772,-6.2415,-6.2331,-6.3072,-6.4029,-6.4029,-6.4065,-6.3784,-6.2119,-6.2083,-6.2302,-6.1152,-6.1574,-6.2241,-6.2022,-6.2114,-6.2051,-6.1413,-6.1182,-6.1152,-6.127,-6.1444,-6.1651,-6.1756,-6.1784,-6.184,-6.195,-6.1978,0.0,-6.2195,-6.2185,-6.2185,-6.2185,-6.2185,-6.2141,-6.2005,-5.9832,-5.8471,-5.8598,-5.6973,-5.5716,-5.5074,-5.5038,-5.4358,-5.287,-5.1252,-4.9648,-4.8045,0.0,0.0,0.0,0.0,0.0,0.0,0.0,0.0,0.0,0.0,0.0,0.0,0.0,0.0,0.0,0.0,0.0,0.0,0.0,0.0,0.0,0.0,-5.5821,-5.5821,-5.7071,-5.8396,-5.9452,-6.0123,-6.0831,-6.1646,-6.2367,-6.2831,-6.277,-6.3224,-6.3724,-6.4331,-6.4398,-6.4679,-6.5252,-6.5435,-6.5546,-6.5546,-6.5728,-6.5804,-6.5804,-6.5804,-6.5804,-6.5804,-6.5958,-6.6052,-6.6115,-6.6269,-6.6222,-6.597,-6.5273,-6.4859,-6.4445,-6.3502,-6.3048,-6.2892,-6.2709,-6.1965,-6.1144,-6.1777,-6.1623,-6.125,-6.1875,-6.2021,-6.1944,-6.1944,-6.2426,-6.2844,-6.2272,-6.2791,-6.3304,-6.2278,-6.2188,-6.2158,-6.1646,-6.1349,-6.1188,-6.1159,-6.1123,-6.1093,-6.1152,-6.1182,-6.127,-6.1415,-6.1644,-6.1784,-6.184,-6.1923,0.0,-6.206,-6.206,-6.206,-6.206,-6.206,-6.2033,-6.1978,-6.0339,-5.9035,-5.8471,-5.7467,-5.6525,-5.5752,-5.6296,-5.5668,-5.3709,-5.2091,-5.055,0.0,0.0,0.0,0.0,0.0,0.0,0.0,0.0,0.0,0.0,0.0,0.0,0.0,0.0,0.0,0.0,0.0,0.0,0.0,0.0,0.0,0.0,-5.5585,-5.7021,-5.7662,-5.8609,-5.9523,-6.0308,-6.1152,-6.1938,-6.2694,-6.351,-6.3939,-6.3912,-6.4198,-6.459,-6.509,-6.5126,-6.534,-6.5804,-6.5804,-6.5804,-6.5804,-6.5804,-6.5804,-6.5804,-6.5804,-6.5804,-6.5804,-6.5863,-6.5958,0.0,-6.6146,-6.6177,-6.6141,-6.5617,-6.5345,0.0,0.0,0.0,0.0,0.0,-6.247,-6.2171,-6.1962,-6.1714,-6.16,-6.1738,-6.1889,-6.1966,-6.1966,-6.2622,-6.3214,-6.2419,-6.2867,-6.3285,-6.1966,-6.1839,-6.191,-6.1092,-6.1133,-6.1275,-6.1135,-6.1093,-6.1123,-6.1182,-6.1152,0.0,-6.1211,-6.1415,-6.1615,-6.17,-6.1756,-6.184,-6.1895,-6.184,-6.184,-6.1895,-6.1876,-6.184,-6.1895,-6.0413,0.0,0.0,0.0,-5.7213,-5.6139,-5.5934,0.0,0.0,0.0,-5.1675,-5.0811,0.0,0.0,0.0,-4.6356,-4.6672,0.0,0.0,0.0,0.0,0.0,0.0,0.0,0.0,0.0,0.0,0.0,0.0,0.0,0.0,0.0,0.0,-5.7077,-5.8231,-5.9701,-6.0058,-6.0451,-6.1165,-6.2105,-6.2958,-6.3479,-6.4358,-6.4854,-6.4733,-6.5411,-6.5804,-6.5804,0.0,0.0,0.0,0.0,-6.5804,-6.5804,-6.5804,-6.5804,-6.5804,-6.5804,-6.5804,-6.5804,-6.5804,-6.5832,-6.599,-6.599,-6.599,-6.599,-6.599,-6.5895,-6.5661,-6.4234,-6.3663,-6.3591,-6.2728,-6.2777,-6.3066,-6.1302,0.0,0.0,-6.1732,-6.2104,-6.2852,-6.2959,-6.3511,-6.3855,-6.2453,-6.2493,-6.2568,-6.098,-6.1117,-6.1463,-6.0631,-6.114,-6.1707,-6.1176,-6.1093,-6.1123,-6.127,-6.1182,-6.1064,-6.1093,-6.1211,-6.1357,-6.153,-6.1595,-6.1651,-6.1756,-6.168,-6.1651,-6.1756,0.0,0.0,-6.1792,-6.0386,-5.9591,-5.9828,-5.8916,-5.7793,-5.6479,-5.5073,-5.3954,-5.3131,-5.3131,-5.2976,-5.2704,-5.1923,-5.1502,-5.1416,-5.0122,-4.9939,0.0,0.0,0.0,0.0,0.0,0.0,0.0,0.0,0.0,0.0,0.0,0.0,0.0,0.0,0.0,-5.6019,-5.7484,-5.8845,-5.9773,-6.1022,-6.1878,-6.2057,-6.3336,-6.4265,-6.4376,-6.5122,-6.5586,-6.559,-6.5697,-6.5804,-6.5804,-6.5804,-6.5804,-6.5804,-6.5804,-6.5804,-6.5804,-6.5804,-6.5804,-6.5804,0.0,0.0,-6.5804,-6.5804,-6.5804,-6.5867,-6.5867,-6.5867,-6.5867,-6.5867,-6.5836,-6.5768,-6.5447,-6.534,-6.5272,-6.497,-6.4454,-6.3863,-6.3282,-6.2446,-6.1574,-6.1401,-6.1046,-6.0829,-6.1463,-6.145,0.0,-6.2322,-6.1915,-6.1351,-6.1614,-6.1273,-6.0817,-6.0732,-6.0808,-6.0879,-6.0854,-6.1004,-6.1093,-6.1123,-6.0968,-6.0908,-6.1064,-6.1211,-6.1328,-6.1357,-6.1473,-6.1623,-6.1651,-6.1623,-6.1623,-6.1651,-6.1623,-6.1623,-6.1651,-6.0752,-6.024,-6.0295,-5.9005,-5.8119,-5.782,-5.6942,-5.6038,-5.5243,-5.5108,-5.447,-5.3327,-5.3171,-5.2821,-5.2226,-5.0809,-5.059,0.0,0.0,0.0,0.0,0.0,0.0,0.0,0.0,0.0,0.0,0.0,-5.1863,-5.2891,0.0,-5.5893,-5.7242,-5.8146,-5.9131,-6.0344,-6.1581,-6.2504,-6.2837,-6.3877,-6.4626,-6.4626,-6.534,-6.5625,-6.5233,-6.559,-6.5804,-6.5804,-6.5804,-6.5804,-6.5804,-6.5804,-6.5804,-6.5804,-6.5804,-6.5804,-6.5804,-6.5804,-6.5804,-6.5804,-6.5804,-6.5804,-6.5804,-6.5804,-6.5804,-6.5804,-6.5804,-6.5867,-6.5895,-6.5836,-6.5804,-6.5772,-6.5513,-6.5101,-6.4612,-6.3923,-6.2843,-6.1695,-6.1408,-6.0674,-6.0046,-6.0531,-6.0768,-6.0938,-6.129,-6.1488,-6.151,-6.1157,-6.1023,-6.0854,-6.0525,-6.0485,-6.0552,-6.0609,-6.0732,-6.0854,-6.0854,-6.0793,-6.0757,-6.0908,-6.0998,-6.1087,-6.1182,-6.127,-6.1357,-6.1444,-6.1386,-6.1357,-6.1444,-6.1386,-6.1357,-6.1444,-6.1171,-6.1012,-6.1012,-5.9555,-5.8709,-5.8789,-5.7582,-5.6727,-5.6407,-5.5883,-5.5091,-5.4061,-5.3676,-5.3135,-5.248,-5.1782,-5.1756,0.0,0.0,0.0,0.0,0.0,0.0,0.0,0.0,-4.9503,-5.0797,-5.182,-5.2987,-5.4677,-5.5652,-5.6723,-5.8431,-5.8845,-5.9452,-6.0915,-6.1891,-6.2707,-6.3336,-6.4126,-6.4662,-6.484,-6.5411,-6.5518,-6.4876,-6.5447,-6.5804,-6.5804,-6.5804,-6.5804,-6.5804,-6.5804,-6.5804,-6.5804,-6.5804,-6.5804,-6.5804,-6.5804,-6.5804,-6.5804,-6.5804,-6.5804,-6.5804,-6.5804,-6.5804,-6.5804,-6.5804,-6.5832,-6.5958,-6.5867,-6.5804,-6.5772,-6.5415,-6.5316,-6.5143,-6.4175,-6.313,-6.212,-6.1623,-6.0716,-5.9816,-6.0118,-6.0571,-6.0887,-6.0536,-6.127,-6.1829,-6.0601,-6.0777,-6.109,-6.0282,-6.0234,-6.0396,-6.0396,-6.0521,-6.0578,-6.0578,-6.0578,-6.0609,-6.0757,-6.0757,-6.0818,-6.1064,-6.1093,-6.1152,-6.127,-6.1152,-6.1093,-6.127,-6.1123,-6.1123,-6.127,-6.1415,-6.1466,-6.1314,-5.9949,-5.9141,-5.9105,-5.7594,-5.6803,-5.6907,-5.6165,-5.542,-5.4756,-5.3999,-5.3279,-5.2663,-5.2585,-5.2694,-4.3944,-4.5635,-4.7844,-4.8506,-4.9361,-4.9728,0.0,0.0,-5.015,-5.0796,-5.2243,-5.3768,-5.4811,-5.6162,-5.7505,-5.8538,-5.9309,-6.0094,-6.0986,-6.1801,-6.2587,-6.3306,-6.4126,-6.4876,-6.559,-6.5768,-6.5768,-6.5661,-6.5768,-6.5804,-6.5804,-6.5804,-6.5804,-6.5804,-6.5804,-6.5804,-6.5804,-6.5804,-6.5804,-6.5804,-6.5804,-6.5804,-6.5804,-6.5804,-6.5804,-6.5804,-6.5804,-6.5804,-6.5804,-6.5804,-6.5804,-6.5836,-6.5804,-6.5804,-6.5772,-6.5415,-6.5316,-6.5249,-6.4773,-6.3517,-6.2191,-6.212,-6.0972,-5.9758,-6.0453,-6.0244,-6.007,-6.1325,-6.146,-6.1105,-6.093,-6.1099,-6.109,-6.0282,-6.0234,-6.0396,-6.0396,-6.0521,-6.0578,-6.0578,-6.0485,-6.0458,-6.0609,-6.0516,-6.0578,-6.1034,-6.1093,-6.1093,-6.1123,-6.0938,-6.0908,-6.1093,-6.0938,-6.0908,-6.1093,-6.1152,-6.089,-6.0318,-5.9494,-5.8705,-5.8016,-5.7119,-5.6626,-5.6653,-5.6447,-5.5955,-5.5327,-5.4512,-5.3799,-5.3194,-5.2594,-5.2457,-4.5733,-4.7125,0.0,0.0,-5.0683,-5.1063,-5.1511,-5.1874,-5.2166,-5.2322,-5.3218,-5.4127,-5.4529,-5.5956,-5.7381,0.0,-5.9212,-6.0084,-6.0986,-6.1379,-6.2057,-6.3234,-6.3605,-6.4108,-6.5023,-6.5422,-6.5429,-6.5034,-6.549,-6.5772,-6.5643,-6.574,-6.5804,-6.5804,-6.5804,-6.5804,-6.5804,-6.5707,-6.5643,-6.5607,-6.5545,-6.5545,-6.5643,-6.5643,-6.5707,-6.5804,-6.5804,-6.5804,-6.5804,-6.5804,-6.5867,-6.5895,-6.5836,-6.5454,-6.5002,-6.5204,-6.4931,-6.4376,-6.4005,-6.2682,-6.1222,-6.1324,-6.0456,-5.9522,-5.9935,-5.9864,-5.9725,-6.0386,-6.0697,-6.0729,-6.0375,-6.0718,-6.0959,-6.025,-6.0171,-6.0234,-6.0234,-6.0266,-6.0329,-6.0329,-6.0266,-6.0266,-6.0458,-6.0427,-6.0489,-6.0762,-6.0884,-6.0908,-6.0908,-6.0938,-6.1034,-6.1093,-6.0908,-6.0878,-6.1093,-6.0665,-6.0302,-6.0003,-5.8823,-5.8057,-5.7818,-5.6948,-5.6519,-5.66,-5.6465,-5.6071,-5.5418,-5.5059,-5.4374,-5.3411,-5.3111,-5.2821,-4.7608,0.0,0.0,-5.1263,-5.1863,-5.2342,-5.3478,-5.3735,-5.3752,-5.3828,-5.4211,-5.4556,-5.4796,-5.5988,-5.7205,-5.819,-5.9029,-5.9935,-6.0956,-6.1004,-6.1473,-6.2852,-6.3057,-6.3456,-6.446,-6.5112,-6.5297,-6.4792,-6.5419,-6.574,-6.5575,-6.574,-6.5804,-6.5804,-6.5804,-6.5804,-6.5804,-6.5575,-6.5477,-6.5477,-6.5382,-6.5382,-6.5477,-6.5542,-6.5675,-6.5804,-6.5804,-6.5772,-6.5704,-6.5522,-6.5479,-6.5538,-6.5264,-6.4642,-6.4024,-6.4433,-6.4058,-6.3332,-6.3028,-6.1848,-6.0531,-6.0598,-5.9976,-5.9251,-5.9386,-5.9419,-5.9419,-5.9419,-6.0181,-6.0735,-5.9894,-6.0449,-6.1039,-6.0221,-6.0008,-6.0008,-6.0107,-6.0107,-6.0107,-6.0107,-6.0107,-6.0139,-6.0266,-6.0333,-6.0396,-6.0516,-6.064,-6.0696,-6.0757,-6.0884,-6.0944,-6.0914,-6.0848,-6.0848,-6.0944,-6.0291,-5.9721,-5.9507,-5.8253,-5.7517,-5.7405,-5.6759,-5.6437,-5.6546,-5.6437,-5.6152,-5.5687,-5.5257,-5.4599,-5.3735,-5.3303,-5.2894,-4.9292,0.0,-5.1431,-5.2342,-5.3219,-5.3851,-5.3654,-5.3816,-5.4162,-5.4802,-5.4989,-5.521,-5.5991,-5.6544,-5.7235,-5.8336,-5.891,-5.9628,-6.0927,-6.0823,-6.0954,-6.1925,-6.2454,-6.3168,0.0,-6.5083,-6.5575,-6.5736,-6.5768,-6.5804,-6.5804,-6.5804,-6.5804,-6.5804,-6.5804,-6.5804,-6.5804,-6.5575,-6.5477,-6.5477,-6.5382,-6.5382,-6.551,-6.5707,-6.5804,-6.5804,-6.5804,-6.5707,-6.5474,-6.4852,-6.4567,-6.4401,-6.3708,-6.3262,-6.2946,-6.2823,-6.256,-6.2225,-6.2021,-6.1293,-6.0496,-6.0496,-5.984,-5.9012,-5.9012,-5.9012,-5.9012,-5.9012,-6.0221,-6.1224,-5.97,-6.0564,-6.1534,-6.013,-5.9779,-5.9879,-6.0075,-6.0107,-6.0107,-6.0107,-6.0107,-6.0107,-6.0107,-6.0107,-6.0171,-6.0396,-6.0427,-6.0458,-6.0578,-6.0609,-6.0547,-6.0427,-6.0635,-6.0757,-6.064,-6.0053,-5.9361,-5.8614,-5.7761,-5.7064,-5.6454,-5.6418,-5.6383,-5.6383,-5.6383,-5.6383,-5.6347,-5.4813,-5.4158,-5.4342,-5.2857,-5.2282,-5.0092,0.0,-5.2555,-5.3851,-5.4492,-5.4786,-5.4679,-5.5106,-5.5363,-5.506,-5.5332,-5.5646,-5.5844,-5.6946,-5.796,-5.8326,-5.9425,-6.0473,-6.1028,-6.0914,-6.1041,-6.1889,-6.2514,0.0,0.0,0.0,0.0,-6.5447,-6.5578,-6.5578,-6.548,-6.5675,-6.5804,-6.5804,-6.5804,-6.574,-6.5575,-6.5447,-6.5382,-6.5382,-6.5379,-6.5415,-6.5382,-6.5545,-6.5358,-6.486,-6.4731,-6.4383,-6.3822,-6.3602,-6.3495,-6.3463,-6.3211,-6.2496,-6.1616,-6.1586,-6.0937,-6.015,-6.0773,-6.0324,-5.9495,-5.9495,-5.9254,-5.9012,-5.9012,-5.9012,-5.9012,-5.9012,-5.9426,-5.9806,-5.9424,-5.9734,-6.0112,-5.9853,-5.9779,-5.9879,-6.0075,-6.0107,-6.0107,-6.0107,-6.0107,-6.0107,-6.0107,-6.0107,-6.0139,-6.0202,-6.0297,-6.0458,-6.0578,-6.0423,-6.0329,-6.0485,-6.0516,-6.0335,-5.9866,-5.9272,-5.8579,-5.7761,-5.6979,-5.653,-5.6418,-5.63,-5.6308,-5.6383,-5.6383,-5.6133,-5.5598,-5.5062,-5.4356,-5.3534,-5.2996,-5.2605,-5.0972,-5.2051,-5.3095,-5.4732,-5.5178,-5.5277,-5.5562,-5.5944,-5.6138,-5.5604,-5.575,-5.5964,-5.5793,-5.667,-5.7476,-5.7753,-5.888,-5.9921,-6.0511,-6.0549,-6.0782,-6.1406,-6.2025,0.0,0.0,0.0,0.0,-6.551,-6.5611,-6.5575,-6.5542,-6.5736,-6.5867,-6.5804,-6.5804,-6.574,-6.5607,-6.5415,-6.5108,-6.4692,-6.4822,-6.4713,-6.4402,-6.4531,-6.4347,-6.3882,-6.3754,-6.3374,-6.2882,-6.2663,-6.2524,-6.2457,-6.2174,-6.1395,-6.0449,-6.0417,-5.9734,-5.8909,-5.9702,-5.9529,-5.9012,-5.9012,-5.9012,-5.9012,-5.9012,-5.9012,-5.9012,-5.9012,-5.9219,-5.9392,-5.9218,-5.9425,-5.9665,-5.9687,-5.9716,-5.9781,-5.9943,-5.9975,-5.9975,-5.9946,-5.9978,-5.9975,-5.9975,-6.004,-6.0107,-6.0107,-6.0202,-6.0297,-6.0423,-6.0234,-6.0202,-6.0392,-6.0145,-5.9792,-5.9294,-5.842,-5.7694,-5.7191,-5.6418,-5.6077,-5.6217,-5.6134,-5.6162,-5.6336,-5.6336,-5.5971,-5.5205,-5.492,-5.4187,-5.3089,-5.2802,-5.2507,-5.1945,-5.2573,-5.3184,-5.4945,-5.5312,-5.5384,-5.6097,-5.6311,-5.6311,-5.6213,-5.6103,-5.5999,0.0,0.0,-5.5953,-5.6723,-5.7384,-5.8255,-5.9515,-5.9924,-6.0231,0.0,0.0,0.0,0.0,0.0,0.0,-6.5949,0.0,-6.5832,-6.5954,-6.6021,-6.5958,-6.5804,-6.5804,-6.5772,-6.5772,-6.5412,-6.4656,-6.3512,-6.3678,-6.339,-6.2687,-6.2917,-6.2946,-6.291,-6.291,-6.2779,-6.2511,-6.193,-6.1616,-6.1351,-6.0575,-5.994,-5.9483,-5.9318,-5.8944,-5.8561,-5.884,-5.8978,-5.8978,-5.9012,-5.9012,-5.9012,-5.9012,-5.9012,-5.9012,-5.9012,-5.9564,-5.9944,-5.9219,-5.9564,-6.0048,-5.9695,-5.9588,-5.9619,-5.9748,-5.9814,-5.9748,-5.9619,-5.9718,-5.9779,-5.9779,-5.9943,-6.0107,-6.0107,-6.0107,-6.0107,-6.0107,-6.0107,-6.0072,-6.0036,-5.9526,-5.91,-5.8878,-5.7661,-5.6899,-5.6835,-5.6129,-5.5764,-5.5872,-5.5872,-5.5993,-5.6197,-5.6162,-5.579,-5.5107,-5.4322,-5.3616,-5.2992,-5.224,-5.1956,-5.1997,-5.3007,-5.393,-5.5114,-5.5312,-5.5098,-5.4706,-5.4982,-5.5008,-5.3762,-5.3839,-5.4091,0.0,0.0,0.0,-5.6162,-5.73,0.0,-5.9692,-5.9828,0.0,-6.0538,0.0,-6.2191,-6.2942,-6.3942,0.0,0.0,-6.6052,-6.5927,-6.5832,-6.5958,-6.5958,-6.5804,-6.564,-6.5545,-6.5447,-6.4615,-6.3676,-6.2705,-6.3035,-6.3029,-6.2687,-6.2752,-6.2435,-6.187,-6.1777,-6.1328,-6.0733,-6.0621,-6.0484,-6.0385,-5.9984,-5.9584,-5.9318,-5.8978,-5.8702,-5.8525,-5.8596,-5.8736,-5.8875,-5.8944,-5.9012,-5.9012,-5.9012,-5.9012,-5.9012,-5.9012,-5.915,-5.9254,-5.9047,-5.915,-5.9288,-5.9353,-5.9386,-5.9419,-5.9619,-5.9652,-5.9619,-5.9621,-5.9718,-5.9779,-5.9779,-5.9846,-5.9879,-5.9879,-5.9816,-5.9816,-6.0075,-6.0107,-5.9896,-5.9334,-5.9155,-5.8523,-5.7333,-5.7027,-5.6623,-5.6059,-5.5812,-5.5764,-5.5872,-5.5822,-5.5822,-5.5993,-5.5426,-5.478,-5.4027,-5.3353,-5.265,-5.1928,-5.1779,-5.1833,-5.2164,-5.3015,-5.3732,-5.4649,-5.4776,-5.4491,-5.3749,-5.4046,-5.4073,-5.2732,-5.2952,0.0,-5.3324,0.0,0.0,0.0,0.0,0.0,-5.9158,-5.9467,-5.9845,0.0,-6.1148,0.0,-6.2967,-6.3685,-6.471,0.0,-6.6115,-6.6021,-6.6025,-6.6021,-6.5958,-6.5804,-6.5287,-6.4741,-6.4157,-6.3599,-6.2868,-6.1897,-6.2226,-6.2114,-6.17,-6.17,-6.1418,-6.0995,0.0,-6.0528,-6.0107,-6.0107,-6.0107,-6.0075,-5.9617,-5.9352,-5.9115,-5.8667,-5.8385,-5.8277,-5.8348,-5.8455,-5.8596,-5.884,-5.8944,-5.9012,-5.9012,-5.9012,-5.9012,-5.9012,-5.8771,-5.8599,-5.8944,-5.8771,-5.8633,-5.9182,-5.9319,-5.9319,-5.9419,-5.9453,-5.9486,-5.9588,-5.9718,-5.9779,-5.9779,-5.9779,-5.9779,-5.9779,-5.9437,-5.9262,-5.9453,-5.9421,-5.9249,-5.8892,-5.8262,-5.7522,-5.6666,-5.6345,-5.5988,-5.5625,-5.5531,-5.5496,-5.5584,-5.5496,-5.5561,-5.5706,-5.4959,-5.4416,-5.4131,-5.3167,-5.2465,-5.2003,-5.18,-5.1758,-5.2299,-5.2763,-5.3105,-5.3913,-5.3882,-5.358,-5.3064,-5.3217,-5.3194,-5.2281,0.0,-5.2979,-5.2902,-5.3774,-5.4514,-5.4437,0.0,-5.7384,-5.8223,-5.8887,-5.9638,-6.0539,-6.0777,-6.1453,-6.3057,-6.332,-6.421,-6.613,-6.6083,-6.6083,-6.6269,-6.6115,-6.5891,-6.5597,-6.4792,-6.3754,-6.2514,-6.2546,-6.2061,-6.1125,-6.1287,-6.0998,-6.0364,-6.0364,-6.0364,-6.0364,0.0,0.0,-6.0139,-6.0107,-6.0107,-6.0043,-5.9486,-5.9149,-5.8875,-5.835,-5.8027,-5.7918,-5.8099,-5.8205,-5.8277,-5.8666,-5.8875,-5.8978,-5.8978,-5.9012,-5.9012,-5.9012,-5.8564,-5.8185,-5.884,-5.853,-5.8253,-5.9078,-5.9285,-5.9285,-5.9285,-5.9285,-5.9319,-5.9486,-5.9652,-5.9748,-5.9748,-5.9748,-5.9748,-5.9748,-5.9088,-5.8599,-5.8564,-5.843,-5.8293,-5.8352,-5.7161,-5.6383,-5.6425,-5.5674,-5.5259,-5.5448,-5.5324,-5.5199,-5.5169,-5.5169,-5.5194,-5.5308,-5.4607,-5.4365,-5.4514,-5.3256,-5.259,-5.2555,-5.1963,-5.1683,-5.1982,-5.2612,-5.3125,-5.3394,-5.2852,-5.2215,-5.2122,-5.1917,0.0,0.0,-5.0716,-5.1087,-5.106,-5.2243,-5.328,-5.3394,0.0,0.0,0.0,0.0,-5.894,0.0,0.0,0.0,0.0,0.0,0.0,0.0,0.0,-6.5994,-6.6269,-6.6115,-6.5479,-6.4424,-6.425,-6.3312,-6.1576,-6.1639,-6.1251,-6.0317,-6.0477,-6.0438,-6.0171,-6.0171,-6.0171,-6.0139,-6.0139,0.0,-6.0333,-6.0171,-6.0008,-5.9814,-5.925,-5.884,-5.8561,-5.8099,-5.7918,-5.7881,-5.7918,-5.8063,-5.8277,-5.8666,-5.8806,-5.884,-5.8944,-5.9012,-5.9012,-5.9012,-5.8909,-5.884,-5.8978,-5.8909,-5.884,-5.9012,-5.9047,-5.9047,-5.9047,-5.9047,-5.9047,-5.9081,-5.925,-5.9419,-5.9419,-5.9419,-5.9419,-5.9419,-5.8627,-5.8043,-5.8043,-5.7848,-5.7447,-5.669,-5.6412,-5.602,-5.5474,-5.5299,-5.5229,-5.5259,-5.5229,-5.5139,-5.5053,-5.5053,-5.4739,-5.4177,-5.4156,-5.3824,-5.3217,-5.2584,-5.2297,-5.2262,-5.1757,-5.1531,-5.106,-5.1646,-5.2065,-5.2642,-5.2042,-5.113,-5.0579,0.0,0.0,0.0,-4.9888,-5.0585,-5.0585,0.0,0.0,0.0,0.0,0.0,0.0,0.0,0.0,0.0,0.0,0.0,0.0,0.0,0.0,0.0,0.0,-6.5899,-6.6146,-6.599,-6.5379,-6.4312,-6.3854,-6.2946,-6.1559,-6.1199,-6.0811,-6.036,-6.0454,-6.0454,-6.036,-6.0266,-6.0202,-6.0107,-6.0107,0.0,-6.0107,-6.0202,-6.0043,-5.9648,-5.8967,-5.8599,-5.8352,-5.7286,-5.7074,-5.7273,-5.69,-5.6872,-5.7152,-5.7877,-5.8392,-5.8806,-5.8944,-5.9012,-5.9012,-5.9012,-5.8737,-5.853,-5.8909,-5.8737,-5.853,-5.8909,-5.9012,-5.9012,-5.9012,-5.9081,-5.9149,-5.9149,-5.9251,-5.9285,-5.9149,-5.9047,-5.884,-5.8461,-5.7704,-5.7085,-5.6736,-5.6272,-5.6015,-5.605,-5.5702,-5.5348,-5.5113,-5.5053,-5.5022,-5.5079,-5.5053,-5.4961,-5.4904,-5.4904,-5.4761,-5.45,-5.4112,-5.4056,-5.4268,-5.2881,-5.2427,-5.2815,-5.1829,-5.1402,-5.0354,-5.0879,-5.1164,-5.186,-5.1286,-5.0283,-4.9328,-4.9345,0.0,0.0,-4.9423,-5.041,-5.055,0.0,-5.2179,0.0,0.0,0.0,0.0,0.0,0.0,0.0,0.0,0.0,0.0,0.0,0.0,0.0,0.0,0.0,-6.5958,-6.5867,-6.5383,-6.444,-6.3626,-6.2781,-6.1813,-6.103,-6.0609,-6.0547,-6.0578,-6.0547,-6.0485,-6.036,-6.0266,-6.0171,-6.0171,0.0,0.0,-6.0202,-5.9905,-5.9273,-5.8689,-5.822,-5.7735,-5.6607,-5.633,-5.6494,-5.5919,-5.5821,-5.6132,-5.6884,-5.7775,-5.8565,-5.8703,-5.8875,-5.8978,-5.8806,-5.8461,-5.8288,-5.8875,-5.8599,-5.8288,-5.8875,-5.9012,-5.8978,-5.8806,-5.8874,-5.8907,-5.8734,-5.8838,-5.8908,-5.8668,-5.8703,-5.8461,-5.7672,-5.6952,-5.6264,-5.5637,-5.4911,-5.4767,-5.5513,-5.5063,-5.4811,-5.493,-5.4873,-5.4842,-5.49,-5.4842,-5.4749,-5.4686,-5.4717,-5.4741,-5.4656,-5.4235,-5.4416,-5.5144,-5.331,-5.2725,-5.3324,-5.19,-5.1246,-5.0551,-5.1144,-5.1316,-5.122,-5.0597,-4.9811,-4.9233,0.0,0.0,-4.8406,-4.9091,-4.9816,-5.048,-5.1165,-5.1701,0.0,0.0,-5.4349,0.0,0.0,0.0,0.0,0.0,0.0,0.0,0.0,0.0,0.0,0.0,0.0,-6.5804,-6.5804,-6.5383,-6.444,-6.3626,-6.2781,-6.1813,-6.1117,-6.0635,-6.0427,-6.0516,-6.0454,-6.0171,-6.0139,-6.0202,-6.0364,-6.0364,0.0,0.0,-6.0068,-5.9329,-5.8509,-5.8497,-5.7462,-5.6022,-5.6564,-5.6325,-5.5818,-5.575,-5.5821,-5.603,-5.6235,-5.6953,-5.7741,-5.7945,-5.8495,-5.8875,-5.8185,-5.8426,-5.8909,-5.8978,-5.8944,-5.8944,-5.8978,-5.9012,-5.884,-5.815,-5.7945,-5.7637,-5.6882,-5.7362,-5.7775,-5.7603,-5.8221,-5.8496,-5.7569,-5.6884,-5.623,-5.5542,-5.4881,-5.4529,-5.4598,-5.4563,-5.4623,-5.4811,-5.4811,-5.4717,-5.4557,-5.4717,-5.4655,-5.4271,-5.4431,-5.4215,-5.356,-5.4422,-5.4604,-5.4042,-5.3427,-5.3148,-5.3183,-5.1774,-5.1123,-4.8905,-4.9645,-4.9967,-5.0281,-4.9722,-4.8882,-4.8243,0.0,-4.7883,-4.8225,-4.8915,-4.9746,-5.0445,-5.0837,-5.1221,-5.1815,0.0,0.0,0.0,0.0,0.0,0.0,0.0,0.0,0.0,0.0,0.0,0.0,0.0,0.0,-6.4376,-6.4804,-6.4916,-6.4532,-6.332,-6.247,-6.2088,-6.1239,-6.0757,-6.0635,-6.0516,-6.0423,-6.0392,-6.0202,-6.0202,-6.036,-6.0396,0.0,0.0,-5.9738,-5.9036,-5.8298,-5.7317,-5.6508,-5.5823,-5.5178,-5.5008,-5.4972,-5.4601,-5.4635,-5.4904,-5.5515,-5.6267,-5.7054,-5.7704,-5.8116,-5.8392,-5.853,-5.8771,-5.9012,-5.9012,-5.9012,-5.9012,-5.9012,-5.86,-5.8118,-5.7843,-5.7295,-5.6747,-5.6439,-5.6543,-5.6679,-5.6576,-5.678,-5.6676,-5.5825,-5.5485,-5.5111,-5.4461,-5.4151,-5.4078,-5.4175,-5.4367,-5.456,-5.4623,-5.4529,-5.4463,-5.4494,-5.4463,-5.4399,-5.4367,-5.4463,-5.4422,-5.4236,-5.473,-5.4913,-5.4655,-5.3701,-5.3218,-5.3183,-5.1665,-5.0989,-4.7367,-4.8201,-4.8878,-4.9454,-4.8944,-4.8152,0.0,-4.7412,-4.7357,-4.7718,-4.8459,-4.9342,-5.013,-5.039,-5.0739,-5.152,0.0,-5.35,0.0,0.0,0.0,0.0,0.0,0.0,0.0,0.0,0.0,0.0,0.0,0.0,0.0,-6.3703,-6.4019,-6.4234,-6.2985,-6.2271,-6.2271,-6.136,-6.0848,-6.0757,-6.0547,-6.0489,-6.0516,-6.0297,-6.0262,-6.045,0.0,0.0,0.0,-5.9218,-5.8412,-5.757,-5.6318,-5.5584,-5.5179,-5.4296,-5.4127,-5.4262,-5.3854,-5.3849,-5.4181,-5.4826,-5.5407,-5.6023,-5.6946,-5.7497,-5.7808,-5.7911,-5.8289,-5.8737,-5.8944,-5.9012,-5.8944,-5.8703,-5.8153,-5.7569,-5.7021,-5.6405,-5.5893,-5.5654,-5.5689,-5.5724,-5.5724,-5.5756,-5.5516,-5.4771,-5.4669,-5.4432,-5.3786,-5.375,-5.3849,-5.398,-5.4207,-5.4335,-5.4335,-5.4207,-5.4175,-5.4271,-5.4239,-5.4239,-5.4335,-5.4224,-5.4247,-5.4371,-5.4283,-5.4296,-5.4416,-5.3328,-5.2783,-5.2748,-5.1505,-5.09,-4.6283,-4.7334,-4.8422,-4.8802,-4.8338,-4.7862,0.0,-4.7047,-4.619,-4.6864,-4.7605,-4.8398,-4.9334,-4.9882,-5.0341,-5.0757,-5.2026,0.0,0.0,0.0,0.0,0.0,0.0,0.0,0.0,0.0,0.0,0.0,0.0,0.0,0.0,-6.2643,-6.2663,-6.3377,-6.2663,-6.2271,-6.2271,-6.1486,-6.0914,-6.0609,-6.0578,-6.0552,-6.0396,-6.0396,-6.0547,0.0,0.0,0.0,0.0,-5.8625,-5.7335,-5.6112,-5.5826,-5.4803,-5.3619,-5.4329,-5.4195,-5.3717,-5.3717,-5.3915,-5.4207,-5.4207,-5.4207,-5.4377,-5.5361,-5.6436,-5.7124,-5.5787,-5.6638,-5.8081,-5.8806,-5.9012,-5.8772,-5.7947,-5.7707,-5.7226,-5.5516,-5.5141,-5.4902,-5.4151,-5.4595,-5.5108,-5.5109,-5.5621,-5.5723,-5.4907,-5.4805,-5.4533,-5.3785,-5.3882,-5.398,-5.398,-5.4013,-5.4013,-5.4013,-5.4013,-5.3915,-5.3717,-5.4013,-5.4143,-5.4013,-5.3616,-5.3425,-5.3425,-5.2848,-5.2528,-5.2557,-5.205,-5.1808,-5.1801,-5.1205,-5.0989,-4.4472,-4.5505,-4.6328,-4.6365,-4.6636,-4.6773,-4.6464,-4.6202,-4.6164,-4.6734,-4.7525,-4.8371,-4.9199,-4.991,-5.0543,-5.1207,-5.2234,0.0,0.0,0.0,0.0,0.0,0.0,0.0,0.0,0.0,0.0,0.0,0.0,0.0,0.0,-6.1563,-6.1843,-6.2592,-6.1878,-6.139,-6.13,-6.093,-6.064,-6.0458,-6.0458,-6.0489,-6.0552,-6.0552,0.0,0.0,0.0,0.0,0.0,-5.7775,-5.6805,-5.6738,-5.5004,-5.4159,-5.385,-5.3956,-5.3954,-5.3915,-5.4013,-5.411,-5.4207,-5.4207,-5.455,-5.5031,-5.5204,-5.5892,-5.6611,-5.6748,-5.7638,-5.8462,-5.8187,-5.8118,-5.8015,-5.7775,-5.6713,-5.5621,-5.511,-5.4465,-5.3923,-5.3685,-5.3855,-5.3991,-5.4025,-5.4161,-5.4195,-5.3957,-5.389,-5.3822,-5.3585,-5.3618,-5.3651,-5.3651,-5.3651,-5.3751,-5.398,-5.3882,-5.3882,-5.4045,-5.4045,-5.4143,-5.4335,-5.3742,-5.3391,-5.3391,-5.2784,-5.2493,-5.2493,-5.1935,-5.1388,-5.0865,-5.0869,-5.0846,-4.2893,-4.3898,-4.4753,-4.5145,-4.5435,-4.5676,-4.591,-4.5858,-4.5917,-4.6404,-4.7152,-4.7998,-4.8853,-4.9622,-5.0467,-5.1457,-5.2345,0.0,0.0,0.0,0.0,0.0,0.0,0.0,0.0,0.0,0.0,0.0,0.0,0.0,0.0,-6.1093,-6.1343,-6.1807,-6.1283,-6.0878,-6.0727,-6.064,-6.0516,-6.0396,-6.0458,-6.0552,-6.0609,-6.0352,0.0,0.0,0.0,0.0,0.0,-5.6912,-5.6081,-5.6217,-5.442,-5.3783,-5.3882,-5.3849,-5.3882,-5.4013,-5.4175,-5.4207,-5.4207,-5.4303,-5.4851,-5.5474,-5.5516,-5.5688,-5.6063,-5.685,-5.7535,-5.8015,-5.7741,-5.7672,-5.7569,-5.7158,-5.5962,-5.4873,-5.4805,-5.4161,-5.3652,-5.3957,-5.3855,-5.3685,-5.3685,-5.3618,-5.3584,-5.3584,-5.3517,-5.3518,-5.3518,-5.3518,-5.345,-5.3382,-5.345,-5.3551,-5.3684,-5.3651,-5.3684,-5.3915,-5.398,-5.3941,-5.3859,-5.357,-5.3149,-5.2563,-5.217,-5.1815,-5.1538,-5.1228,-5.0828,-5.0397,-5.0627,-5.0647,0.0,-4.259,-4.3598,-4.4932,-4.4768,-4.4691,-4.6155,-4.5914,0.0,-4.5905,-4.6618,-4.7508,-4.8373,-4.9179,-5.0177,-5.1675,0.0,0.0,0.0,0.0,0.0,0.0,0.0,0.0,0.0,0.0,0.0,0.0,0.0,0.0,0.0,-6.1064,-6.1064,-6.1034,-6.0848,-6.0727,-6.0609,-6.0609,-6.0552,-6.0427,-6.0516,-6.0574,-6.0503,-5.9976,0.0,0.0,0.0,0.0,0.0,-5.6105,-5.5372,-5.49,-5.4045,-5.3717,-5.375,-5.3948,-5.4013,-5.4045,-5.4175,-5.4239,-5.4271,-5.4431,-5.498,-5.5673,-5.6029,-5.5823,-5.558,-5.6231,-5.6537,-5.6844,-5.7363,-5.7501,-5.7261,-5.6235,-5.5451,-5.4805,-5.4567,-5.4127,-5.3956,-5.4567,-5.4326,-5.3948,-5.3948,-5.3816,-5.3684,-5.3684,-5.3584,-5.3518,-5.3484,-5.345,-5.3382,-5.3179,-5.3348,-5.3382,-5.3213,-5.3382,-5.3518,-5.3484,-5.3817,-5.3639,-5.2853,-5.3169,-5.2636,-5.1149,-5.1045,-5.07,-5.0011,-5.0149,-5.0257,-5.0369,-5.0369,-5.0481,-4.059,0.0,-4.2541,-4.3483,-4.4,-4.4527,0.0,-4.5482,-4.5423,-4.552,-4.6546,-4.772,-4.8695,-4.9403,-5.053,0.0,0.0,0.0,0.0,0.0,0.0,0.0,0.0,0.0,0.0,0.0,0.0,0.0,0.0,0.0,0.0,-6.0878,-6.0757,-6.0583,-6.0552,-6.0578,-6.0757,-6.0671,-6.0578,-6.0547,-6.0578,-6.0352,-5.9905,-5.9757,0.0,0.0,0.0,0.0,-5.7954,-5.6443,-5.5845,-5.5664,-5.4251,-5.3882,-5.411,-5.4143,-5.4239,-5.4367,-5.4399,-5.4431,-5.4431,-5.4463,-5.495,-5.5474,-5.558,-5.5788,-5.5927,-5.5349,-5.569,-5.6201,-5.6337,-5.5996,-5.5621,-5.5962,-5.5349,-5.4499,-5.389,-5.4093,-5.4262,-5.389,-5.372,-5.3618,-5.3618,-5.3584,-5.3484,-5.3349,-5.3416,-5.3382,-5.3109,-5.3179,-5.3179,-5.2972,-5.3144,-5.3247,-5.3213,-5.3382,-5.3551,-5.3651,-5.3717,-5.3574,-5.3043,-5.3138,-5.2509,-5.1149,-5.0562,-5.0183,-5.0011,-5.0149,-5.0178,-5.0092,-5.032,-5.0397,-3.9785,-4.1013,-4.2132,-4.3074,-4.3759,-4.4415,-4.5111,-4.5283,-4.544,-4.5882,-4.6589,-4.752,-4.8765,0.0,0.0,0.0,0.0,0.0,0.0,0.0,0.0,0.0,0.0,0.0,0.0,0.0,0.0,0.0,0.0,0.0,0.0,-6.0757,-6.064,-6.0521,-6.0489,-6.0485,-6.0481,-6.0485,-6.0521,-6.0521,-6.0547,-6.0215,-5.9526,-5.9207,-5.8574,0.0,0.0,0.0,-5.7064,-5.6326,-5.5834,-5.5487,-5.4377,-5.4045,-5.4207,-5.4303,-5.4335,-5.4367,-5.4463,-5.4494,-5.4563,-5.4908,-5.5193,-5.5407,-5.5407,-5.5482,-5.5485,-5.5042,-5.5247,-5.5656,-5.5927,-5.5451,-5.5043,-5.5687,-5.5245,-5.4465,-5.4093,-5.4329,-5.4465,-5.4093,-5.3788,-5.3584,-5.3484,-5.3551,-5.3551,-5.3382,-5.3348,-5.328,-5.3076,-5.3041,-5.3007,-5.2903,-5.3076,-5.3179,-5.3179,-5.3382,-5.3517,-5.3618,-5.3345,-5.2965,-5.2466,-5.2498,-5.1981,-5.0905,-5.0209,-4.983,-4.9772,-5.0005,-5.0034,-4.986,-5.012,-5.0263,-3.9347,-4.072,-4.2196,-4.3158,-4.3759,-4.4328,-4.5216,0.0,0.0,0.0,0.0,0.0,0.0,-4.9966,0.0,0.0,0.0,0.0,0.0,0.0,0.0,0.0,0.0,0.0,0.0,0.0,0.0,0.0,0.0,0.0,0.0,-6.064,-6.0547,-6.0516,-6.0516,-6.0392,-6.0139,-6.0364,-6.0427,-6.0427,-6.0441,-6.0038,-5.9223,-5.845,-5.7612,0.0,0.0,0.0,-5.5777,-5.6034,-5.5745,-5.4992,-5.4566,-5.4411,-5.4443,-5.4603,-5.4571,-5.4409,-5.4465,-5.4494,-5.4598,-5.5253,-5.5363,-5.5268,-5.5202,-5.5004,-5.4804,-5.4837,-5.487,-5.5007,-5.5621,-5.5247,-5.4839,-5.5413,-5.504,-5.4566,-5.4465,-5.4499,-5.4566,-5.4431,-5.4025,-5.3617,-5.3517,-5.3618,-5.3617,-5.3416,-5.3314,-5.3179,-5.3076,-5.2938,-5.2834,-5.2834,-5.2972,-5.311,-5.3144,-5.3247,-5.3315,-5.3315,-5.2838,-5.2287,-5.1728,-5.1552,-5.1206,-5.0659,-5.0026,-4.9619,-4.95,-4.983,-4.9889,-4.9708,-4.9889,-5.0063,-3.9842,-4.1433,-4.2824,-4.3172,-4.3759,-4.4492,-4.5216,-4.588,0.0,0.0,0.0,0.0,0.0,-5.0472,0.0,0.0,0.0,0.0,0.0,0.0,0.0,0.0,0.0,0.0,0.0,0.0,0.0,0.0,0.0,0.0,0.0,0.0,-6.0329,-6.0202,-6.0171,-6.0234,-6.0364,-6.0485,-6.0547,-6.0547,-6.0058,-5.9438,-5.8591,-5.7694,-5.6914,0.0,0.0,-5.6644,-5.5886,-5.634,-5.5989,-5.5179,-5.5343,-5.5396,-5.5396,-5.5428,-5.5393,-5.5292,-5.4704,-5.4494,-5.4529,-5.4632,-5.4635,-5.4606,-5.4282,-5.4151,-5.4053,-5.3821,-5.372,-5.389,-5.4635,-5.4262,-5.389,-5.46,-5.4668,-5.4431,-5.3788,-5.416,-5.4397,-5.3788,-5.3619,-5.3517,-5.3518,-5.3551,-5.3416,-5.3041,-5.311,-5.3041,-5.2587,-5.2589,-5.2589,-5.248,-5.2622,-5.2764,-5.2938,-5.2572,-5.237,-5.2503,-5.24,-5.2124,-5.1728,-5.0496,-5.0176,-5.0845,-5.012,-4.9619,-4.95,-4.983,-4.9889,-4.9708,-4.9889,-5.0063,-3.935,-4.0517,-4.1639,-4.2654,-4.4371,-4.59,-4.6453,-4.7168,-4.7727,0.0,0.0,0.0,0.0,0.0,0.0,0.0,0.0,0.0,0.0,0.0,0.0,0.0,0.0,0.0,0.0,0.0,0.0,0.0,0.0,0.0,0.0,0.0,-6.0333,-6.0107,-6.0107,-6.0139,-6.0234,-6.0427,-6.0552,-6.0609,-5.9856,-5.9076,-5.8208,-5.7458,-5.668,-5.5978,0.0,-5.6586,-5.5828,-5.6369,-5.6234,-5.5711,-5.575,-5.5697,-5.5563,-5.515,-5.5012,-5.4977,-5.4632,-5.4494,-5.4494,-5.4494,-5.4367,-5.4207,-5.4143,-5.398,-5.3816,-5.3651,-5.3551,-5.3687,-5.4397,-5.4059,-5.3687,-5.4397,-5.46,-5.4397,-5.3653,-5.4093,-5.4363,-5.3653,-5.3518,-5.3518,-5.3518,-5.3518,-5.3416,-5.3246,-5.3212,-5.3076,-5.2727,-5.2624,-5.2553,-5.2483,-5.2553,-5.2562,-5.247,-5.2236,-5.1831,-5.115,-5.1212,-5.097,-5.0252,-4.9664,-4.9491,-4.9865,-4.9706,-4.9471,-4.9229,-4.9654,-4.9737,-4.959,-4.9772,-4.9918,-3.8792,-3.967,-4.0671,-4.2535,-4.4613,-4.6422,-4.7216,-4.7949,-4.8705,0.0,0.0,0.0,0.0,0.0,0.0,0.0,0.0,0.0,0.0,0.0,0.0,0.0,0.0,0.0,0.0,0.0,0.0,0.0,0.0,0.0,0.0,0.0,-6.0234,-6.0107,-6.0107,-6.0139,-6.0171,-6.0301,-6.029,-6.0238,-5.9512,-5.8703,-5.7776,-5.7117,-5.6445,-5.5857,-5.6487,-5.6458,-5.5994,-5.6505,-5.6475,-5.6171,-5.6223,-5.5998,-5.5529,-5.4977,-5.4667,-5.4494,-5.4494,-5.4494,-5.4494,-5.4494,-5.4303,-5.411,-5.4175,-5.4045,-5.3816,-5.3717,-5.3617,-5.3653,-5.4194,-5.3923,-5.3653,-5.4194,-5.4329,-5.4194,-5.3619,-5.3923,-5.416,-5.3619,-5.3518,-5.3518,-5.3518,-5.3518,-5.345,-5.3416,-5.3314,-5.311,-5.2938,-5.2729,-5.2589,-5.2589,-5.242,-5.2094,-5.1564,-5.1563,-5.109,-4.9869,-4.9958,-4.9749,-4.908,-4.9107,-4.9107,-4.9046,-4.929,-4.929,-4.9018,-4.9441,-4.956,-4.9411,-4.959,-4.9669,-3.872,-3.9817,-4.118,-4.3366,-4.3894,-4.4319,-4.6217,-4.7296,-4.8251,-4.9677,0.0,0.0,0.0,0.0,0.0,0.0,0.0,0.0,0.0,0.0,0.0,0.0,0.0,0.0,0.0,0.0,0.0,0.0,0.0,0.0,0.0,0.0,0.0,-6.0107,-6.0107,-6.0202,-6.0396,-6.0202,-5.9787,-5.912,-5.8733,-5.8071,-5.714,-5.6361,-5.6028,-5.6141,-5.5921,-5.6165,-5.6799,-5.687,-5.6661,-5.6427,-5.6972,-5.6544,-5.5566,-5.5563,-5.5115,-5.4494,-5.4494,-5.4494,-5.4494,-5.4494,-5.4463,-5.4431,-5.4271,-5.4207,-5.411,-5.3783,-5.3684,-5.3651,-5.3585,-5.3551,-5.3518,-5.3585,-5.3585,-5.3551,-5.3518,-5.3551,-5.3551,-5.3518,-5.3518,-5.3518,-5.3518,-5.3518,-5.3416,-5.3247,-5.3213,-5.311,-5.2938,-5.2729,-5.2589,-5.2589,-5.1885,-5.0956,-4.989,-4.9952,-4.9712,-4.8935,-4.9024,-4.9114,-4.9168,-4.9077,-4.9046,-4.9199,-4.9199,-4.9138,-4.9018,-4.935,-4.9411,-4.9229,-4.9411,-4.9247,-3.8091,-3.9078,-4.0177,-4.2388,-4.3727,-4.5028,-4.7168,-4.8951,-5.0268,-5.0662,-5.1337,0.0,0.0,0.0,0.0,0.0,0.0,0.0,0.0,0.0,0.0,0.0,0.0,0.0,0.0,0.0,0.0,0.0,0.0,0.0,0.0,0.0,0.0,-6.0107,-6.0107,-6.0139,-6.0202,-5.9682,-5.9299,-5.8983,-5.8451,-5.77,-5.6805,-5.6699,-5.6615,-5.6657,-5.697,-5.7046,-5.694,-5.7309,-5.6961,-5.6203,-5.6232,-5.5971,-5.5563,-5.5115,-5.4736,-5.4494,-5.4494,-5.4399,-5.4335,-5.4463,-5.4271,-5.4045,-5.4175,-5.4078,-5.3882,-5.375,-5.3717,-5.3684,-5.3517,-5.3518,-5.3518,-5.3518,-5.3518,-5.3518,-5.3518,-5.3518,-5.3518,-5.3518,-5.3518,-5.3518,-5.3518,-5.3518,-5.345,-5.3382,-5.2943,-5.2741,-5.3043,-5.2604,-5.2199,-5.1924,-5.079,-4.9926,-4.9623,-4.9251,-4.8978,-4.8803,-4.8925,-4.8987,-4.8956,-4.8987,-4.9046,-4.9199,-4.9199,-4.9168,-4.9107,-4.926,-4.926,-4.9199,-4.8967,-4.8739,-3.7843,-3.8782,-4.0,-4.2346,-4.4175,-4.5883,-4.776,-4.988,-5.1592,-5.1891,-5.2677,-5.3535,0.0,0.0,0.0,0.0,0.0,0.0,0.0,0.0,0.0,0.0,0.0,0.0,0.0,0.0,0.0,0.0,0.0,0.0,0.0,0.0,0.0,0.0,-6.0107,-6.0107,-6.0107,-5.9615,-5.9089,-5.8632,-5.8163,-5.749,-5.6686,-5.6646,-5.6634,-5.6552,-5.7022,-5.7062,-5.6846,-5.7253,-5.6904,-5.6074,-5.5548,-5.532,-5.5219,-5.4701,-5.4494,-5.4463,-5.4431,-5.4303,-5.4239,-5.4367,-5.4175,-5.3915,-5.4207,-5.411,-5.3849,-5.3816,-5.375,-5.3684,-5.3517,-5.3518,-5.3518,-5.3518,-5.3518,-5.3518,-5.3518,-5.3518,-5.3518,-5.3518,-5.3518,-5.3518,-5.3518,-5.3518,-5.3416,-5.3179,-5.2875,-5.274,-5.2876,-5.2404,-5.1698,-5.0893,-4.9893,-4.9292,-4.9254,-4.8753,-4.8483,-4.8707,-4.8863,-4.8894,-4.8801,-4.8925,-4.9015,-4.9138,-4.9138,-4.9138,-4.9138,-4.9138,-4.9036,-4.8799,-4.8409,-4.8109,-3.799,-3.9262,-4.1047,-4.3639,0.0,0.0,-4.7657,-4.9679,-5.1757,-5.3281,-5.4585,-5.5413,-5.5229,0.0,0.0,0.0,0.0,0.0,0.0,0.0,0.0,0.0,0.0,0.0,0.0,0.0,0.0,0.0,0.0,0.0,0.0,0.0,0.0,0.0,-6.0107,-6.0107,-6.0107,-6.0072,-5.9334,-5.7825,-5.779,-5.7459,-5.6835,-5.6059,-5.5713,-5.5713,-5.5566,-5.5929,-5.6596,-5.6596,-5.6449,-5.6105,-5.5154,-5.4686,-5.4494,-5.4494,-5.4494,-5.4463,-5.4271,-5.4207,-5.4207,-5.4207,-5.4207,-5.4239,-5.4431,-5.4367,-5.4175,-5.4045,-5.3849,-5.3684,-5.3517,-5.3518,-5.3518,-5.3518,-5.3518,-5.3518,-5.3518,-5.3518,-5.3518,-5.3518,-5.3518,-5.3518,-5.3518,-5.3484,-5.3213,-5.2435,-5.2976,-5.3179,-5.2401,-5.2001,-5.1128,-4.9493,-4.9293,-4.9091,-4.855,-4.8324,-4.8292,-4.8483,-4.8707,-4.8801,-4.8801,-4.8925,-4.9018,-4.9018,-4.9018,-4.9018,-4.9018,-4.9018,-4.8612,-4.7906,-4.7872,-4.7238,-3.9067,-4.0268,0.0,-4.3929,0.0,0.0,0.0,-5.0303,0.0,0.0,-5.3788,-5.4345,0.0,0.0,0.0,0.0,0.0,0.0,0.0,0.0,0.0,0.0,0.0,0.0,0.0,0.0,0.0,0.0,0.0,0.0,0.0,0.0,0.0,0.0,-6.0107,-6.0107,-6.0107,-5.958,-5.9089,-5.8632,-5.7509,-5.6591,-5.5918,-5.6199,-5.6304,-5.634,-5.6877,-5.6912,-5.6561,-5.5793,-5.5745,-5.6074,-5.4994,-5.4526,-5.4494,-5.4494,-5.4494,-5.4494,-5.4431,-5.4335,-5.4239,-5.4367,-5.4175,-5.3882,-5.4078,-5.3915,-5.3685,-5.3651,-5.3584,-5.3551,-5.3484,-5.3518,-5.3518,-5.3518,-5.3518,-5.3518,-5.3518,-5.3518,-5.3518,-5.3518,-5.3382,-5.3348,-5.3484,-5.2943,-5.2471,-5.2301,-5.2063,-5.1826,-5.1589,-5.0921,-5.0288,-4.9753,-4.912,-4.8718,-4.8707,-4.8388,-4.8324,-4.8707,-4.861,-4.8675,-4.8769,-4.8925,-4.9015,-4.9138,-4.9046,-4.908,-4.9138,-4.908,-4.8612,-4.7872,-4.745,-4.6844,-4.002,-4.1443,0.0,-4.4719,-4.6707,-4.8636,-5.0246,0.0,0.0,0.0,0.0,0.0,0.0,0.0,0.0,0.0,0.0,0.0,0.0,0.0,0.0,0.0,0.0,0.0,0.0,0.0,0.0,0.0,0.0,0.0,0.0,0.0,0.0,0.0,-5.9826,-5.9791,-6.0107,-5.9053,-5.8527,-5.8527,-5.7228,-5.621,-5.5543,-5.5964,-5.6174,-5.6174,-5.6701,-5.6631,-5.6109,-5.5318,-5.527,-5.5622,-5.4828,-5.4494,-5.4494,-5.4494,-5.4494,-5.4463,-5.4399,-5.4303,-5.4207,-5.4271,-5.4078,-5.3849,-5.4045,-5.3882,-5.3685,-5.3685,-5.3651,-5.3584,-5.3484,-5.3518,-5.3518,-5.3518,-5.3518,-5.3518,-5.3518,-5.3416,-5.3382,-5.345,-5.328,-5.3144,-5.3348,-5.2573,-5.19,-5.1697,-5.1089,-5.0649,-5.0584,-5.0214,-4.9875,-4.9476,-4.8976,-4.8675,-4.8769,-4.8483,-4.8452,-4.8769,-4.8707,-4.8707,-4.8863,-4.8956,-4.9015,-4.9107,-4.9018,-4.8987,-4.9107,-4.8987,-4.8585,-4.7872,-4.7518,-4.6918,-4.0689,-4.2516,0.0,-4.5735,-4.7159,0.0,-5.1018,-5.2624,0.0,0.0,0.0,0.0,0.0,0.0,0.0,0.0,0.0,0.0,0.0,0.0,0.0,0.0,0.0,0.0,0.0,0.0,0.0,0.0,0.0,0.0,0.0,0.0,0.0,0.0,-5.9405,-5.9405,-6.0001,-5.8597,-5.786,0.0,-5.6947,-5.621,-5.5507,-5.5507,-5.5507,-5.5507,-5.5507,-5.5507,-5.5478,-5.5144,-5.4992,-5.4961,-5.462,-5.4494,-5.4494,-5.4494,-5.4494,-5.4463,-5.4303,-5.4239,-5.4207,-5.4078,-5.4013,-5.4013,-5.4143,-5.4078,-5.3948,-5.398,-5.3816,-5.3651,-5.3517,-5.3518,-5.3518,-5.3518,-5.3518,-5.3518,-5.3518,-5.3348,-5.3247,-5.3416,-5.3144,-5.2938,-5.3144,-5.2336,-5.143,-5.0727,-5.0121,-4.9749,-4.9621,-4.9811,-4.9666,-4.8837,-4.8769,-4.8769,-4.8769,-4.861,-4.8612,-4.8769,-4.8801,-4.8863,-4.8984,-4.9018,-4.9018,-4.9018,-4.8827,-4.8762,-4.8917,-4.8695,-4.829,-4.7703,-4.777,-4.7204,-4.0066,-4.2343,0.0,0.0,-4.7671,-4.9892,-5.0091,0.0,0.0,0.0,0.0,0.0,0.0,0.0,0.0,0.0,0.0,0.0,0.0,0.0,0.0,0.0,0.0,0.0,0.0,0.0,0.0,0.0,0.0,0.0,0.0,0.0,0.0,-5.9264,-5.965,-5.965,-5.9229,-5.8913,-5.8105,0.0,-5.6666,-5.621,-5.5507,-5.5507,-5.5507,-5.5507,-5.5507,-5.5507,-5.5478,-5.5144,-5.4992,-5.4961,-5.462,-5.4494,-5.4494,-5.4494,-5.4494,-5.4494,-5.4431,-5.4431,-5.4399,-5.4207,-5.4078,-5.4013,-5.4045,-5.385,-5.3618,-5.3717,-5.3651,-5.3517,-5.3518,-5.3518,-5.3518,-5.3518,-5.3518,-5.3518,-5.3518,-5.3348,-5.3213,-5.328,-5.2938,-5.2729,-5.2938,-5.1696,-5.0493,-4.9924,-4.9381,-4.9144,-4.9554,-4.9312,-4.8938,-4.8612,-4.8707,-4.8738,-4.8578,-4.8675,-4.8738,-4.8801,-4.8801,-4.8863,-4.8984,-4.9018,-4.9018,-4.9018,-4.8382,-4.8112,-4.8142,-4.7534,-4.6857,-4.621,-4.6786,-4.6636,-4.078,0.0,0.0,-4.6561,0.0,0.0,0.0,0.0,0.0,0.0,0.0,0.0,0.0,0.0,0.0,0.0,0.0,0.0,0.0,0.0,0.0,0.0,0.0,0.0,0.0,0.0,0.0,0.0,0.0,0.0,0.0,-5.8948,-5.9405,-5.9018,-5.9369,-5.9405,-5.9018,-5.8246,-5.7438,-5.6596,-5.6245,-5.5894,-5.5507,-5.5507,-5.5507,-5.5507,-5.5507,-5.5448,-5.5324,-5.5113,-5.4961,-5.4904,-5.4623,-5.4494,-5.4494,-5.4494,-5.4494,-5.4494,-5.4494,-5.419,-5.3854,-5.4038,-5.3741,-5.3406,-5.3747,-5.3717,-5.3618,-5.3684,-5.3651,-5.3584,-5.3551,-5.3518,-5.3484,-5.3382,-5.3416,-5.345,-5.3382,-5.3212,-5.3041,-5.3041,-5.2764,-5.2454,-5.2262,-5.0892,-4.956,-4.8927,-4.8655,-4.8619,-4.889,-4.8783,-4.8644,-4.8515,-4.8578,-4.8675,-4.8644,-4.8738,-4.8832,-4.8894,-4.8894,-4.8925,-4.9018,-4.868,-4.8477,-4.8477,-4.8385,-4.8014,-4.7394,-4.7237,-4.6832,-4.6244,-4.6989,-4.7039,-4.135,0.0,-4.5236,-4.8041,-4.9158,0.0,0.0,0.0,0.0,0.0,0.0,0.0,0.0,0.0,0.0,0.0,0.0,0.0,0.0,0.0,0.0,0.0,0.0,0.0,0.0,0.0,0.0,0.0,0.0,0.0,-5.7579,-5.8351,-5.8878,-5.9018,-5.9018,-5.8917,-5.8745,-5.7443,-5.6666,-5.6355,-5.5759,-5.5507,-5.5507,-5.5507,-5.5507,-5.5507,-5.5507,-5.5383,-5.5199,-5.5083,-5.49,-5.478,-5.4592,-5.4494,-5.4494,-5.4494,-5.4494,-5.4529,-5.4463,-5.3954,-5.335,-5.3808,-5.344,-5.2869,-5.3513,-5.3684,-5.3684,-5.3684,-5.3684,-5.3617,-5.3517,-5.345,-5.3416,-5.3213,-5.3314,-5.3348,-5.3179,-5.3007,-5.287,-5.2701,-5.2322,-5.1848,-5.1223,-4.9991,-4.8862,-4.81,-4.8098,-4.8195,-4.8163,-4.8324,-4.8452,-4.842,-4.842,-4.8515,-4.8675,-4.8738,-4.8832,-4.8956,-4.8987,-4.8951,-4.8815,-4.821,-4.7804,-4.7673,-4.8189,-4.7848,-4.6616,-4.7177,-4.7177,-4.6616,-4.7496,-4.7713,0.0,0.0,-4.4776,0.0,0.0,0.0,0.0,0.0,0.0,0.0,0.0,0.0,0.0,0.0,0.0,0.0,0.0,0.0,0.0,0.0,0.0,0.0,0.0,0.0,0.0,0.0,0.0,0.0,0.0,0.0,-5.6771,-5.7509,-5.8281,-5.8983,-5.9018,-5.8605,-5.7782,-5.7693,-5.6886,-5.5369,-5.5483,-5.5507,-5.5507,-5.5507,-5.5507,-5.5507,-5.5507,-5.5383,-5.5199,-5.5083,-5.49,-5.478,-5.4592,-5.4494,-5.4494,-5.4494,-5.4494,-5.4463,-5.4303,-5.4171,-5.4038,-5.3815,-5.3649,-5.3581,-5.3683,-5.3617,-5.3551,-5.3684,-5.3618,-5.3517,-5.3518,-5.3382,-5.3213,-5.3213,-5.3076,-5.2972,-5.2938,-5.2903,-5.2633,-5.186,-5.1054,-5.0253,-4.9558,-4.9226,-4.8862,-4.81,-4.8098,-4.8163,-4.8033,-4.813,-4.8195,-4.8099,-4.8163,-4.826,-4.826,-4.8612,-4.8801,-4.8832,-4.8956,-4.8714,-4.8041,-4.7939,-4.7507,-4.6713,-4.6933,-4.6655,-4.5838,-4.6553,-4.6519,-4.5872,-4.7229,-4.7924,-4.1292,0.0,0.0,0.0,0.0,0.0,0.0,0.0,0.0,0.0,0.0,0.0,0.0,0.0,0.0,0.0,0.0,0.0,0.0,0.0,0.0,0.0,0.0,0.0,0.0,0.0,0.0,0.0,0.0,-5.5999,-5.5999,-5.6701,-5.7267,-5.7526,-5.7981,-5.781,-5.6947,-5.7005,-5.6475,-5.5354,-5.5478,-5.5507,-5.5507,-5.5507,-5.5507,-5.5507,-5.5507,-5.5324,-5.5079,-5.5022,-5.4838,-5.4623,-5.4526,-5.4494,-5.4463,-5.4367,-5.4335,-5.4303,-5.4143,-5.3739,-5.3369,-5.3614,-5.3345,-5.2974,-5.3449,-5.3551,-5.3484,-5.3584,-5.3551,-5.345,-5.3348,-5.328,-5.3144,-5.2903,-5.2868,-5.2733,-5.2159,-5.2059,-5.186,-5.0955,-5.0122,-4.9525,-4.9261,-4.8829,-4.8398,-4.8164,-4.8131,-4.8066,-4.8001,-4.8066,-4.8066,-4.8001,-4.8066,-4.8098,-4.8195,-4.8452,-4.8675,-4.8769,-4.8459,-4.8149,-4.7906,-4.7315,-4.6821,-4.6514,-4.6978,-4.6874,-4.6132,-4.6874,-4.6933,-4.6346,-4.7428,-4.8022,0.0,0.0,0.0,0.0,0.0,0.0,0.0,0.0,0.0,0.0,0.0,0.0,0.0,0.0,0.0,0.0,0.0,0.0,0.0,0.0,0.0,0.0,0.0,0.0,0.0,0.0,0.0,0.0,0.0,-5.5489,-5.5669,-5.6019,-5.6339,-5.6667,-5.7087,-5.7017,-5.6388,-5.6178,-5.5884,-5.5507,-5.5507,-5.5507,-5.5507,-5.5507,-5.5478,-5.5413,-5.5413,-5.5264,-5.4992,-5.4961,-5.4776,-5.4494,-5.4431,-5.4431,-5.4463,-5.4033,-5.4004,-5.4141,-5.3775,-5.3305,-5.2936,-5.3481,-5.3178,-5.2706,-5.3315,-5.3518,-5.345,-5.3247,-5.3213,-5.3146,-5.2977,-5.2875,-5.2773,-5.2427,-5.2427,-5.226,-5.1519,-5.1121,-5.0689,-5.0021,-4.9326,-4.8829,-4.8928,-4.8431,-4.8033,-4.813,-4.8066,-4.8001,-4.8001,-4.8001,-4.8001,-4.8001,-4.8033,-4.8098,-4.826,-4.8452,-4.8642,-4.8832,-4.8324,-4.7882,-4.7541,-4.6959,-4.6566,-4.6394,-4.7164,-4.7194,-4.6514,-4.7457,-4.7619,-4.709,-4.7834,-4.8388,0.0,0.0,0.0,0.0,0.0,0.0,0.0,0.0,0.0,0.0,0.0,0.0,0.0,0.0,0.0,0.0,0.0,0.0,0.0,0.0,0.0,0.0,0.0,0.0,0.0,0.0,0.0,0.0,0.0,-5.5488,-5.6133,-5.5475,-5.5815,-5.7471,-5.6842,-5.6423,-5.6388,-5.5619,-5.5359,-5.5507,-5.5507,-5.5507,-5.5507,-5.5507,-5.5383,-5.5229,-5.5229,-5.5109,-5.4992,-5.4873,-5.4686,-5.4463,-5.4303,-5.4335,-5.4362,-5.3355,-5.3462,-5.4072,-5.3031,-5.3105,-5.3616,-5.3551,-5.3484,-5.345,-5.3484,-5.3518,-5.3348,-5.257,-5.2367,-5.2334,-5.2169,-5.2001,-5.1798,-5.1626,-5.1453,-5.1418,-5.1456,-5.0323,-4.9193,-4.916,-4.8564,-4.8067,-4.8067,-4.8034,-4.8001,-4.8001,-4.8001,-4.8001,-4.8001,-4.8001,-4.8001,-4.8001,-4.8098,-4.826,-4.8483,-4.8675,-4.8832,-4.8987,-4.892,-4.8216,-4.6615,-4.7191,-4.7038,-4.606,-4.6948,-4.7136,-4.6514,-4.7995,-4.8425,-4.7838,-4.8612,-4.9135,0.0,0.0,0.0,0.0,0.0,0.0,0.0,0.0,0.0,0.0,0.0,0.0,0.0,0.0,0.0,0.0,0.0,0.0,0.0,0.0,0.0,0.0,0.0,0.0,0.0,0.0,0.0,0.0,0.0,0.0,-5.4709,-5.4887,-5.527,-5.5765,-5.561,-5.5528,-5.5619,-5.5464,-5.5354,-5.5324,-5.5448,-5.5448,-5.5324,-5.5324,-5.5234,-5.5048,-5.4869,-5.4807,-5.4873,-5.4811,-5.4623,-5.4303,-5.4239,-5.3898,-5.3423,-5.2893,-5.2929,-5.3099,-5.2599,-5.2941,-5.3551,-5.3551,-5.3518,-5.3382,-5.2775,-5.2673,-5.2537,-5.1529,-5.136,-5.1394,-5.1095,-5.0961,-5.0859,-5.0722,-5.0254,-4.9923,-4.9957,-4.9492,-4.8961,-4.8498,-4.8166,-4.8066,-4.826,-4.8164,-4.8066,-4.8292,-4.8164,-4.8001,-4.8001,-4.8001,-4.8001,-4.8001,-4.8033,-4.8099,-4.8196,-4.842,-4.861,-4.8673,-4.836,-4.7855,-4.7224,-4.7275,-4.7185,-4.6917,-4.7556,-4.7853,-4.7773,-4.8469,-4.8728,-4.8612,-4.8883,-4.887,-4.3632,0.0,0.0,0.0,0.0,0.0,0.0,0.0,0.0,0.0,0.0,0.0,0.0,0.0,0.0,0.0,0.0,0.0,0.0,0.0,0.0,0.0,0.0,0.0,0.0,0.0,0.0,0.0,0.0,0.0,-5.3783,-5.4209,-5.4595,-5.4873,-5.5053,-5.5204,-5.5324,-5.5448,-5.5383,-5.5199,-5.5354,-5.5324,-5.5199,-5.5079,-5.4987,-5.49,-5.4557,-5.4494,-5.4686,-5.4592,-5.4399,-5.4173,-5.3804,-5.3329,-5.2787,-5.2051,-5.2123,-5.2563,-5.2094,-5.2435,-5.3112,-5.3045,-5.2876,-5.2538,-5.1932,-5.1764,-5.1595,-5.0691,-5.0456,-5.0456,-5.0126,-5.0026,-5.0026,-4.9857,-4.9293,-4.8796,-4.873,-4.873,-4.8597,-4.81,-4.8001,-4.8066,-4.8292,-4.8164,-4.8099,-4.8292,-4.8164,-4.8001,-4.8001,-4.8001,-4.8001,-4.8001,-4.8033,-4.8066,-4.8066,-4.8421,-4.8578,-4.8578,-4.8267,-4.7928,-4.7567,-4.7584,-4.7554,-4.7318,-4.802,-4.8452,-4.8578,-4.8738,-4.8863,-4.8984,-4.8748,-4.8196,0.0,0.0,0.0,0.0,0.0,0.0,0.0,0.0,0.0,0.0,0.0,0.0,0.0,0.0,0.0,0.0,0.0,0.0,0.0,0.0,0.0,0.0,0.0,0.0,0.0,0.0,0.0,0.0,0.0,-5.277,-5.3532,-5.3483,-5.3925,-5.4957,-5.5329,-5.5478,-5.5478,-5.5478,-5.5383,-5.5199,-5.5199,-5.5199,-5.5169,-5.4865,-5.4679,-5.4679,-5.4333,-5.4301,-5.4431,-5.411,-5.4078,-5.4072,-5.2999,-5.2692,-5.2616,-5.0769,-5.1144,-5.2428,-5.152,-5.1691,-5.2267,-5.2168,-5.1596,-5.1024,-5.0991,-5.0859,-5.0558,-5.0018,-4.9718,-4.949,-4.9293,-4.926,-4.9227,-4.9094,-4.8597,-4.8163,-4.8033,-4.8001,-4.8001,-4.8001,-4.8001,-4.8001,-4.8001,-4.8001,-4.8001,-4.8001,-4.8001,-4.8001,-4.8001,-4.8001,-4.8001,-4.8001,-4.8131,-4.8195,-4.8195,-4.858,-4.8769,-4.8769,-4.8801,-4.8404,-4.7479,-4.8115,-4.8085,-4.726,-4.8277,-4.8801,-4.8769,-4.8801,-4.8863,-4.8951,-4.8176,-4.7115,-4.4399,0.0,0.0,0.0,0.0,0.0,0.0,0.0,0.0,0.0,0.0,0.0,0.0,0.0,0.0,0.0,0.0,0.0,0.0,0.0,0.0,0.0,0.0,0.0,0.0,0.0,0.0,0.0,-5.1232,-5.1795,-5.2555,-5.3598,-5.4382,-5.4842,-5.4934,-5.5057,-5.5144,-5.5144,-5.5053,-5.49,-5.5022,-5.4992,-5.4869,-5.4652,-5.4494,-5.4333,-5.3979,-5.3848,-5.3915,-5.398,-5.364,-5.2999,-5.2599,-5.1788,-5.0803,-5.0175,-5.0647,-5.1553,-5.1285,-5.1691,-5.2267,-5.2168,-5.1662,-5.1055,-5.0693,-5.0358,-5.002,-4.9459,-4.896,-4.8527,-4.8397,-4.8365,-4.8365,-4.8299,-4.8199,-4.8066,-4.8001,-4.8001,-4.8001,-4.8001,-4.8001,-4.8001,-4.8001,-4.7902,-4.7803,-4.7968,-4.7902,-4.7869,-4.7968,-4.8001,-4.8001,-4.8001,-4.8033,-4.8065,-4.8195,-4.842,-4.8578,-4.8578,-4.8707,-4.8606,-4.8214,-4.8383,-4.8383,-4.8152,-4.8574,-4.8738,-4.8578,-4.8738,-4.8593,-4.8142,-4.6921,-4.6133,0.0,0.0,0.0,0.0,0.0,0.0,-4.2112,-4.2427,0.0,0.0,0.0,0.0,0.0,0.0,0.0,0.0,0.0,0.0,0.0,0.0,0.0,0.0,0.0,0.0,0.0,0.0,0.0,-5.012,-5.0448,-5.0976,-5.1671,-5.3341,-5.4264,-5.4295,-5.4668,-5.4761,-5.457,-5.4852,-5.4618,-5.3844,-5.4591,-5.4495,-5.3718,-5.3814,-5.3587,-5.3149,-5.2798,-5.2634,-5.2634,-5.2734,-5.2699,-5.2529,-5.1592,-5.0782,-5.0067,-4.9607,-5.0178,-5.1151,-5.0782,-5.1154,-5.1661,-5.1161,-5.0524,-4.9886,-4.9559,-4.9325,-4.9024,-4.8795,-4.8431,-4.8131,-4.8033,-4.8033,-4.8066,-4.8001,-4.8033,-4.8066,-4.8001,-4.8001,-4.8001,-4.8001,-4.8001,-4.7968,-4.7902,-4.777,-4.7737,-4.7869,-4.777,-4.777,-4.7968,-4.8001,-4.8001,-4.8001,-4.8001,-4.8033,-4.8098,-4.826,-4.842,-4.8483,-4.861,-4.861,-4.8515,-4.8578,-4.8547,-4.8388,-4.8547,-4.8483,-4.8163,-4.8612,-4.8231,-4.7127,-4.6253,-4.5543,0.0,0.0,0.0,0.0,0.0,0.0,-4.1871,-4.1911,-4.2324,0.0,0.0,0.0,0.0,0.0,0.0,0.0,0.0,0.0,0.0,0.0,0.0,0.0,0.0,0.0,0.0,-5.0181,-5.0159,-5.0011,-5.008,-5.0424,-5.108,-5.2835,-5.3788,-5.3571,-5.4383,-5.4509,-5.3848,-5.4405,-5.3931,-5.2463,-5.3848,-5.3687,-5.2188,-5.2569,-5.2375,-5.166,-5.1346,-5.1185,-5.1153,-5.0955,-5.1424,-5.2092,-5.0288,-4.9749,-4.9866,-4.9068,-4.974,-5.095,-5.018,-5.0318,-5.069,-4.9692,-4.8893,-4.8227,-4.8295,-4.8164,-4.8033,-4.813,-4.8099,-4.8001,-4.8001,-4.8099,-4.813,-4.8033,-4.8099,-4.813,-4.8033,-4.8001,-4.8001,-4.7968,-4.7968,-4.7935,-4.7704,-4.7671,-4.7671,-4.7638,-4.7671,-4.7737,-4.7935,-4.8001,-4.8001,-4.8001,-4.8001,-4.8001,-4.8033,-4.813,-4.8292,-4.8483,-4.8515,-4.8515,-4.8515,-4.8644,-4.8549,-4.8195,-4.8324,-4.8129,-4.7572,-4.8288,-4.7742,-4.6062,-4.5929,-4.513,0.0,0.0,0.0,0.0,0.0,0.0,-4.2423,-4.1985,-4.2004,0.0,0.0,0.0,0.0,0.0,0.0,0.0,0.0,0.0,0.0,0.0,0.0,0.0,0.0,0.0,0.0,-4.9186,-4.9378,-4.9976,-5.0562,-5.0976,-5.1114,-5.2624,-5.3483,-5.3452,-5.3621,-5.3621,-5.3483,-5.3,-5.2555,-5.2248,-5.2437,-5.2375,-5.2035,-5.1865,-5.1673,-5.1505,-5.1185,-5.1056,-5.0956,-5.0188,-5.0086,-5.0349,-4.969,-4.9286,-4.9034,-4.8677,-4.9246,-5.0114,-4.9947,-4.9884,-4.9822,-4.9492,-4.899,-4.8488,-4.8829,-4.8563,-4.813,-4.8066,-4.8033,-4.8001,-4.8001,-4.8033,-4.8033,-4.8001,-4.8033,-4.8033,-4.8001,-4.8001,-4.7968,-4.777,-4.7902,-4.7902,-4.7604,-4.7537,-4.747,-4.7302,-4.7436,-4.7604,-4.7737,-4.7902,-4.8001,-4.8001,-4.8001,-4.8033,-4.813,-4.8195,-4.8292,-4.8483,-4.8515,-4.8515,-4.8515,-4.8388,-4.8227,-4.8033,-4.7803,-4.7408,-4.6815,-4.7233,-4.6864,-4.5846,-4.5369,-4.4723,0.0,0.0,0.0,-4.5461,0.0,0.0,0.0,-4.2737,-4.2565,0.0,0.0,0.0,0.0,0.0,0.0,0.0,0.0,0.0,0.0,0.0,0.0,0.0,0.0,0.0,0.0,-4.8418,-4.8702,-4.9355,-4.974,-5.0119,-5.0528,-5.1632,-5.2252,-5.2252,-5.3011,-5.3046,-5.2252,-5.2632,-5.2157,-5.0961,-5.1661,-5.1504,-5.0632,-5.0853,-5.0663,-5.0135,-4.9976,-4.9848,-4.9718,-4.9122,-4.8956,-4.902,-4.8859,-4.8818,-4.8863,-4.8483,-4.9048,-4.9909,-4.9283,-4.9287,-4.9556,-4.9327,-4.8795,-4.8361,-4.8928,-4.863,-4.8099,-4.8033,-4.8001,-4.8001,-4.8001,-4.8001,-4.8001,-4.8001,-4.8001,-4.8001,-4.8001,-4.8001,-4.7935,-4.7737,-4.777,-4.7737,-4.7403,-4.7369,-4.7335,-4.7233,-4.7369,-4.7537,-4.7671,-4.7902,-4.8001,-4.8001,-4.8001,-4.8066,-4.8195,-4.8195,-4.8292,-4.8483,-4.8578,-4.8549,-4.826,-4.8324,-4.8163,-4.7704,-4.7471,-4.7139,-4.6747,-4.7013,-4.6717,-4.5961,-4.5458,-4.5052,0.0,0.0,0.0,0.0,0.0,-4.4204,0.0,0.0,0.0,0.0,0.0,0.0,0.0,0.0,0.0,0.0,0.0,0.0,0.0,0.0,0.0,0.0,0.0,0.0,0.0,-4.7365,-4.7808,-4.8355,-4.8361,-4.8775,-4.9735,-5.0493,-5.0976,-5.1114,-5.2321,-5.2356,-5.1114,-5.2153,-5.1683,-4.9683,-5.0853,-5.0636,-4.9202,-4.9752,-4.9593,-4.8769,-4.8707,-4.8612,-4.842,-4.826,-4.8195,-4.8195,-4.8163,-4.842,-4.8767,-4.8356,-4.8852,-4.9607,-4.8556,-4.8659,-4.9192,-4.8962,-4.8498,-4.81,-4.8663,-4.8431,-4.8001,-4.7968,-4.7968,-4.8001,-4.8001,-4.8001,-4.8001,-4.8001,-4.8001,-4.8001,-4.8001,-4.8001,-4.7935,-4.7704,-4.7638,-4.7538,-4.7235,-4.7201,-4.7199,-4.7132,-4.7369,-4.7537,-4.7638,-4.7869,-4.8001,-4.8001,-4.8033,-4.8099,-4.8195,-4.8195,-4.826,-4.842,-4.858,-4.8421,-4.7968,-4.813,-4.7868,-4.7107,-4.7135,-4.6999,-4.6767,-4.7033,-4.6842,-4.6158,-4.5896,-4.5631,0.0,0.0,0.0,0.0,-4.7342,0.0,0.0,0.0,0.0,0.0,0.0,0.0,0.0,0.0,0.0,0.0,0.0,0.0,0.0,0.0,0.0,0.0,0.0,0.0,0.0,0.0,-4.6036,-4.6803,-4.6872,-4.7431,-4.8844,-4.97,-5.0424,-5.108,-5.1287,-5.1287,-5.1114,-5.0449,-4.9923,-4.95,-4.9403,-4.9215,-4.9018,-4.8805,-4.8742,-4.8769,-4.842,-4.826,-4.8227,-4.8195,-4.8195,-4.8195,-4.8066,-4.8131,-4.8292,-4.8227,-4.8294,-4.8392,-4.8261,-4.8099,-4.7935,-4.81,-4.8067,-4.7968,-4.7869,-4.7935,-4.7968,-4.777,-4.7836,-4.8001,-4.8001,-4.8001,-4.8001,-4.8001,-4.8001,-4.8001,-4.8001,-4.8001,-4.7902,-4.7571,-4.7504,-4.747,-4.7267,-4.7201,-4.7132,-4.6961,-4.7267,-4.7504,-4.7504,-4.7803,-4.8001,-4.8001,-4.8131,-4.8195,-4.8195,-4.8195,-4.8195,-4.8227,-4.8164,-4.8001,-4.7737,-4.7471,-4.6941,-4.5988,-4.6603,-4.6671,-4.6189,-4.6873,-4.6909,-4.6389,-4.6323,-4.6092,0.0,0.0,0.0,0.0,0.0,0.0,0.0,0.0,-4.4289,0.0,0.0,0.0,0.0,0.0,0.0,0.0,0.0,0.0,0.0,0.0,0.0,0.0,0.0,0.0,0.0,0.0,0.0,0.0,0.0,-4.5683,-4.8017,-4.8549,-4.9303,-5.0424,-5.0907,-5.0907,-5.0459,-5.0415,-5.0095,-4.9505,-4.9229,-4.9077,-4.8984,-4.8801,-4.8675,-4.8612,-4.8324,-4.8163,-4.8065,-4.8065,-4.8065,-4.8099,-4.8033,-4.8164,-4.8356,-4.813,-4.8195,-4.8324,-4.8033,-4.7935,-4.8,-4.8001,-4.8233,-4.8365,-4.7969,-4.7935,-4.7968,-4.7902,-4.7935,-4.8001,-4.8001,-4.8001,-4.8001,-4.8001,-4.8001,-4.8001,-4.8001,-4.7902,-4.777,-4.7537,-4.7403,-4.7267,-4.7064,-4.703,-4.6996,-4.6927,-4.7235,-4.7504,-4.7504,-4.7803,-4.8001,-4.8001,-4.8066,-4.8163,-4.8356,-4.8195,-4.8131,-4.8195,-4.777,-4.7504,-4.7404,-4.7167,-4.6833,-4.6439,-4.673,-4.6765,-4.6575,-4.6867,-4.697,-4.6845,-4.6619,-4.6618,-5.2184,0.0,0.0,0.0,0.0,0.0,0.0,0.0,0.0,0.0,0.0,0.0,0.0,0.0,0.0,0.0,0.0,0.0,0.0,0.0,0.0,0.0,0.0,0.0,0.0,0.0,0.0,0.0,0.0,0.0,-4.7015,-4.7449,-4.8218,-4.9689,-5.0424,-5.0499,-4.9918,-5.0262,-5.0047,-4.935,-4.9107,-4.8954,-4.8861,-4.8707,-4.858,-4.842,-4.8227,-4.8099,-4.8001,-4.8001,-4.8001,-4.8001,-4.8001,-4.8164,-4.8324,-4.8099,-4.8164,-4.8292,-4.7836,-4.7869,-4.8033,-4.7968,-4.8233,-4.853,-4.8068,-4.7968,-4.8001,-4.7935,-4.7935,-4.7935,-4.8001,-4.7935,-4.7869,-4.7968,-4.7935,-4.7869,-4.7968,-4.7836,-4.7638,-4.7537,-4.7369,-4.7201,-4.6961,-4.6892,-4.6927,-4.6961,-4.7233,-4.7436,-4.7537,-4.777,-4.7935,-4.8001,-4.8033,-4.8131,-4.826,-4.8131,-4.8001,-4.7935,-4.7404,-4.7098,-4.7098,-4.6996,-4.6892,-4.6892,-4.6892,-4.6927,-4.6996,-4.6927,-4.703,-4.7268,-4.6979,-4.7111,0.0,0.0,0.0,-5.159,0.0,0.0,0.0,0.0,-4.4654,0.0,0.0,0.0,0.0,0.0,0.0,0.0,0.0,0.0,0.0,0.0,0.0,0.0,0.0,0.0,0.0,0.0,0.0,0.0,0.0,0.0,-4.5683,-4.6421,-4.7442,-4.8972,-4.9689,-4.9923,-4.9708,-4.9415,-4.9172,-4.9018,-4.8673,-4.8515,-4.8515,-4.8324,-4.8227,-4.8195,-4.8066,-4.8001,-4.8001,-4.8001,-4.8001,-4.8001,-4.8001,-4.8001,-4.8001,-4.8001,-4.8001,-4.8001,-4.777,-4.7704,-4.7704,-4.7704,-4.7836,-4.8001,-4.777,-4.7869,-4.7968,-4.777,-4.7704,-4.7737,-4.7968,-4.7737,-4.7604,-4.7935,-4.7737,-4.7604,-4.7935,-4.7836,-4.7638,-4.7537,-4.747,-4.7369,-4.6961,-4.6892,-4.6961,-4.7167,-4.7201,-4.7302,-4.7638,-4.7704,-4.777,-4.7968,-4.8131,-4.8065,-4.7737,-4.7902,-4.777,-4.7235,-4.703,-4.6927,-4.6927,-4.6892,-4.6892,-4.6892,-4.6892,-4.6996,-4.7167,-4.6996,-4.7098,-4.747,-4.7504,-4.7538,0.0,0.0,-5.4989,-5.3036,0.0,0.0,0.0,0.0,0.0,0.0,0.0,0.0,0.0,0.0,0.0,0.0,0.0,0.0,0.0,0.0,0.0,0.0,0.0,0.0,0.0,0.0,0.0,0.0,0.0,0.0,0.0,-4.4719,-4.6265,-4.8204,-4.8979,-4.9459,-4.9708,-4.95,-4.929,-4.9138,-4.8923,-4.8767,-4.8707,-4.8644,-4.8515,-4.8388,-4.8195,-4.813,-4.8131,-4.8033,-4.8001,-4.8001,-4.8001,-4.8001,-4.8001,-4.8001,-4.7935,-4.777,-4.7704,-4.7538,-4.7404,-4.7803,-4.7803,-4.7671,-4.7671,-4.7737,-4.777,-4.7604,-4.7605,-4.7704,-4.7671,-4.7571,-4.7537,-4.7637,-4.7571,-4.7537,-4.7637,-4.7537,-4.7336,-4.7335,-4.7301,-4.7267,-4.7098,-4.7233,-4.7301,-4.7233,-4.737,-4.7571,-4.7671,-4.7836,-4.7803,-4.7638,-4.7638,-4.7572,-4.7337,-4.7404,-4.7167,-4.6506,-4.6719,-4.6789,-4.6509,-4.6754,-4.6892,-4.6892,-4.703,-4.7064,-4.6996,-4.7064,-4.7167,-4.7301,-4.7436,-4.7571,-5.7293,-5.6989,0.0,-5.3868,-5.3208,0.0,-5.0578,0.0,0.0,0.0,0.0,0.0,0.0,0.0,0.0,0.0,0.0,0.0,0.0,-3.8651,0.0,0.0,0.0,0.0,0.0,0.0,0.0,-3.8467,-3.8635,0.0,0.0,0.0,-4.5553,-4.7488,-4.873,-4.943,-4.9619,-4.9471,-4.929,-4.9107,-4.8984,-4.8894,-4.8801,-4.8738,-4.861,-4.8483,-4.8227,-4.8163,-4.8195,-4.8066,-4.8001,-4.8001,-4.8001,-4.7968,-4.7902,-4.7902,-4.7803,-4.7671,-4.7671,-4.7538,-4.7437,-4.7869,-4.7836,-4.7704,-4.7803,-4.7737,-4.7671,-4.7604,-4.7571,-4.7504,-4.7504,-4.7403,-4.7335,-4.747,-4.7403,-4.7335,-4.747,-4.7335,-4.7201,-4.7301,-4.7301,-4.7301,-4.7301,-4.747,-4.7537,-4.7404,-4.7504,-4.7671,-4.777,-4.777,-4.7638,-4.7404,-4.727,-4.7134,-4.6963,-4.6927,-4.6684,-4.6294,-4.6684,-4.6789,-4.6509,-4.6754,-4.6892,-4.6892,-4.703,-4.703,-4.6892,-4.7098,-4.7267,-4.7335,-4.7504,-4.7671]},{"header":{"parameterUnit":"m.s-1","parameterCategory":1,"la1":30.6,"la2":29.2853,"lo1":-89.7004,"lo2":-87.6739,"dy":0.0162,"dx":0.0183,"nx":112,"ny":82,"refTime":"2024-05-06T12:00:00:Z","depth":0,"parameterNumber":3,"parameterNumberName":"V-component_of_WINDS"},"data":[0.0,0.0,0.0,0.0,0.0,0.0,0.0,0.0,0.0,0.0,0.0,0.0,0.0,0.0,0.0,0.0,0.0,0.0,0.0,0.0,0.0,0.0,0.0,0.0,0.0,0.0,0.0,0.0,0.0,0.0,0.0,0.0,0.0,0.0,0.0,0.0,0.0,0.0,0.0,0.0,0.0,0.0,0.0,0.0,0.0,0.0,0.0,0.0,0.0,0.0,0.0,0.0,0.0,0.0,0.0,0.0,0.0,0.0,0.0,0.0,0.0,0.0,0.0,0.0,0.0,0.0,0.0,0.0,0.0,0.0,0.0,0.0,0.0,0.0,0.0,0.0,0.0,0.0,0.0,0.0,0.0,0.0,0.0,0.0,0.0,0.0,0.0,0.0,0.0,0.0,0.0,1.3902,1.4618,1.5227,1.5732,1.5418,1.4782,1.39,0.0,0.0,0.0,0.0,0.0,0.0,0.0,0.0,0.0,0.0,0.0,0.0,0.0,0.0,0.0,0.0,0.0,0.0,0.0,0.0,0.0,0.0,0.0,0.0,0.0,0.0,0.0,0.0,0.0,0.0,0.0,0.0,0.0,0.0,0.0,0.0,0.0,0.0,0.0,0.0,0.0,0.0,0.0,0.0,0.0,0.0,0.0,0.0,0.0,0.0,0.0,0.0,0.0,0.0,0.0,0.0,0.0,0.0,0.0,0.0,0.0,0.0,0.0,0.0,0.0,0.0,0.0,0.0,0.0,0.0,0.0,0.0,0.0,0.0,0.0,0.0,0.0,0.0,0.0,0.0,0.0,0.0,0.0,0.0,0.0,0.0,0.0,0.0,0.0,0.0,0.0,0.0,0.0,0.0,0.0,0.0,0.0,0.0,0.0,0.0,0.0,0.0,0.0,0.0,1.4103,1.5098,1.5248,1.5391,1.5742,1.5503,1.4844,1.3646,0.0,0.0,0.0,0.0,0.0,0.0,0.0,0.0,0.0,0.0,0.0,0.0,0.0,0.0,0.0,0.0,0.0,0.0,0.0,0.0,0.0,0.0,0.0,0.0,0.0,0.0,0.0,0.0,0.0,0.0,0.0,0.0,0.0,0.0,0.0,0.0,0.0,0.0,0.0,0.0,0.0,0.0,0.0,0.0,0.0,0.0,0.0,0.0,0.0,0.0,0.0,0.0,0.0,0.0,0.0,0.0,0.0,0.0,0.0,0.0,0.0,0.0,0.0,0.0,0.0,0.0,0.0,0.0,0.0,0.0,0.0,0.0,0.0,0.0,0.0,0.0,0.0,0.0,0.0,0.0,0.0,0.0,0.0,0.0,0.0,0.0,0.0,0.0,0.0,0.0,0.0,0.0,0.0,0.0,0.0,0.0,0.0,0.0,0.0,0.0,0.0,0.0,0.0,1.409,1.5141,1.6126,1.6106,1.6066,1.6074,1.6143,1.5596,1.4158,1.3561,0.0,0.0,0.0,0.0,0.0,0.0,0.0,0.0,0.0,0.0,0.0,0.0,0.0,0.0,0.0,0.0,0.0,0.0,0.0,0.0,0.0,0.0,0.0,0.0,0.0,0.0,0.0,0.0,0.0,0.0,0.0,0.0,0.0,0.0,0.0,0.0,0.0,0.0,0.0,0.0,0.0,0.0,0.0,0.0,0.0,0.0,0.0,0.0,0.0,0.0,0.0,0.0,0.0,0.0,0.0,0.0,0.0,0.0,0.0,0.0,0.0,0.0,0.0,0.0,0.0,0.0,0.0,0.0,0.0,0.0,0.0,0.0,0.0,0.0,0.0,0.0,0.0,0.0,0.0,0.0,0.0,0.0,0.0,0.0,0.0,0.0,0.0,0.0,0.0,0.0,0.0,0.0,0.0,0.0,0.0,0.0,0.0,0.0,0.0,0.0,0.0,0.0,1.5013,1.5981,1.683,1.6801,1.6677,1.6621,1.6633,1.6072,1.4778,1.406,0.0,0.0,0.0,0.0,0.0,0.0,0.0,0.0,0.0,0.0,0.0,0.0,0.0,0.0,0.0,0.0,0.0,0.0,0.0,0.0,0.0,0.0,0.0,0.0,0.0,0.0,0.0,0.0,0.0,0.0,0.0,0.0,0.0,0.0,0.0,0.0,0.0,0.0,0.0,0.0,0.0,0.0,0.0,0.0,0.0,0.0,0.0,0.0,0.0,0.0,0.0,0.0,0.0,0.0,0.0,0.0,0.0,0.0,0.0,0.0,0.0,0.0,0.0,0.0,0.0,0.0,0.0,0.0,0.0,0.0,0.0,0.0,0.0,0.0,0.0,0.0,0.0,0.0,0.0,0.0,0.0,0.0,0.0,0.0,0.0,0.0,0.0,0.0,0.0,0.0,0.0,0.0,0.0,0.0,0.0,0.0,0.0,0.0,0.0,0.0,0.0,0.0,1.5355,1.6291,1.7074,1.6899,1.687,1.7398,1.6604,1.5725,1.5,1.3838,0.0,0.0,0.0,0.0,0.0,0.0,0.0,0.0,0.0,0.0,0.0,0.0,0.0,0.0,0.0,0.0,0.0,0.0,0.0,0.0,0.0,0.0,0.0,0.0,0.0,0.0,0.0,0.0,0.0,0.0,0.0,0.0,0.0,0.0,0.0,0.0,0.0,0.0,0.0,0.0,0.0,0.0,0.0,0.0,0.0,0.0,0.0,0.0,0.0,0.0,0.0,0.0,0.0,0.0,0.0,0.0,0.0,0.0,0.0,0.0,0.0,0.0,0.0,0.0,0.0,0.0,0.0,0.0,0.0,0.0,0.0,0.0,0.0,0.0,0.0,0.0,0.0,0.0,0.0,0.0,0.0,0.0,0.0,0.0,0.0,0.0,0.0,0.0,0.0,0.0,0.0,0.0,0.0,0.0,0.0,0.0,0.0,0.0,0.0,0.0,0.0,0.0,1.5892,1.6805,0.0,1.7597,1.7631,1.7487,1.7445,1.6691,1.5099,0.0,0.0,0.0,0.0,0.0,0.0,0.0,0.0,0.0,0.0,0.0,0.0,0.0,0.0,0.0,0.0,0.0,0.0,0.0,0.0,0.0,0.0,0.0,0.0,0.0,0.0,0.0,0.0,0.0,0.0,0.0,0.0,0.0,0.0,0.0,0.0,0.0,0.0,0.0,0.0,0.0,0.0,0.0,0.0,0.0,0.0,0.0,0.0,0.0,0.0,0.0,0.0,0.0,0.0,0.0,0.0,0.0,0.0,0.0,0.0,0.0,0.0,0.0,0.0,0.0,0.0,0.0,0.0,0.0,0.0,0.0,0.0,0.0,0.0,0.0,0.0,0.0,0.0,0.0,0.0,0.0,0.0,0.0,0.0,0.0,0.0,0.0,0.0,0.0,0.0,0.0,0.0,0.0,0.0,0.0,0.0,0.0,0.0,0.0,0.0,0.0,0.0,1.538,1.652,1.7445,0.0,1.8139,1.825,1.8123,1.8099,1.7329,1.567,0.0,0.0,0.0,0.0,0.0,0.0,0.0,0.0,0.0,0.0,0.0,0.0,0.0,0.0,0.0,0.0,0.0,0.0,0.0,0.0,0.0,0.0,0.0,0.0,0.0,0.0,0.0,0.0,0.0,0.0,0.0,0.0,0.0,0.0,0.0,0.0,0.0,0.0,0.0,0.0,0.0,0.0,0.0,0.0,0.0,0.0,0.0,0.0,0.0,0.0,0.0,0.0,0.0,0.0,0.0,0.0,0.0,0.0,0.0,0.0,0.0,0.0,0.0,0.0,0.0,0.0,0.0,0.0,0.0,0.0,0.0,0.0,0.0,0.0,0.0,0.0,0.0,0.0,0.0,0.0,0.0,0.0,0.0,0.0,0.0,0.0,0.0,0.0,0.0,0.0,0.0,0.0,0.0,0.0,0.0,0.0,0.0,0.0,0.0,0.0,0.0,0.0,1.638,1.7349,1.8159,1.8893,1.8584,1.8597,1.9334,1.8372,1.743,0.0,0.0,0.0,0.0,0.0,0.0,0.0,0.0,0.0,0.0,0.0,0.0,0.0,0.0,0.0,0.0,0.0,0.0,0.0,0.0,0.0,0.0,0.0,0.0,0.0,0.0,0.0,0.0,0.0,0.0,0.0,0.0,0.0,0.0,0.0,0.0,0.0,0.0,0.0,0.0,0.0,0.0,0.0,0.0,0.0,0.0,0.0,0.0,0.0,0.0,0.0,0.0,0.0,0.0,0.0,0.0,0.0,0.0,0.0,0.0,0.0,0.0,0.0,0.0,0.0,0.0,0.0,0.0,0.0,0.0,0.0,0.0,0.0,0.0,0.0,0.0,0.0,0.0,0.0,0.0,0.0,0.0,0.0,0.0,0.0,0.0,0.0,0.0,0.0,0.0,0.0,0.0,0.0,0.0,0.0,0.0,0.0,0.0,0.0,0.0,0.0,0.0,0.0,1.6179,1.7584,1.8618,1.8829,1.9277,1.9599,1.9628,1.9406,1.8845,1.772,0.0,0.0,0.0,0.0,0.0,0.0,0.0,0.0,0.0,0.0,0.0,0.0,0.0,0.0,0.0,0.0,0.0,0.0,0.0,0.0,0.0,0.0,0.0,0.0,0.0,0.0,0.0,0.0,0.0,0.0,0.0,0.0,0.0,0.0,0.0,0.0,0.0,0.0,0.0,0.0,0.0,0.0,0.0,0.0,0.0,0.0,0.0,0.0,0.0,0.0,0.0,0.0,0.0,0.0,0.0,0.0,0.0,0.0,0.0,0.0,0.0,0.0,0.0,0.0,0.0,0.0,0.0,0.0,0.0,0.0,0.0,0.0,0.0,0.0,0.0,0.0,0.0,0.0,0.0,0.0,0.0,0.0,0.0,0.0,0.0,0.0,0.0,0.0,0.0,0.0,0.0,0.0,0.0,0.0,0.0,0.0,0.0,0.0,0.0,0.0,0.0,0.0,1.6661,1.8045,1.9101,1.9352,1.9794,2.012,2.0311,2.0307,1.9856,1.8753,0.0,0.0,0.0,0.0,0.0,0.0,0.0,0.0,0.0,0.0,0.0,0.0,0.0,0.0,0.0,0.0,0.0,0.0,0.0,0.0,0.0,0.0,0.0,0.0,0.0,0.0,0.0,0.0,0.0,0.0,0.0,0.0,0.0,0.0,0.0,0.0,0.0,0.0,0.0,0.0,0.0,0.0,0.0,0.0,0.0,0.0,0.0,0.0,0.0,0.0,0.0,0.0,0.0,0.0,0.0,0.0,0.0,0.0,0.0,0.0,0.0,0.0,0.0,0.0,0.0,0.0,0.0,0.0,0.0,0.0,0.0,0.0,0.0,0.0,0.0,0.0,0.0,0.0,0.0,0.0,0.0,0.0,0.0,0.0,0.0,0.0,0.0,0.0,0.0,0.0,0.0,0.0,0.0,0.0,0.0,0.0,0.0,0.0,0.0,0.0,0.0,0.0,1.7548,1.8711,1.963,2.0243,2.0233,2.0457,2.1207,2.1028,2.0564,1.9877,0.0,0.0,0.0,0.0,0.0,0.0,0.0,0.0,0.0,0.0,0.0,0.0,0.0,0.0,0.0,0.0,0.0,0.0,0.0,0.0,0.0,0.0,0.0,0.0,0.0,0.0,0.0,0.0,0.0,0.0,0.0,0.0,0.0,0.0,0.0,0.0,0.0,0.0,0.0,0.0,0.0,0.0,0.0,0.0,0.0,0.0,0.0,0.0,0.0,0.0,0.0,0.0,0.0,0.0,0.0,0.0,0.0,0.0,0.0,0.0,1.658,0.0,0.0,0.0,0.0,0.0,0.0,0.0,0.0,0.0,0.0,0.0,0.0,0.0,0.0,0.0,0.0,0.0,0.0,0.0,0.0,0.0,0.0,0.0,0.0,0.0,0.0,0.0,0.0,0.0,0.0,0.0,0.0,0.0,0.0,0.0,0.0,0.0,0.0,0.0,0.0,0.0,1.7784,1.8994,1.9977,2.065,2.0852,2.1151,2.1634,2.1641,2.1393,2.076,1.9781,0.0,0.0,0.0,0.0,0.0,0.0,0.0,0.0,0.0,0.0,0.0,0.0,0.0,0.0,0.0,0.0,0.0,0.0,0.0,0.0,0.0,0.0,0.0,0.0,0.0,0.0,0.0,0.0,0.0,0.0,0.0,0.0,0.0,0.0,0.0,0.0,0.0,0.0,0.0,0.0,0.0,0.0,0.0,0.0,0.0,0.0,0.0,0.0,0.0,0.0,0.0,0.0,0.0,0.0,0.0,0.0,0.0,0.0,0.0,0.0,1.8749,0.0,0.0,0.0,0.0,0.0,0.0,0.0,0.0,0.0,0.0,0.0,0.0,0.0,0.0,0.0,0.0,0.0,0.0,0.0,0.0,0.0,0.0,0.0,0.0,0.0,0.0,0.0,0.0,0.0,0.0,0.0,0.0,0.0,0.0,0.0,0.0,0.0,0.0,0.0,0.0,1.844,1.9744,2.0779,2.1245,2.1408,2.1622,2.2035,2.1982,2.1764,2.1529,2.074,0.0,0.0,0.0,0.0,0.0,0.0,0.0,0.0,0.0,0.0,0.0,0.0,0.0,0.0,0.0,0.0,0.0,0.0,0.0,0.0,0.0,0.0,0.0,0.0,0.0,0.0,0.0,0.0,0.0,0.0,0.0,0.0,0.0,0.0,0.0,0.0,0.0,0.0,0.0,0.0,0.0,0.0,0.0,0.0,0.0,0.0,0.0,0.0,0.0,0.0,0.0,0.0,0.0,2.243,2.2309,2.252,2.252,2.2828,2.331,2.1976,2.1322,2.1166,0.0,0.0,0.0,0.0,0.0,0.0,0.0,0.0,0.0,0.0,0.0,0.0,0.0,0.0,0.0,0.0,0.0,0.0,0.0,0.0,0.0,0.0,0.0,0.0,0.0,2.2358,2.2317,0.0,0.0,0.0,0.0,0.0,0.0,0.0,0.0,0.0,0.0,0.0,0.0,1.9203,2.0539,2.1522,2.1872,2.1897,2.2035,2.2379,2.2117,2.1964,2.2004,2.1483,2.0606,0.0,0.0,0.0,0.0,0.0,0.0,0.0,0.0,0.0,0.0,0.0,0.0,0.0,0.0,0.0,0.0,0.0,0.0,0.0,0.0,0.0,0.0,0.0,0.0,0.0,0.0,0.0,0.0,0.0,0.0,0.0,0.0,2.262,2.3286,0.0,0.0,0.0,0.0,0.0,0.0,0.0,0.0,0.0,0.0,0.0,0.0,0.0,2.3575,2.3656,2.3471,2.3536,2.3887,2.4144,2.4094,2.3837,2.3837,2.4027,2.4349,2.3875,0.0,2.2657,2.1327,0.0,0.0,0.0,0.0,0.0,0.0,0.0,0.0,0.0,0.0,0.0,0.0,0.0,0.0,0.0,0.0,0.0,0.0,0.0,0.0,0.0,0.0,2.3204,2.4303,2.4233,2.3747,0.0,2.2424,2.1571,2.0376,2.01,0.0,0.0,0.0,0.0,0.0,0.0,0.0,1.9819,2.0772,2.159,2.2147,2.2242,2.2379,2.2791,2.2524,2.2231,2.2004,2.1683,2.1209,2.0509,2.0223,0.0,0.0,0.0,0.0,0.0,0.0,0.0,0.0,0.0,0.0,0.0,0.0,0.0,0.0,0.0,0.0,0.0,0.0,0.0,0.0,0.0,0.0,0.0,0.0,0.0,0.0,0.0,0.0,0.0,2.3045,2.3369,2.3371,2.4048,2.4391,0.0,0.0,0.0,0.0,0.0,0.0,0.0,0.0,0.0,2.4645,2.4502,2.4437,2.4426,2.4235,2.4306,2.467,2.4411,2.4346,2.4346,2.4216,2.4364,2.4899,2.4753,2.4466,2.4145,2.3102,2.273,2.262,0.0,0.0,0.0,0.0,2.0758,2.1173,2.2245,2.2497,0.0,2.2513,0.0,0.0,0.0,0.0,0.0,0.0,0.0,0.0,0.0,0.0,2.3873,2.4645,2.4601,2.434,2.4219,2.4162,2.3734,0.0,2.1641,2.1017,1.9794,0.0,0.0,0.0,0.0,0.0,2.0579,2.1538,2.2316,2.264,2.2791,2.2928,2.2928,2.2647,2.2376,2.232,2.1872,2.156,2.1474,2.1032,2.012,0.0,0.0,0.0,0.0,0.0,0.0,0.0,0.0,0.0,0.0,0.0,0.0,0.0,0.0,0.0,0.0,0.0,0.0,0.0,0.0,0.0,0.0,0.0,0.0,0.0,0.0,0.0,0.0,2.3691,2.3966,2.3747,2.4425,2.4787,0.0,0.0,0.0,0.0,0.0,0.0,2.5813,2.5354,2.5109,2.5375,2.527,2.5291,2.5382,2.5197,2.5287,2.5642,2.5099,2.5047,2.5246,2.49,2.5033,2.5505,2.5369,2.5257,2.514,2.4569,2.4086,2.3676,2.2943,2.2544,2.2304,2.2475,2.2932,2.3523,2.4347,2.4817,2.4915,2.4547,0.0,2.3127,2.2453,0.0,0.0,0.0,0.0,2.4443,2.4685,2.4671,2.4717,2.5153,2.5124,2.5,2.5,2.5343,2.5184,0.0,2.3141,2.2581,2.1872,0.0,0.0,0.0,0.0,2.1507,2.1489,2.2418,2.2996,2.2996,2.327,2.3338,2.3201,2.2859,2.2635,2.2635,2.2071,2.1839,2.2086,2.1615,2.0861,1.9892,0.0,0.0,0.0,0.0,0.0,0.0,0.0,0.0,0.0,0.0,0.0,0.0,0.0,0.0,0.0,0.0,0.0,0.0,0.0,0.0,0.0,0.0,0.0,0.0,0.0,0.0,0.0,0.0,0.0,2.5195,2.51,0.0,0.0,0.0,0.0,2.5984,2.5977,2.5896,2.5609,2.5255,2.5077,2.5092,2.5428,2.5698,2.6017,2.639,2.6779,2.71,2.7031,2.7031,2.7031,2.6668,2.6474,2.6519,2.6099,2.5798,2.5476,2.514,2.4627,2.4057,2.4027,2.3808,2.3593,2.4577,2.5011,2.5235,2.6119,2.6343,2.6072,2.5624,2.4626,2.3598,2.3835,2.3777,0.0,0.0,2.4782,2.5344,2.6325,2.6327,2.6231,2.6914,2.6565,2.6088,2.6088,2.588,2.5481,0.0,2.4483,2.4163,2.3212,0.0,2.2432,2.2034,2.2257,2.252,2.2418,2.2998,2.3338,2.3338,2.3406,2.3543,2.3884,2.3325,2.2962,2.2962,2.239,2.2089,2.2086,2.1826,2.1502,2.1131,2.0758,0.0,0.0,0.0,0.0,0.0,0.0,0.0,0.0,0.0,0.0,0.0,0.0,0.0,0.0,0.0,0.0,0.0,0.0,0.0,0.0,0.0,0.0,0.0,0.0,0.0,0.0,0.0,0.0,2.5473,2.5802,0.0,2.5736,2.6205,2.6395,2.6149,2.6151,2.628,2.6606,2.6292,2.6311,2.6744,2.6679,2.6664,2.6786,2.6962,2.7223,2.7486,2.7277,2.7347,2.7486,2.6913,2.6738,2.6877,2.6467,2.6266,2.6135,2.6091,2.5642,2.5019,2.4811,2.491,2.5294,2.5927,2.628,2.6536,2.7142,2.7277,2.7,2.6176,2.5156,2.4268,2.4346,2.464,2.4963,2.5157,2.5791,2.6496,2.6946,2.6624,2.6289,2.6803,2.6545,2.6226,2.6145,2.6268,2.6211,2.5692,2.501,2.4531,2.4419,2.3966,2.3458,2.3134,2.3337,2.3444,2.3142,2.3499,2.3816,2.3816,2.3952,2.4088,2.4034,2.3591,2.327,2.3071,2.2659,2.24,2.2393,2.2317,2.1847,2.0982,2.067,1.9822,0.0,0.0,0.0,0.0,0.0,0.0,0.0,0.0,0.0,0.0,0.0,0.0,0.0,0.0,0.0,0.0,0.0,0.0,0.0,0.0,0.0,0.0,0.0,0.0,0.0,0.0,2.5598,2.5778,2.6036,2.6247,2.615,2.6422,2.6631,2.6566,2.6658,2.6925,2.7332,2.7077,2.709,2.754,2.7524,2.75,2.75,2.7764,2.8037,2.8248,2.8037,2.8037,2.8248,2.7599,2.7367,2.7436,2.7021,2.6818,2.67,2.6762,2.6568,2.6231,2.5643,2.5728,2.616,2.6516,2.6841,2.7101,2.7565,2.7621,2.7426,2.6838,2.6019,2.5255,2.5255,2.5607,2.5898,2.5804,2.6439,2.7127,2.7283,2.7039,2.6827,2.7158,2.6959,2.6663,2.6339,2.6628,2.6733,2.6398,2.5631,2.5131,2.5262,2.4868,2.4474,2.4144,2.4266,2.4262,2.3845,2.4029,2.4156,2.4156,2.436,2.451,2.4374,2.3888,2.3436,2.3092,2.2817,2.249,2.2294,2.228,2.1809,2.0709,2.0301,1.957,1.8478,0.0,0.0,0.0,0.0,0.0,0.0,0.0,0.0,0.0,0.0,0.0,0.0,0.0,0.0,0.0,0.0,0.0,0.0,0.0,0.0,0.0,0.0,0.0,2.5495,2.5582,2.5778,2.6072,2.5847,2.581,2.6137,2.6479,2.6898,2.7232,2.7526,2.7694,2.771,2.7432,2.7222,2.7238,2.7896,2.8193,2.8193,2.898,2.9298,2.9298,2.9298,2.9298,2.9298,2.8851,2.8491,2.8057,2.7768,2.7443,2.7143,2.7128,2.7372,2.7578,2.6571,2.6176,2.6228,2.663,2.6745,2.6904,2.7491,2.7535,2.7301,2.7589,2.7261,2.6604,2.6604,2.6619,2.6583,2.6208,2.6593,2.717,2.7547,2.7656,2.7793,2.8183,2.798,2.7546,2.6863,2.7,2.7067,2.68,2.6398,2.6011,2.5659,2.5592,2.5457,2.5187,2.5119,0.0,2.4578,2.4495,2.4495,2.4495,2.4495,2.4713,2.5052,2.4174,2.3476,2.3156,2.2802,2.2369,2.1764,2.1749,2.1344,2.0428,1.9738,1.912,1.8503,0.0,0.0,0.0,0.0,0.0,0.0,0.0,0.0,0.0,0.0,0.0,0.0,0.0,0.0,0.0,0.0,0.0,0.0,0.0,0.0,0.0,0.0,2.5587,2.5587,2.5859,2.6152,2.647,2.669,2.6925,2.7205,2.7605,2.781,2.7947,2.7984,2.8205,2.8474,2.842,2.846,2.8711,2.8877,2.9012,2.9012,2.9178,2.9298,2.9298,2.9298,2.9298,2.9298,2.8851,2.8635,2.8491,2.813,2.7939,2.7833,2.7875,2.7949,2.8021,2.7447,2.7414,2.7673,2.8084,2.8402,2.8593,2.8807,2.849,2.7994,2.8035,2.7614,2.7014,2.7014,2.6982,2.7,2.7238,2.7221,2.7116,2.7322,2.7526,2.7593,2.7205,2.7394,2.7563,2.715,2.7134,2.72,2.7067,2.7,2.68,2.6465,2.5928,2.5592,2.5457,2.5255,0.0,2.4916,2.4916,2.4916,2.4916,2.4916,2.4984,2.5119,2.4379,2.3852,2.3476,2.3145,2.2766,2.2384,2.2602,2.2069,2.0751,2.0061,1.9278,0.0,0.0,0.0,0.0,0.0,0.0,0.0,0.0,0.0,0.0,0.0,0.0,0.0,0.0,0.0,0.0,0.0,0.0,0.0,0.0,0.0,0.0,2.5258,2.5686,2.5975,2.6248,2.6501,2.6851,2.7067,2.7415,2.7831,2.8111,2.83,2.8456,2.8583,2.8757,2.898,2.8996,2.9091,2.9298,2.9298,2.9298,2.9298,2.9298,2.9298,2.9298,2.9298,2.9298,2.9298,2.9066,2.8851,0.0,2.8418,2.8346,2.8331,2.8361,2.8498,0.0,0.0,0.0,0.0,0.0,2.8799,2.9073,2.9058,2.8942,2.8725,2.8707,2.8286,2.7832,2.7832,2.7799,2.7815,2.7872,2.7826,2.7846,2.7832,2.8019,2.8051,2.768,2.7779,2.7844,2.7299,2.72,2.7134,2.7,2.7067,0.0,2.6934,2.6465,2.5996,2.5794,2.5659,2.5457,2.5322,2.5457,2.5457,2.5322,2.5472,2.5457,2.5322,2.4716,0.0,0.0,0.0,2.3043,2.2468,2.2245,0.0,0.0,0.0,1.9836,1.9251,0.0,0.0,0.0,1.7447,1.7045,0.0,0.0,0.0,0.0,0.0,0.0,0.0,0.0,0.0,0.0,0.0,0.0,0.0,0.0,0.0,0.0,2.5561,2.585,2.6581,2.674,2.6914,2.7232,2.7327,2.762,2.818,2.8318,2.8452,2.8821,2.9123,2.9298,2.9298,0.0,0.0,0.0,0.0,2.9298,2.9298,2.9298,2.9298,2.9298,2.9298,2.9298,2.9298,2.9298,2.9138,2.8779,2.8779,2.8779,2.8779,2.8779,2.8995,2.9234,2.8599,2.8344,2.8313,2.8422,2.8692,2.8907,2.8994,0.0,0.0,2.9362,2.9124,2.8809,2.8858,2.8777,2.8681,2.8461,2.8562,2.8679,2.876,2.8743,2.8742,2.8676,2.851,2.8121,2.7398,2.72,2.7134,2.68,2.7,2.7267,2.72,2.6934,2.6599,2.6197,2.6145,2.6011,2.5659,2.5944,2.6011,2.5659,0.0,0.0,2.5674,2.509,2.4455,2.3869,2.3729,2.3277,2.2461,2.1555,2.0982,2.0728,2.0728,2.0801,2.096,2.0913,2.0808,2.0708,1.9303,1.8796,0.0,0.0,0.0,0.0,0.0,0.0,0.0,0.0,0.0,0.0,0.0,0.0,0.0,0.0,0.0,2.5529,2.5894,2.6199,2.6613,2.7169,2.755,2.7629,2.8116,2.8529,2.8662,2.8909,2.9115,2.9202,2.925,2.9298,2.9298,2.9298,2.9298,2.9298,2.9298,2.9298,2.9298,2.9298,2.9298,2.9298,0.0,0.0,2.9298,2.9298,2.9298,2.9154,2.9154,2.9154,2.9154,2.9154,2.9226,2.9282,2.9139,2.9091,2.9146,2.9438,2.9628,2.9695,3.0015,2.9952,2.9782,2.9781,2.9527,2.9259,2.9563,2.9228,0.0,2.9393,2.8789,2.7959,2.8323,2.841,2.8279,2.7998,2.8113,2.8146,2.7733,2.74,2.72,2.7134,2.7384,2.7517,2.7267,2.6934,2.6666,2.6599,2.6331,2.6078,2.6011,2.6078,2.6078,2.6011,2.6078,2.6078,2.6011,2.5631,2.5338,2.5206,2.4441,2.3925,2.3729,2.3296,2.2926,2.2601,2.2826,2.2632,2.1817,2.1888,2.161,2.1101,2.0014,1.961,0.0,0.0,0.0,0.0,0.0,0.0,0.0,0.0,0.0,0.0,0.0,2.4738,2.4664,0.0,2.5619,2.5861,2.604,2.6327,2.6867,2.7257,2.7584,2.7895,2.844,2.8773,2.8773,2.9091,2.9218,2.9043,2.9202,2.9298,2.9298,2.9298,2.9298,2.9298,2.9298,2.9298,2.9298,2.9298,2.9298,2.9298,2.9298,2.9298,2.9298,2.9298,2.9298,2.9298,2.9298,2.9298,2.9298,2.9298,2.9154,2.8995,2.9226,2.9298,2.9369,2.9942,3.0184,3.0215,3.0575,3.0566,3.0425,3.0034,2.9757,2.953,2.9605,2.9475,2.9393,2.9563,2.9328,2.901,2.8843,2.8943,2.9026,2.8626,2.8527,2.8477,2.8263,2.7998,2.7733,2.7733,2.7865,2.7849,2.7517,2.7318,2.7118,2.7,2.68,2.6599,2.6398,2.6532,2.6599,2.6398,2.6532,2.6599,2.6398,2.6044,2.5819,2.5819,2.505,2.4543,2.4351,2.3998,2.3715,2.3365,2.3505,2.3172,2.2393,2.2302,2.1873,2.1203,2.0528,2.0062,0.0,0.0,0.0,0.0,0.0,0.0,0.0,0.0,2.3149,2.4161,2.4647,2.492,2.499,2.5582,2.615,2.6168,2.6199,2.647,2.7121,2.7233,2.751,2.8116,2.8551,2.8789,2.8869,2.9123,2.9171,2.8885,2.9139,2.9298,2.9298,2.9298,2.9298,2.9298,2.9298,2.9298,2.9298,2.9298,2.9298,2.9298,2.9298,2.9298,2.9298,2.9298,2.9298,2.9298,2.9298,2.9298,2.9298,2.9298,2.9138,2.8851,2.9154,2.9298,2.9369,3.0157,3.037,3.0463,3.0954,3.1047,3.0887,3.0306,3.0024,2.9905,2.9647,2.9788,2.9944,2.9771,3.0049,3.024,2.9639,2.9725,2.9795,2.9402,2.9053,2.8807,2.8807,2.8543,2.8329,2.8329,2.8329,2.8263,2.7849,2.7849,2.7716,2.7267,2.72,2.7067,2.68,2.7067,2.72,2.68,2.7134,2.7134,2.68,2.6465,2.6249,2.6105,2.5524,2.5028,2.4709,2.4373,2.4038,2.379,2.3841,2.3596,2.2961,2.2644,2.2137,2.1478,2.1046,2.0558,2.173,2.1645,2.1615,2.2234,2.243,2.2662,0.0,0.0,2.3519,2.4433,2.4849,2.5001,2.4979,2.5594,2.6131,2.6216,2.6406,2.6756,2.7153,2.7435,2.7784,2.8186,2.8551,2.8885,2.9202,2.9282,2.9282,2.9234,2.9282,2.9298,2.9298,2.9298,2.9298,2.9298,2.9298,2.9298,2.9298,2.9298,2.9298,2.9298,2.9298,2.9298,2.9298,2.9298,2.9298,2.9298,2.9298,2.9298,2.9298,2.9298,2.9298,2.9226,2.9298,2.9298,2.9369,3.0157,3.037,3.0513,3.1243,3.1323,3.1007,3.0887,3.0649,3.0366,3.0637,3.0531,3.0442,3.1078,3.081,3.0383,3.0296,3.0131,2.9795,2.9402,2.9053,2.8807,2.8807,2.8543,2.8329,2.8329,2.8527,2.8675,2.8263,2.8461,2.8329,2.7334,2.72,2.72,2.7134,2.7451,2.7517,2.72,2.7451,2.7517,2.72,2.7067,2.6792,2.6149,2.5791,2.545,2.5076,2.4688,2.4548,2.4487,2.4764,2.4621,2.3913,2.3632,2.3114,2.2443,2.1852,2.1261,2.2429,2.2604,0.0,0.0,2.3298,2.3406,2.402,2.4258,2.4464,2.4956,2.5526,2.589,2.5863,2.6316,2.6681,0.0,2.6907,2.7066,2.7153,2.7328,2.7629,2.8154,2.8569,2.8879,2.9035,2.9385,2.956,2.9296,2.9329,2.9369,2.9656,2.9441,2.9298,2.9298,2.9298,2.9298,2.9298,2.9513,2.9656,2.964,2.9871,2.9871,2.9656,2.9656,2.9513,2.9298,2.9298,2.9298,2.9298,2.9298,2.9154,2.8995,2.9226,2.9313,2.9367,3.0146,3.0364,3.0533,3.1304,3.1423,3.1194,3.0994,3.0804,3.0656,3.0621,3.0502,3.0431,3.0768,3.076,3.061,3.0184,3.0108,3.0062,2.9467,2.9185,2.9053,2.9053,2.8988,2.8856,2.8856,2.8988,2.8988,2.8675,2.8741,2.8609,2.7932,2.7666,2.7517,2.7517,2.7451,2.7334,2.72,2.7517,2.7584,2.72,2.701,2.6769,2.648,2.5959,2.547,2.514,2.4984,2.4795,2.461,2.4919,2.4745,2.4096,2.394,2.3361,2.2329,2.2135,2.161,2.322,0.0,0.0,2.3904,2.3909,2.3991,2.4512,2.4701,2.4851,2.5243,2.5712,2.6168,2.621,2.6705,2.7056,2.698,2.7213,2.7393,2.7219,2.74,2.7691,2.8148,2.8737,2.9086,2.8953,2.9502,2.9757,2.9357,2.9297,2.9441,2.9712,2.9441,2.9298,2.9298,2.9298,2.9298,2.9298,2.9712,2.9926,2.9926,3.0228,3.0228,2.9926,2.9783,2.9585,2.9298,2.9298,2.9369,2.9425,2.9258,2.9067,2.8837,2.8972,2.9119,2.9346,3.0045,3.0383,3.0633,3.1253,3.1428,3.1343,3.1127,3.1055,3.1009,3.075,3.0685,3.0685,3.0685,3.0912,3.103,3.0271,3.0386,3.0516,2.9616,2.943,2.943,2.9316,2.9316,2.9316,2.9316,2.9316,2.925,2.8988,2.8939,2.8807,2.8461,2.8196,2.7981,2.7849,2.7666,2.7533,2.76,2.765,2.765,2.7533,2.708,2.6824,2.6728,2.6088,2.5533,2.5109,2.5122,2.498,2.4734,2.498,2.4854,2.4358,2.417,2.3528,2.2464,2.2283,2.1842,2.3776,0.0,2.3914,2.3991,2.4043,2.4258,2.4877,2.4525,2.4327,2.4903,2.506,2.5233,2.5591,2.6442,2.6994,2.6662,2.747,2.7963,2.7286,2.7799,2.8262,2.8302,2.9206,2.9708,0.0,2.966,2.9712,2.9354,2.9282,2.9298,2.9298,2.9298,2.9298,2.9298,2.9298,2.9298,2.9298,2.9712,2.9926,2.9926,3.0228,3.0228,2.9855,2.9513,2.9298,2.9298,2.9298,2.9513,2.9838,2.9129,2.9001,2.918,2.8531,2.8664,2.9352,2.9797,3.0344,3.0939,3.1346,3.1483,3.1409,3.1409,3.14,3.1377,3.1377,3.1377,3.1377,3.1377,3.1684,3.1787,3.1078,3.1193,3.1184,3.0062,2.9805,2.9691,2.9382,2.9316,2.9316,2.9316,2.9316,2.9316,2.9316,2.9316,2.9185,2.8807,2.8741,2.8675,2.8329,2.8263,2.8395,2.8741,2.8114,2.7849,2.8196,2.7605,2.7052,2.6712,2.6323,2.578,2.5135,2.5119,2.5103,2.5103,2.5103,2.5103,2.5087,2.4404,2.376,2.3137,2.2436,2.1789,2.4364,0.0,2.4089,2.4541,2.4547,2.4464,2.4703,2.4896,2.5085,2.5092,2.5435,2.5874,2.6189,2.6782,2.7104,2.6966,2.7474,2.7719,2.7251,2.76,2.7979,2.8286,2.8985,0.0,0.0,0.0,0.0,3.0085,2.9799,2.9799,3.0014,2.9585,2.9298,2.9298,2.9298,2.9441,2.9712,3.0085,3.0228,3.0228,3.014,3.0157,3.0228,2.9871,2.9527,2.9302,2.9585,2.9596,2.9507,2.9237,2.9188,2.9257,2.9057,2.9392,3.0052,3.0204,3.0632,3.1229,3.1384,3.1402,3.1385,3.1385,3.1423,3.1377,3.1377,3.1377,3.1377,3.1377,3.1514,3.1465,3.1016,3.1013,3.0877,3.0005,2.9805,2.9691,2.9382,2.9316,2.9316,2.9316,2.9316,2.9316,2.9316,2.9316,2.925,2.9119,2.8922,2.8675,2.8329,2.8659,2.8856,2.8527,2.8461,2.8295,2.7916,2.7246,2.6696,2.6323,2.5967,2.5539,2.5119,2.5288,2.5365,2.5103,2.5103,2.4992,2.4754,2.4515,2.3988,2.3138,2.2906,2.233,2.4518,2.4341,2.4127,2.4583,2.4639,2.4611,2.4738,2.5128,2.5362,2.5121,2.5554,2.6022,2.6388,2.6727,2.7031,2.7084,2.7534,2.7703,2.7258,2.7834,2.8262,2.8309,2.8923,0.0,0.0,0.0,0.0,2.9855,2.9728,2.9712,2.9783,2.9354,2.9154,2.9298,2.9298,2.9441,2.964,3.0157,3.0447,3.0597,3.0227,3.009,3.0203,2.9834,2.9579,2.9281,2.956,2.9636,2.9489,2.922,2.9239,2.929,2.9158,2.9613,3.0386,3.0535,3.1096,3.1736,3.1494,3.1403,3.1377,3.1377,3.1377,3.1377,3.1377,3.1377,3.1377,3.1377,3.1488,3.1496,3.1156,3.1182,3.106,3.0248,3.0018,2.9887,2.9561,2.9495,2.9495,2.9643,2.9578,2.9495,2.9495,2.9364,2.9316,2.9316,2.9119,2.8922,2.8659,2.9053,2.9119,2.8725,2.8607,2.8439,2.8123,2.7319,2.675,2.6441,2.6158,2.5778,2.5472,2.5656,2.5594,2.5304,2.5304,2.5067,2.4579,2.4452,2.3984,2.3084,2.2959,2.2559,2.4291,2.4236,2.4027,2.4105,2.4338,2.4658,2.4976,2.5071,2.5071,2.5101,2.5346,2.5668,0.0,0.0,2.6688,2.698,2.7679,2.7942,2.7279,2.8342,2.8971,0.0,0.0,0.0,0.0,0.0,0.0,2.8676,0.0,2.9138,2.8763,2.8707,2.8851,2.9298,2.9298,2.9369,2.9369,3.0069,3.058,3.0977,3.0544,3.0151,2.99,2.9506,2.9352,2.9336,2.9336,2.9525,2.9816,2.9126,2.906,2.9345,2.8974,2.9478,3.039,3.0797,3.1589,3.2294,3.1699,3.1442,3.1442,3.1377,3.1377,3.1377,3.1377,3.1377,3.1377,3.1377,3.1671,3.1873,3.1488,3.1671,3.1676,3.0662,3.0443,3.0296,2.9952,2.9822,2.9952,3.0296,3.01,2.9805,2.9805,2.9561,2.9316,2.9316,2.9316,2.9316,2.9316,2.9316,2.9299,2.9282,2.8632,2.8348,2.8717,2.7735,2.7063,2.7109,2.6772,2.6449,2.6128,2.6128,2.5961,2.561,2.5594,2.5278,2.4607,2.4257,2.3731,2.311,2.2783,2.2456,2.4178,2.4227,2.4082,2.4107,2.4338,2.4531,2.4356,2.4695,2.4924,2.4643,2.5034,2.5511,0.0,0.0,0.0,2.6338,2.6948,0.0,2.6889,2.7344,0.0,2.823,0.0,2.8753,2.9267,2.9056,0.0,0.0,2.8635,2.8923,2.9138,2.8851,2.8851,2.9298,2.9568,2.9871,3.0085,3.0302,3.0457,3.0583,2.9897,2.9726,2.99,2.9763,2.9613,2.9345,2.9632,2.9663,2.9458,2.924,2.9255,2.937,2.9743,3.0278,3.0797,3.1442,3.1955,3.2358,3.223,3.1974,3.1717,3.1506,3.1377,3.1377,3.1377,3.1377,3.1377,3.1377,3.1451,3.1506,3.1396,3.1451,3.1441,3.0897,3.075,3.0685,3.0296,3.023,3.0296,3.0378,3.01,2.9805,2.9805,2.9757,2.9691,2.9691,2.9905,2.9905,2.9382,2.9316,2.9213,2.8939,2.8772,2.8464,2.7963,2.743,2.7008,2.6739,2.6621,2.6449,2.6128,2.6327,2.6327,2.5961,2.5698,2.5326,2.4907,2.4315,2.3786,2.3392,2.3054,2.274,2.391,2.4021,2.3853,2.3904,2.4102,2.4261,2.372,2.4204,2.4714,2.445,2.4903,0.0,2.5577,0.0,0.0,0.0,0.0,0.0,2.6649,2.7101,2.7589,0.0,2.8028,0.0,2.9028,2.8772,2.8389,0.0,2.8491,2.8707,2.8794,2.8707,2.8851,2.9298,2.9495,2.9846,3.0173,3.0165,3.0155,3.0189,2.9597,2.9378,2.9429,2.9429,2.9295,2.9093,0.0,2.9521,2.9316,2.9316,2.9316,2.9382,3.0213,3.0815,3.1184,3.2019,3.253,3.2804,3.2676,3.2485,3.223,3.1782,3.1506,3.1377,3.1377,3.1377,3.1377,3.1377,3.1249,3.1157,3.1341,3.1249,3.1093,3.0972,3.0879,3.0879,3.0685,3.062,3.0555,3.0443,3.01,2.9805,2.9805,2.9805,2.9805,2.9805,2.9877,2.9789,2.9319,2.9384,2.9379,2.9042,2.8731,2.8289,2.7638,2.7405,2.7156,2.683,2.6935,2.6918,2.6736,2.6918,2.6874,2.6571,2.6141,2.5737,2.5241,2.444,2.391,2.3699,2.3198,2.2909,2.3422,2.363,2.3436,2.3442,2.3709,2.3715,2.3142,2.3763,2.4382,2.431,0.0,2.5483,2.5731,2.5721,2.5711,2.5965,0.0,2.6303,2.6534,2.7147,2.7572,2.7669,2.7618,2.7925,2.8737,2.8441,2.8169,2.8156,2.8563,2.8563,2.813,2.8491,2.8907,2.9377,2.9357,2.956,2.9901,2.9833,2.9851,2.9813,2.9479,2.9176,2.8873,2.8873,2.8873,2.8873,0.0,0.0,2.925,2.9316,2.9316,2.9447,3.0555,3.1202,3.1635,3.2594,3.3165,3.3355,3.3038,3.2931,3.2804,3.2102,3.1717,3.1442,3.1442,3.1377,3.1377,3.1377,3.1139,3.0937,3.1286,3.1121,3.0892,3.0918,3.0944,3.0944,3.0944,3.0944,3.0879,3.0555,3.023,2.9952,2.9952,2.9952,2.9952,2.9952,2.9702,2.9456,2.9439,2.9531,2.9542,2.9252,2.8577,2.8035,2.7597,2.7531,2.7401,2.7194,2.7358,2.7521,2.7581,2.7581,2.7444,2.7125,2.6781,2.6296,2.5711,2.4622,2.4105,2.4089,2.3408,2.3078,2.2199,2.2808,2.3099,2.2871,2.2844,2.2839,2.2663,2.3319,0.0,0.0,2.4599,2.5263,2.5318,2.5834,2.6203,2.597,0.0,0.0,0.0,0.0,2.6938,0.0,0.0,0.0,0.0,0.0,0.0,0.0,0.0,2.8866,2.813,2.8491,2.9067,2.9785,2.979,2.986,2.9867,2.9648,2.9462,2.9419,2.9089,2.899,2.9185,2.9185,2.9185,2.925,2.925,0.0,2.8939,2.9185,2.943,2.9822,3.0926,3.1699,3.2294,3.3038,3.3355,3.3418,3.3355,3.3102,3.2804,3.2102,3.1846,3.1782,3.1506,3.1377,3.1377,3.1377,3.1322,3.1286,3.1359,3.1322,3.1286,3.1295,3.1313,3.1313,3.1313,3.1313,3.1313,3.1249,3.0926,3.0685,3.0685,3.0685,3.0685,3.0685,3.0601,3.0538,3.0538,2.9555,2.8877,2.873,2.8588,2.8237,2.7583,2.7496,2.7461,2.7401,2.7461,2.7642,2.79,2.79,2.7741,2.7381,2.7075,2.6689,2.6244,2.5222,2.4735,2.4718,2.386,2.3416,2.1871,2.2189,2.2302,2.2142,2.2157,2.2298,2.2387,0.0,0.0,0.0,2.4602,2.5221,2.5221,0.0,0.0,0.0,0.0,0.0,0.0,0.0,0.0,0.0,0.0,0.0,0.0,0.0,0.0,0.0,0.0,2.9082,2.8418,2.8779,2.9194,2.9563,2.9437,2.9352,2.9362,2.9027,2.8843,2.879,2.8593,2.8593,2.879,2.8988,2.9119,2.9316,2.9316,0.0,2.9316,2.9119,2.9447,3.0065,3.037,3.1322,3.2428,3.2493,3.2786,3.3066,3.2851,3.2587,3.2253,3.1917,3.187,3.1846,3.1506,3.1377,3.1377,3.1377,3.1231,3.1121,3.1322,3.1231,3.1121,3.1322,3.1377,3.1377,3.1377,3.1249,3.112,3.112,3.1009,3.0944,3.112,3.1313,3.1368,3.1166,3.0925,3.0593,3.0167,2.9372,2.885,2.8867,2.8689,2.8353,2.7779,2.79,2.796,2.7762,2.79,2.808,2.8277,2.8277,2.8128,2.7694,2.7423,2.7099,2.6762,2.5507,2.5007,2.5192,2.4168,2.3697,2.1634,2.1597,2.1324,2.1481,2.1638,2.1798,2.222,2.2748,0.0,0.0,2.4574,2.5133,2.5203,0.0,2.552,0.0,0.0,0.0,0.0,0.0,0.0,0.0,0.0,0.0,0.0,0.0,0.0,0.0,0.0,0.0,2.8851,2.9154,2.9282,2.9282,2.8996,2.8777,2.8824,2.8378,2.8263,2.8395,2.8329,2.8395,2.8527,2.879,2.8988,2.9185,2.9185,0.0,0.0,2.9119,2.9461,3.0201,3.0227,3.1119,3.2333,3.2027,3.2277,3.2617,3.2285,3.1985,3.1677,3.1694,3.1696,3.1716,3.1377,3.1304,3.1359,3.1267,3.1084,3.0992,3.1304,3.1157,3.0992,3.1304,3.1377,3.1359,3.1267,3.1139,3.0992,3.0901,3.0956,3.1075,3.1441,3.1707,3.1825,3.1477,3.1003,3.0469,2.9738,2.9273,2.9044,2.9053,2.8817,2.8457,2.814,2.8337,2.8397,2.8199,2.8397,2.8576,2.8696,2.8636,2.8421,2.8075,2.7783,2.7428,2.7194,2.5785,2.529,2.5577,2.4478,2.4033,2.1068,2.0859,2.0538,2.1085,2.0958,2.1015,2.2049,0.0,0.0,2.3544,2.4276,2.4837,2.5168,2.5719,2.613,0.0,0.0,2.6508,0.0,0.0,0.0,0.0,0.0,0.0,0.0,0.0,0.0,0.0,0.0,0.0,2.9298,2.9298,2.9282,2.9282,2.8996,2.8777,2.8824,2.8095,2.8114,2.8741,2.8461,2.8593,2.9185,2.925,2.9119,2.8873,2.8873,0.0,0.0,2.9216,2.9742,2.9892,3.1514,3.218,3.2263,3.2575,3.2519,3.2226,3.2187,3.1985,3.1619,3.1332,3.1326,3.1269,3.0972,3.1102,3.1304,3.0937,3.1066,3.1322,3.1359,3.1341,3.1341,3.1359,3.1377,3.1286,3.0919,3.1054,3.1132,3.0804,3.0983,3.1369,3.1684,3.1858,3.1843,3.1747,3.1127,3.0531,3.0079,2.9412,2.8993,2.903,2.9012,2.8815,2.8457,2.8457,2.8636,2.8856,2.8636,2.8755,2.939,2.9094,2.8751,2.8403,2.8104,2.7747,2.7388,2.6347,2.585,2.5867,2.4834,2.4384,2.0948,2.05,2.0124,2.0699,2.0723,2.1002,2.2432,0.0,2.2647,2.3913,2.4455,2.4802,2.5151,2.5415,2.5608,2.5552,0.0,0.0,0.0,0.0,0.0,0.0,0.0,0.0,0.0,0.0,0.0,0.0,0.0,0.0,2.8662,2.8853,2.8987,2.8985,2.8441,2.8141,2.8132,2.7828,2.7849,2.8114,2.8461,2.8659,2.8725,2.9119,2.9119,2.879,2.8807,0.0,0.0,2.8734,2.9193,2.9704,3.0156,3.1001,3.1825,3.1457,3.1519,3.1738,3.1286,3.0911,3.0591,3.0536,3.0709,3.0897,3.0843,3.0901,3.1047,3.1121,3.1249,3.1377,3.1377,3.1377,3.1377,3.1377,3.1404,3.131,3.1162,3.1108,3.1133,3.0964,3.1262,3.1499,3.1684,3.188,3.1984,3.1664,3.1392,3.0942,3.0344,3.0016,2.9745,2.9568,2.9213,2.8934,2.8815,2.8993,2.9035,2.8975,2.9035,2.9153,2.9213,2.9035,2.8861,2.846,2.8188,2.7829,2.7474,2.641,2.5885,2.5867,2.5059,2.4663,2.1151,2.0709,2.0309,2.1056,2.1155,2.1501,0.0,2.2997,2.2842,2.4052,2.4492,2.4736,2.4994,2.5261,2.5436,2.5267,0.0,2.5661,0.0,0.0,0.0,0.0,0.0,0.0,0.0,0.0,0.0,0.0,0.0,0.0,0.0,2.8446,2.8503,2.8599,2.8043,2.7725,2.7725,2.756,2.765,2.7849,2.8395,2.8609,2.8461,2.8922,2.8905,2.851,0.0,0.0,0.0,2.8643,2.9044,2.9413,2.9788,3.0573,3.1378,3.0876,3.0936,3.1092,3.0547,3.0157,2.9801,2.9923,3.0083,3.0339,3.0438,3.0733,3.1062,3.1035,3.1156,3.1231,3.1341,3.1377,3.1423,3.1377,3.1328,3.1258,3.1121,3.1025,3.0902,3.077,3.1028,3.1287,3.1287,3.1706,3.1891,3.1383,3.1325,3.111,3.0508,3.0333,3.0157,2.9922,2.9509,2.9272,2.9272,2.9509,2.9568,2.939,2.945,2.945,2.9272,2.8983,2.8692,2.8455,2.8032,2.7665,2.7428,2.6371,2.5887,2.5869,2.5121,2.4757,2.1828,2.1509,2.118,2.2433,2.2412,2.2509,0.0,2.3649,2.3092,2.375,2.419,2.4527,2.4664,2.5485,2.5789,2.4962,2.5656,0.0,0.0,0.0,0.0,0.0,0.0,0.0,0.0,0.0,0.0,0.0,0.0,0.0,0.0,2.8136,2.79,2.8217,2.79,2.7725,2.7725,2.7375,2.76,2.8263,2.8329,2.8477,2.8807,2.8807,2.8395,0.0,0.0,0.0,0.0,2.9229,2.9529,2.8745,3.1184,3.1641,3.0957,3.1367,3.1053,3.0392,3.0392,3.0039,2.9509,2.9509,2.9509,2.9524,2.9591,3.0642,3.1583,3.0447,3.0433,3.0882,3.1267,3.1377,3.1414,3.1299,3.1332,3.1152,3.0615,3.0487,3.0354,3.0016,3.0263,3.0547,3.0626,3.115,3.1447,3.1065,3.1007,3.0853,3.043,3.0098,2.9922,2.9922,2.9863,2.9863,2.9863,2.9863,3.0039,3.0392,2.9863,2.9627,2.9863,2.896,2.8407,2.8407,2.7658,2.7344,2.7287,2.6307,2.5831,2.5757,2.5113,2.4663,2.1451,2.128,2.1174,2.1744,2.1995,2.2435,2.3675,2.3414,2.3143,2.4005,2.4346,2.458,2.4933,2.5431,2.5823,2.581,2.6114,0.0,0.0,0.0,0.0,0.0,0.0,0.0,0.0,0.0,0.0,0.0,0.0,0.0,0.0,2.749,2.7534,2.7868,2.755,2.7493,2.7694,2.7848,2.8196,2.8675,2.8675,2.8609,2.8477,2.8477,0.0,0.0,0.0,0.0,0.0,2.857,2.9022,2.9066,3.0411,3.0642,3.0235,3.0604,3.0448,3.0039,2.9863,2.9686,2.9509,2.9509,2.9695,2.9957,3.0129,3.0743,3.138,3.1294,3.1376,3.1495,3.1347,3.131,3.1336,3.1288,3.1195,3.107,3.0863,3.0815,3.0741,3.0606,3.0703,3.078,3.0799,3.0955,3.1053,3.0917,3.0957,3.0918,3.0782,3.0645,3.0587,3.0587,3.0587,3.0411,2.9922,3.0098,3.0098,2.9804,2.9804,2.9627,2.9272,2.8726,2.8388,2.8388,2.7697,2.7326,2.7326,2.6533,2.5972,2.5708,2.5086,2.4868,2.1561,2.1648,2.1767,2.2386,2.2591,2.2898,2.3899,2.3745,2.3459,2.3708,2.396,2.4193,2.4491,2.4876,2.5368,2.6007,2.6241,0.0,0.0,0.0,0.0,0.0,0.0,0.0,0.0,0.0,0.0,0.0,0.0,0.0,0.0,2.72,2.7312,2.7518,2.7445,2.7584,2.7915,2.8196,2.8461,2.8807,2.8675,2.8477,2.8263,2.7982,0.0,0.0,0.0,0.0,0.0,2.8375,2.8806,2.8799,2.9933,3.0274,3.0098,3.0157,3.0098,2.9863,2.9568,2.9509,2.9509,2.9331,2.955,3.0041,3.0615,3.0789,3.0837,3.127,3.132,3.1254,3.1269,3.1313,3.1339,3.1439,3.118,3.1046,3.1165,3.0955,3.0742,3.0917,3.0703,3.0528,3.0528,3.0645,3.0704,3.0704,3.082,3.0898,3.0898,3.0898,3.0937,3.1054,3.0937,3.0762,3.045,3.0509,3.045,3.0039,2.9922,2.967,2.9167,2.8634,2.826,2.7948,2.7521,2.7189,2.7044,2.6455,2.6038,2.5679,2.5311,2.5183,0.0,2.2408,2.2756,2.3828,2.3804,2.37,2.4606,2.4477,0.0,2.3138,2.337,2.3687,2.3789,2.4186,2.4812,2.5835,0.0,0.0,0.0,0.0,0.0,0.0,0.0,0.0,0.0,0.0,0.0,0.0,0.0,0.0,0.0,2.7267,2.7267,2.7334,2.765,2.7915,2.8263,2.8263,2.8477,2.8741,2.8461,2.8246,2.8213,2.7491,0.0,0.0,0.0,0.0,0.0,2.8587,2.8902,2.8199,2.9804,3.0392,3.0333,2.9981,2.9863,2.9804,2.9568,2.945,2.939,2.9094,2.931,2.9836,3.0818,3.0705,3.0256,3.0611,3.0538,3.0463,3.1146,3.1302,3.1333,3.1574,3.1293,3.1086,3.1425,3.0936,3.0604,3.0951,3.0424,2.9981,2.9981,3.0216,3.045,3.045,3.0704,3.0898,3.0957,3.0937,3.1054,3.1325,3.1112,3.1054,3.1267,3.1054,3.0898,3.0879,3.0294,2.9732,2.9297,2.8719,2.8061,2.7196,2.7141,2.6958,2.6591,2.6245,2.5953,2.5734,2.5734,2.5514,2.1924,0.0,2.2501,2.3059,2.3334,2.3675,0.0,2.4374,2.4152,2.3886,2.4619,2.524,2.5147,2.5649,2.6444,0.0,0.0,0.0,0.0,0.0,0.0,0.0,0.0,0.0,0.0,0.0,0.0,0.0,0.0,0.0,0.0,2.7584,2.7849,2.8411,2.8477,2.8329,2.7849,2.813,2.8329,2.8395,2.8329,2.7982,2.7458,2.7312,0.0,0.0,0.0,0.0,2.7024,2.8527,2.8839,2.8592,2.9917,3.0098,2.9686,2.9627,2.945,2.9213,2.9153,2.9094,2.9094,2.9035,2.9449,3.0041,3.0256,3.0607,3.0921,3.0917,3.1108,3.1313,3.147,3.1279,3.115,3.1501,3.1474,3.1307,3.1113,3.1152,3.1171,3.0957,3.0781,3.0645,3.0645,3.0704,3.0879,3.1034,3.0995,3.1054,3.1518,3.1325,3.1325,3.1672,3.1383,3.1208,3.1267,3.1054,3.0762,3.0509,3.0392,2.9849,2.895,2.8777,2.8214,2.7196,2.6885,2.6683,2.6591,2.6245,2.619,2.6354,2.5916,2.5679,2.177,2.221,2.252,2.2662,2.3206,2.3802,2.4239,2.4332,2.4288,2.4204,2.4706,2.5201,2.5521,0.0,0.0,0.0,0.0,0.0,0.0,0.0,0.0,0.0,0.0,0.0,0.0,0.0,0.0,0.0,0.0,0.0,0.0,2.7849,2.8196,2.8543,2.8609,2.8527,2.8444,2.8527,2.8543,2.8543,2.8395,2.7999,2.7442,2.7295,2.708,0.0,0.0,0.0,2.6989,2.8237,2.8603,2.8425,2.9524,2.9804,2.9509,2.9331,2.9272,2.9213,2.9035,2.8975,2.9012,2.9195,2.9656,3.0083,3.0083,3.0596,3.1073,3.0825,3.094,3.1169,3.1562,3.1293,3.1142,3.1747,3.1655,3.1445,3.123,3.1367,3.1445,3.123,3.0898,3.0704,3.0879,3.0762,3.0762,3.1054,3.1112,3.1228,3.1498,3.1556,3.1614,3.1787,3.1498,3.1325,3.1325,3.1054,3.082,3.0645,3.0335,2.9738,2.8784,2.8727,2.837,2.7567,2.7049,2.6845,2.6954,2.6518,2.6464,2.6791,2.63,2.6026,2.1755,2.234,2.2732,2.2586,2.3206,2.3881,2.4042,0.0,0.0,0.0,0.0,0.0,0.0,2.5665,0.0,0.0,0.0,0.0,0.0,0.0,0.0,0.0,0.0,0.0,0.0,0.0,0.0,0.0,0.0,0.0,0.0,2.8196,2.8395,2.8461,2.8461,2.8725,2.925,2.8873,2.8741,2.8741,2.8345,2.7916,2.7538,2.7256,2.7018,0.0,0.0,0.0,2.6604,2.7861,2.8174,2.802,2.909,2.9543,2.9483,2.9186,2.9246,2.9465,2.9112,2.8975,2.903,2.9379,2.967,2.993,3.005,3.0411,3.077,3.0632,3.0572,3.0727,3.1469,3.1337,3.1185,3.1912,3.1777,3.1504,3.1445,3.1465,3.1504,3.1426,3.0878,3.0567,3.082,3.0645,3.0567,3.0995,3.117,3.1325,3.1498,3.173,3.1903,3.1903,3.1672,3.1441,3.1383,3.1053,3.0859,3.0781,3.0199,2.9508,2.8747,2.8502,2.8238,2.7936,2.7303,2.7152,2.7368,2.6845,2.6736,2.6989,2.6736,2.6409,2.2312,2.2907,2.3131,2.2895,2.3206,2.3657,2.4042,2.4459,0.0,0.0,0.0,0.0,0.0,2.6555,0.0,0.0,0.0,0.0,0.0,0.0,0.0,0.0,0.0,0.0,0.0,0.0,0.0,0.0,0.0,0.0,0.0,0.0,2.8856,2.9119,2.9185,2.9053,2.8873,2.8527,2.8395,2.8395,2.7687,2.7166,2.6856,2.675,2.6389,0.0,0.0,2.6414,2.6283,2.7327,2.7687,2.7737,2.904,2.961,2.961,2.9549,2.9531,2.9554,2.9163,2.8975,2.8993,2.9048,2.9126,2.9264,2.978,3.0016,3.0194,3.0683,3.0859,3.0957,3.1385,3.1249,3.1035,3.1523,3.1562,3.1426,3.1055,3.1269,3.1406,3.1055,3.0879,3.082,3.0898,3.084,3.0995,3.1556,3.1441,3.1556,3.2383,3.2305,3.2305,3.2555,3.2326,3.2018,3.173,3.1122,3.0618,3.0312,3.0177,2.9716,2.8747,2.799,2.7599,2.7678,2.7213,2.7152,2.7368,2.6845,2.6736,2.6989,2.6736,2.6409,2.215,2.2865,2.3259,2.328,2.3468,2.3577,2.3351,2.3581,2.4122,0.0,0.0,0.0,0.0,0.0,0.0,0.0,0.0,0.0,0.0,0.0,0.0,0.0,0.0,0.0,0.0,0.0,0.0,0.0,0.0,0.0,0.0,0.0,2.8939,2.9316,2.9316,2.925,2.9053,2.8741,2.8477,2.8263,2.7752,2.7391,2.722,2.6793,2.643,2.6178,0.0,2.6537,2.6405,2.7265,2.7808,2.8157,2.9022,2.9459,2.9544,2.9324,2.925,2.9232,2.9048,2.8975,2.8975,2.8975,2.9213,2.9509,2.9627,2.9922,3.0216,3.0509,3.0762,3.0996,3.1406,3.1211,3.0996,3.1406,3.1523,3.1406,3.0976,3.123,3.1387,3.0976,3.0898,3.0898,3.0898,3.0898,3.0995,3.1286,3.1344,3.1498,3.2153,3.2248,3.2363,3.2477,3.2363,3.1974,3.1294,3.0923,3.0379,2.9531,2.9344,2.9058,2.8504,2.7956,2.7787,2.7997,2.7481,2.7422,2.7853,2.7171,2.6935,2.7206,2.6954,2.6682,2.1947,2.2616,2.3069,2.3578,2.3846,2.3845,2.322,2.3322,2.3821,0.0,0.0,0.0,0.0,0.0,0.0,0.0,0.0,0.0,0.0,0.0,0.0,0.0,0.0,0.0,0.0,0.0,0.0,0.0,0.0,0.0,0.0,0.0,2.9053,2.9316,2.9316,2.925,2.9185,2.9005,2.8757,2.841,2.7751,2.7452,2.7403,2.6786,2.6471,2.6344,2.6566,2.6627,2.6783,2.7255,2.785,2.8544,2.8957,2.9306,2.9525,2.9232,2.9067,2.8975,2.8975,2.8975,2.8975,2.8975,2.9331,2.9686,2.9568,2.9804,3.0216,3.0392,3.0567,3.0898,3.1289,3.1133,3.0976,3.1289,3.1367,3.1289,3.0957,3.1133,3.1269,3.0957,3.0898,3.0898,3.0898,3.0898,3.0937,3.0995,3.117,3.1441,3.173,3.2076,3.2305,3.2305,3.2281,3.1767,3.0601,3.0449,2.9944,2.8937,2.8626,2.8362,2.8194,2.8067,2.8067,2.8174,2.7745,2.7745,2.8301,2.7476,2.726,2.753,2.7206,2.6898,2.2074,2.2356,2.2475,2.3607,2.4268,2.463,2.4574,2.4621,2.4984,2.6136,0.0,0.0,0.0,0.0,0.0,0.0,0.0,0.0,0.0,0.0,0.0,0.0,0.0,0.0,0.0,0.0,0.0,0.0,0.0,0.0,0.0,0.0,0.0,2.9316,2.9316,2.9119,2.8807,2.9119,2.908,2.8755,2.7388,2.6771,2.6645,2.6282,2.5978,2.5733,2.63,2.6789,2.7092,2.7125,2.7559,2.821,2.8951,2.9357,2.9623,2.9544,2.9305,2.8975,2.8975,2.8975,2.8975,2.8975,2.9035,2.9094,2.939,2.9509,2.9686,3.0274,3.045,3.0509,3.0859,3.0918,3.0898,3.0937,3.0937,3.0918,3.0898,3.0918,3.0918,3.0898,3.0898,3.0898,3.0898,3.0898,3.0995,3.1208,3.1267,3.1441,3.173,3.2076,3.2305,3.2305,3.2107,3.1456,2.9977,2.9644,2.9283,2.8753,2.8447,2.8213,2.796,2.8121,2.8174,2.7906,2.7906,2.8014,2.8301,2.7638,2.753,2.7853,2.753,2.7018,2.1441,2.1997,2.2673,2.3921,2.4488,2.4639,2.4358,2.3941,2.3909,2.471,2.5108,0.0,0.0,0.0,0.0,0.0,0.0,0.0,0.0,0.0,0.0,0.0,0.0,0.0,0.0,0.0,0.0,0.0,0.0,0.0,0.0,0.0,0.0,2.9316,2.9316,2.925,2.9119,2.9028,2.8922,2.8768,2.7802,2.729,2.7171,2.6665,2.6475,2.657,2.7097,2.721,2.7159,2.7565,2.8013,2.8482,2.9195,2.9526,2.9544,2.9305,2.9104,2.8975,2.8975,2.9153,2.9272,2.9035,2.939,2.9804,2.9568,2.9745,3.0098,3.0333,3.0392,3.045,3.082,3.0898,3.0898,3.0898,3.0898,3.0898,3.0898,3.0898,3.0898,3.0898,3.0898,3.0898,3.0898,3.0898,3.0937,3.1054,3.0798,3.0835,3.1401,3.1374,3.1442,3.1819,3.1277,3.0595,2.989,2.9447,2.9066,2.8747,2.8461,2.8354,2.8408,2.8354,2.8174,2.7906,2.7906,2.796,2.8067,2.7799,2.7799,2.7906,2.7283,2.6808,2.1085,2.1886,2.2746,2.3836,2.4487,2.4783,2.4401,2.3725,2.3376,2.4128,2.4844,2.5678,0.0,0.0,0.0,0.0,0.0,0.0,0.0,0.0,0.0,0.0,0.0,0.0,0.0,0.0,0.0,0.0,0.0,0.0,0.0,0.0,0.0,0.0,2.9316,2.9316,2.9316,2.9076,2.8819,2.8597,2.8133,2.773,2.7418,2.6867,2.671,2.6974,2.7351,2.7447,2.7266,2.777,2.8216,2.8648,2.9071,2.9337,2.936,2.9085,2.8975,2.9035,2.9094,2.9331,2.945,2.9213,2.9568,3.0039,2.9509,2.9686,3.0157,3.0216,3.0333,3.045,3.082,3.0898,3.0898,3.0898,3.0898,3.0898,3.0898,3.0898,3.0898,3.0898,3.0898,3.0898,3.0898,3.0898,3.084,3.0703,3.0527,3.0526,3.0914,3.0869,3.091,3.1111,3.0574,3.0059,2.9595,2.9366,2.9132,2.8834,2.8568,2.8514,2.8674,2.8461,2.8228,2.8014,2.8014,2.8014,2.8014,2.8014,2.7956,2.782,2.7319,2.6736,2.1221,2.1988,2.2636,2.3264,0.0,0.0,2.4941,2.423,2.386,2.4845,2.6109,2.7177,2.7461,0.0,0.0,0.0,0.0,0.0,0.0,0.0,0.0,0.0,0.0,0.0,0.0,0.0,0.0,0.0,0.0,0.0,0.0,0.0,0.0,0.0,2.9316,2.9316,2.9316,2.9299,2.8939,2.8203,2.8186,2.7792,2.7109,2.6739,2.6648,2.6648,2.6952,2.7278,2.7604,2.7604,2.7991,2.8587,2.8559,2.8696,2.8975,2.8975,2.8975,2.9035,2.939,2.9509,2.9509,2.9509,2.9509,2.945,2.9094,2.9213,2.9568,2.9804,3.0157,3.045,3.082,3.0898,3.0898,3.0898,3.0898,3.0898,3.0898,3.0898,3.0898,3.0898,3.0898,3.0898,3.0898,3.0879,3.0723,3.0273,3.0586,3.0703,3.0254,3.0707,3.0873,3.0255,3.0207,2.9863,2.9172,2.9396,2.9448,2.9132,2.8834,2.8674,2.8674,2.8461,2.8301,2.8301,2.8301,2.8301,2.8301,2.8301,2.8066,2.7728,2.7708,2.693,2.1046,2.1864,0.0,2.3051,0.0,0.0,0.0,2.3926,0.0,0.0,2.5512,2.6067,0.0,0.0,0.0,0.0,0.0,0.0,0.0,0.0,0.0,0.0,0.0,0.0,0.0,0.0,0.0,0.0,0.0,0.0,0.0,0.0,0.0,0.0,2.9316,2.9316,2.9316,2.9059,2.8819,2.8597,2.8049,2.7525,2.7122,2.7258,2.731,2.7327,2.7741,2.7758,2.7586,2.7818,2.8174,2.8648,2.8781,2.8916,2.8975,2.8975,2.8975,2.8975,2.9094,2.9272,2.945,2.9213,2.9568,3.0098,2.9745,3.0039,3.0528,3.0587,3.0704,3.0762,3.0879,3.0898,3.0898,3.0898,3.0898,3.0898,3.0898,3.0898,3.0898,3.0898,3.1054,3.1112,3.0957,3.0798,3.06,3.0272,3.0059,2.9922,2.9785,2.9846,2.9844,2.9673,2.9514,2.9273,2.8834,2.929,2.9396,2.8834,2.892,2.8887,2.8727,2.8461,2.8228,2.8014,2.8174,2.8194,2.8014,2.8194,2.8066,2.7708,2.7189,2.6436,2.1167,2.2152,0.0,2.297,2.3542,2.4051,2.3497,0.0,0.0,0.0,0.0,0.0,0.0,0.0,0.0,0.0,0.0,0.0,0.0,0.0,0.0,0.0,0.0,0.0,0.0,0.0,0.0,0.0,0.0,0.0,0.0,0.0,0.0,0.0,2.9179,2.9162,2.9316,2.8802,2.8545,2.8545,2.7912,2.7415,2.709,2.7295,2.7398,2.7398,2.7655,2.7621,2.7442,2.7807,2.8162,2.8417,2.8846,2.8975,2.8975,2.8975,2.8975,2.9035,2.9153,2.9331,2.9509,2.939,2.9745,3.0157,2.9804,3.0098,3.0528,3.0528,3.0587,3.0704,3.0879,3.0898,3.0898,3.0898,3.0898,3.0898,3.0898,3.0995,3.1054,3.0937,3.1228,3.1383,3.1112,3.0968,3.0724,3.0376,2.9869,2.9538,2.9648,2.9431,2.9159,2.9144,2.8993,2.8887,2.8727,2.9132,2.9185,2.8727,2.8834,2.8834,2.8568,2.8408,2.8228,2.8067,2.8301,2.8354,2.8067,2.8354,2.8192,2.7708,2.7227,2.6545,2.1407,2.2547,0.0,2.2865,2.3512,0.0,2.3317,2.3843,0.0,0.0,0.0,0.0,0.0,0.0,0.0,0.0,0.0,0.0,0.0,0.0,0.0,0.0,0.0,0.0,0.0,0.0,0.0,0.0,0.0,0.0,0.0,0.0,0.0,0.0,2.8974,2.8974,2.9265,2.858,2.822,0.0,2.7775,2.7415,2.7073,2.7073,2.7073,2.7073,2.7073,2.7073,2.7133,2.7719,2.802,2.808,2.8737,2.8975,2.8975,2.8975,2.8975,2.9035,2.9331,2.945,2.9509,2.9745,2.9863,2.9863,2.9627,2.9745,2.9981,2.9922,3.0216,3.0509,3.082,3.0898,3.0898,3.0898,3.0898,3.0898,3.0898,3.1112,3.1208,3.0995,3.146,3.173,3.1383,3.1214,3.0902,3.048,2.9819,2.9451,2.9742,2.9268,2.8819,2.8767,2.8727,2.8727,2.8727,2.892,2.8993,2.8727,2.8674,2.8568,2.8281,2.8301,2.8301,2.8301,2.8475,2.8509,2.8242,2.8469,2.8232,2.7611,2.765,2.6911,2.108,2.1867,0.0,0.0,2.2547,2.3331,2.3825,0.0,0.0,0.0,0.0,0.0,0.0,0.0,0.0,0.0,0.0,0.0,0.0,0.0,0.0,0.0,0.0,0.0,0.0,0.0,0.0,0.0,0.0,0.0,0.0,0.0,0.0,2.8905,2.9093,2.9093,2.8888,2.8734,2.834,0.0,2.7638,2.7415,2.7073,2.7073,2.7073,2.7073,2.7073,2.7073,2.7133,2.7719,2.802,2.808,2.8737,2.8975,2.8975,2.8975,2.8975,2.8975,2.9094,2.9094,2.9153,2.9509,2.9745,2.9863,2.9804,3.0235,3.0645,3.0392,3.0509,3.082,3.0898,3.0898,3.0898,3.0898,3.0898,3.0898,3.0898,3.1112,3.1267,3.1228,3.173,3.2076,3.173,3.1293,3.0715,3.0071,2.9305,2.9092,2.9701,2.9192,2.8827,2.8993,2.8834,2.8781,2.8973,2.8887,2.8781,2.8674,2.8674,2.8568,2.8281,2.8301,2.8301,2.8301,2.8074,2.7917,2.7865,2.7513,2.7121,2.668,2.7012,2.6722,2.1569,0.0,0.0,2.2333,0.0,0.0,0.0,0.0,0.0,0.0,0.0,0.0,0.0,0.0,0.0,0.0,0.0,0.0,0.0,0.0,0.0,0.0,0.0,0.0,0.0,0.0,0.0,0.0,0.0,0.0,0.0,2.8751,2.8974,2.8785,2.8956,2.8974,2.8785,2.8408,2.8015,2.7604,2.7432,2.7261,2.7073,2.7073,2.7073,2.7073,2.7073,2.7194,2.7358,2.7779,2.808,2.8277,2.8815,2.8975,2.8975,2.8975,2.8975,2.8975,2.8975,2.8965,2.9013,2.9493,2.9789,2.9909,3.01,3.0392,3.0645,3.045,3.0509,3.0704,3.084,3.0898,3.0957,3.1054,3.0995,3.0937,3.1054,3.1344,3.1556,3.1556,3.2018,3.2301,3.1791,3.1187,3.0594,2.9982,2.9452,2.9285,2.9667,2.924,2.894,2.9079,2.8973,2.8887,2.894,2.8781,2.8621,2.8514,2.8514,2.8461,2.8301,2.8105,2.7988,2.7988,2.8147,2.7931,2.7363,2.7479,2.7243,2.6699,2.7129,2.6885,2.216,0.0,2.2554,2.3043,2.3513,0.0,0.0,0.0,0.0,0.0,0.0,0.0,0.0,0.0,0.0,0.0,0.0,0.0,0.0,0.0,0.0,0.0,0.0,0.0,0.0,0.0,0.0,0.0,0.0,0.0,2.8083,2.846,2.8717,2.8785,2.8785,2.8815,2.8811,2.8094,2.7638,2.7562,2.7271,2.7073,2.7073,2.7073,2.7073,2.7073,2.7073,2.7237,2.7521,2.784,2.8199,2.8517,2.8874,2.8975,2.8975,2.8975,2.8975,2.8993,2.9035,2.8991,2.9042,2.9749,2.9928,2.9988,3.0276,3.045,3.045,3.045,3.045,3.0567,3.082,3.0937,3.0995,3.1267,3.117,3.1112,3.1325,3.1614,3.1767,3.1744,3.2142,3.2241,3.1543,3.1011,3.0532,3.0056,2.9764,2.9606,2.9659,2.9396,2.9185,2.9237,2.9237,2.9079,2.8887,2.8781,2.8621,2.8408,2.8354,2.8262,2.8184,2.7904,2.7669,2.7663,2.8173,2.7904,2.6914,2.7582,2.7582,2.6914,2.7422,2.7201,0.0,0.0,2.1718,0.0,0.0,0.0,0.0,0.0,0.0,0.0,0.0,0.0,0.0,0.0,0.0,0.0,0.0,0.0,0.0,0.0,0.0,0.0,0.0,0.0,0.0,0.0,0.0,0.0,0.0,0.0,2.7689,2.8049,2.8426,2.8768,2.8785,2.8742,2.8731,2.8295,2.7899,2.7531,2.7211,2.7073,2.7073,2.7073,2.7073,2.7073,2.7073,2.7237,2.7521,2.784,2.8199,2.8517,2.8874,2.8975,2.8975,2.8975,2.8975,2.9035,2.9331,2.9412,2.9493,3.0138,3.0353,3.0315,3.0372,3.0567,3.0762,3.045,3.0645,3.082,3.0898,3.1054,3.1267,3.1267,3.1498,3.1672,3.173,3.1787,3.1782,3.1625,3.1593,3.1402,3.0892,3.076,3.0532,3.0056,2.9764,2.9659,2.9942,2.9711,2.9606,2.9837,2.9659,2.9501,2.9501,2.8993,2.8674,2.8621,2.8408,2.8125,2.7806,2.7748,2.7636,2.7447,2.7302,2.7004,2.6465,2.6945,2.6926,2.6484,2.7337,2.746,2.2187,0.0,0.0,0.0,0.0,0.0,0.0,0.0,0.0,0.0,0.0,0.0,0.0,0.0,0.0,0.0,0.0,0.0,0.0,0.0,0.0,0.0,0.0,0.0,0.0,0.0,0.0,0.0,0.0,2.7313,2.7313,2.7655,2.8009,2.8369,2.8593,2.8587,2.8393,2.8189,2.785,2.7297,2.7133,2.7073,2.7073,2.7073,2.7073,2.7073,2.7073,2.7358,2.7762,2.796,2.8319,2.8815,2.8916,2.8975,2.9035,2.9213,2.9272,2.9331,2.9627,2.9712,2.9735,3.0256,3.0335,3.0354,3.0626,3.0762,3.0879,3.0704,3.0762,3.0937,3.1112,3.1228,3.1383,3.1787,3.1845,3.1842,3.1885,3.1824,3.1625,3.1532,3.1244,3.0872,3.0483,3.0364,3.0169,2.9805,2.9784,2.9889,2.9994,2.9889,2.9889,2.9994,2.9889,2.9764,2.9606,2.9185,2.8887,2.8727,2.8331,2.8009,2.7728,2.7732,2.7648,2.7399,2.7535,2.7404,2.6971,2.7404,2.7302,2.6758,2.7383,2.7447,0.0,0.0,0.0,0.0,0.0,0.0,0.0,0.0,0.0,0.0,0.0,0.0,0.0,0.0,0.0,0.0,0.0,0.0,0.0,0.0,0.0,0.0,0.0,0.0,0.0,0.0,0.0,0.0,0.0,2.7289,2.7453,2.7626,2.786,2.8253,2.8462,2.8428,2.8114,2.8009,2.7635,2.7073,2.7073,2.7073,2.7073,2.7073,2.7133,2.7177,2.7177,2.7478,2.802,2.808,2.8439,2.8975,2.9094,2.9094,2.9035,2.9338,2.9474,2.9549,2.9808,2.9929,3.0026,3.0412,3.0471,3.043,3.0781,3.0898,3.0859,3.0742,3.0723,3.0761,3.105,3.1224,3.1397,3.197,3.197,3.1869,3.1881,3.1634,3.1367,3.1257,3.0822,3.0438,3.0204,3.0043,2.9942,2.9711,2.9889,2.9994,2.9994,2.9994,2.9994,2.9994,2.9942,2.9764,2.9501,2.9185,2.8867,2.8621,2.8252,2.7924,2.7656,2.7799,2.7772,2.7602,2.799,2.7938,2.7399,2.7954,2.791,2.7187,2.7617,2.7516,0.0,0.0,0.0,0.0,0.0,0.0,0.0,0.0,0.0,0.0,0.0,0.0,0.0,0.0,0.0,0.0,0.0,0.0,0.0,0.0,0.0,0.0,0.0,0.0,0.0,0.0,0.0,0.0,0.0,2.7817,2.8447,2.819,2.821,2.8654,2.834,2.8131,2.8114,2.773,2.7375,2.7073,2.7073,2.7073,2.7073,2.7073,2.7237,2.7461,2.7461,2.7702,2.802,2.8337,2.8696,2.9035,2.9331,2.9272,2.9057,2.9196,2.9406,2.9512,2.9699,3.0045,3.0412,3.0762,3.0879,3.0859,3.0879,3.0898,3.0801,3.0351,3.0234,3.0291,3.0653,3.0937,3.12,3.1559,3.184,3.1896,3.1687,3.1141,3.0739,3.0719,3.0346,3.0036,3.0036,3.0015,2.9994,2.9994,2.9994,2.9994,2.9994,2.9994,2.9994,2.9994,2.9764,2.9501,2.9132,2.8887,2.8621,2.8354,2.8315,2.8048,2.7459,2.7867,2.8124,2.8156,2.8349,2.8113,2.7399,2.8271,2.8311,2.7689,2.8066,2.7941,0.0,0.0,0.0,0.0,0.0,0.0,0.0,0.0,0.0,0.0,0.0,0.0,0.0,0.0,0.0,0.0,0.0,0.0,0.0,0.0,0.0,0.0,0.0,0.0,0.0,0.0,0.0,0.0,0.0,0.0,2.78,2.7966,2.8162,2.8567,2.8182,2.7912,2.773,2.7427,2.7297,2.7358,2.7194,2.7194,2.7358,2.7358,2.7539,2.7822,2.8259,2.8379,2.8337,2.8457,2.8815,2.9331,2.945,2.9341,2.9233,2.9546,2.9642,2.9737,2.9987,3.0335,3.0762,3.084,3.0898,3.0898,3.0777,3.0564,3.0409,3.0353,3.0178,3.0198,3.0701,3.0924,3.109,3.1388,3.1326,3.112,3.1065,3.0851,3.0594,3.0305,3.0098,2.9889,2.9501,2.9732,2.9889,2.9448,2.9732,2.9994,2.9994,2.9994,2.9994,2.9994,2.9942,2.9837,2.9679,2.9237,2.892,2.8814,2.8344,2.8048,2.7887,2.8336,2.8562,2.84,2.8929,2.8967,2.8493,2.8622,2.8489,2.8066,2.8223,2.7931,2.3444,0.0,0.0,0.0,0.0,0.0,0.0,0.0,0.0,0.0,0.0,0.0,0.0,0.0,0.0,0.0,0.0,0.0,0.0,0.0,0.0,0.0,0.0,0.0,0.0,0.0,0.0,0.0,0.0,0.0,2.7552,2.792,2.8194,2.8337,2.79,2.7599,2.7358,2.7194,2.7237,2.7521,2.7297,2.7358,2.7521,2.7762,2.7942,2.8199,2.8856,2.8975,2.8696,2.8874,2.9153,2.949,2.9594,2.9485,2.9335,2.9449,2.964,2.9814,2.9925,3.0273,3.0664,3.078,3.0682,3.0563,3.0438,3.0339,3.0241,3.0083,3.0018,3.0018,3.0567,3.0656,3.0731,3.1078,3.0727,3.0343,3.045,3.045,3.0367,3.0056,2.9994,2.9889,2.9448,2.9732,2.9837,2.9448,2.9732,2.9994,2.9994,2.9994,2.9994,2.9994,2.9942,2.9889,2.9889,2.9311,2.8973,2.8973,2.8503,2.8232,2.8229,2.8733,2.8857,2.8643,2.9068,2.9185,2.8973,2.8781,2.8568,2.8281,2.8144,2.7616,0.0,0.0,0.0,0.0,0.0,0.0,0.0,0.0,0.0,0.0,0.0,0.0,0.0,0.0,0.0,0.0,0.0,0.0,0.0,0.0,0.0,0.0,0.0,0.0,0.0,0.0,0.0,0.0,0.0,2.747,2.7867,2.8213,2.8296,2.8002,2.7435,2.7133,2.7133,2.7133,2.7237,2.7521,2.7521,2.7521,2.7581,2.8182,2.854,2.854,2.9194,2.9253,2.9094,2.9686,2.9745,2.9512,2.9757,2.9585,2.9241,2.9017,2.9305,2.9814,2.967,2.9844,3.0252,3.05,3.0317,2.998,3.0036,3.0183,3.0229,2.961,2.9579,2.9884,3.0133,3.0186,3.0314,3.0603,3.0146,2.9659,2.9942,2.9994,2.9994,2.9994,2.9994,2.9994,2.9994,2.9994,2.9994,2.9994,2.9994,2.9994,2.9994,2.9994,2.9994,2.9994,2.9784,2.9606,2.9606,2.9046,2.8727,2.8727,2.8674,2.8655,2.8528,2.891,2.9036,2.889,2.8793,2.8674,2.8727,2.8674,2.8568,2.8262,2.7885,2.7065,2.4485,0.0,0.0,0.0,0.0,0.0,0.0,0.0,0.0,0.0,0.0,0.0,0.0,0.0,0.0,0.0,0.0,0.0,0.0,0.0,0.0,0.0,0.0,0.0,0.0,0.0,0.0,0.0,2.6955,2.7395,2.7797,2.8498,2.8687,2.8397,2.8217,2.7977,2.7719,2.7719,2.79,2.8199,2.796,2.802,2.8259,2.8677,2.8975,2.9194,2.9844,3.0079,3.0039,2.9922,2.981,2.9757,2.9987,2.9674,2.9036,2.9188,2.9463,2.9614,2.9609,2.9844,3.0252,3.05,3.0204,2.9849,3.046,3.0183,2.9759,3.0235,3.0003,2.9737,3.0022,3.0075,3.0075,3.018,3.0045,2.9889,2.9994,2.9994,2.9994,2.9994,2.9994,2.9994,2.9994,3.0151,3.0235,3.0047,3.0151,3.0203,3.0047,2.9994,2.9994,2.9994,2.9942,2.9816,2.9606,2.9237,2.8973,2.8973,2.8834,2.8774,2.8898,2.9071,2.9071,2.9076,2.8827,2.8781,2.8973,2.8781,2.841,2.7865,2.709,2.6501,0.0,0.0,0.0,0.0,0.0,0.0,2.2392,2.2381,0.0,0.0,0.0,0.0,0.0,0.0,0.0,0.0,0.0,0.0,0.0,0.0,0.0,0.0,0.0,0.0,0.0,0.0,0.0,2.63,2.6683,2.7105,2.7546,2.8064,2.8323,2.8264,2.8307,2.8128,2.773,2.7949,2.7979,2.803,2.8116,2.8217,2.8187,2.884,2.9095,2.9083,2.9796,3.0083,3.0083,2.9987,2.9891,2.9795,2.9937,2.9541,2.8906,2.9075,2.9337,2.9607,2.9541,2.9757,3.0128,3.0362,3.0058,2.9679,3.0221,3.0005,2.9748,3.0122,3.0043,2.9784,2.9942,2.9942,2.9889,2.9994,2.9942,2.9889,2.9994,2.9994,2.9994,2.9994,2.9994,3.0047,3.0151,3.0287,3.0339,3.0203,3.0287,3.0287,3.0047,2.9994,2.9994,2.9994,2.9994,2.9942,2.9764,2.9501,2.9237,2.9132,2.892,2.892,2.9079,2.8973,2.9026,2.929,2.9026,2.9132,2.9659,2.8993,2.841,2.7898,2.7381,2.6894,0.0,0.0,0.0,0.0,0.0,0.0,2.2675,2.252,2.2741,0.0,0.0,0.0,0.0,0.0,0.0,0.0,0.0,0.0,0.0,0.0,0.0,0.0,0.0,0.0,0.0,2.5845,2.5972,2.6591,2.6628,2.6811,2.716,2.7431,2.7628,2.7962,2.8009,2.7849,2.7511,2.7795,2.7776,2.7383,2.8106,2.8246,2.7822,2.884,2.9032,2.8709,2.9346,2.9626,2.9682,2.9865,2.9914,2.9773,2.9844,2.9451,2.8863,2.8759,2.908,2.9564,2.9411,2.9639,3.0008,3.0154,2.9888,2.9554,2.9668,2.9805,2.9942,2.9711,2.9837,2.9994,2.9994,2.9837,2.9711,2.9942,2.9837,2.9711,2.9942,2.9994,2.9994,3.0047,3.0047,3.0099,3.0391,3.0443,3.0443,3.0495,3.0443,3.0339,3.0099,2.9994,2.9994,2.9994,2.9994,2.9994,2.9942,2.9711,2.9448,2.9132,2.9079,2.9079,2.9079,2.894,2.9099,2.9606,2.9396,2.9638,3.0307,2.923,2.8545,2.8227,2.8145,2.7656,0.0,0.0,0.0,0.0,0.0,0.0,2.2557,2.2382,2.2511,0.0,0.0,0.0,0.0,0.0,0.0,0.0,0.0,0.0,0.0,0.0,0.0,0.0,0.0,0.0,0.0,2.581,2.6117,2.6573,2.6885,2.7105,2.7178,2.7833,2.8213,2.8272,2.8286,2.8286,2.8213,2.7958,2.7797,2.7708,2.8102,2.8216,2.8106,2.8823,2.9086,2.9066,2.9626,2.9925,2.9941,2.9859,2.9724,2.951,2.993,2.9541,2.8739,2.896,2.9226,2.9446,2.9421,2.9605,2.9862,3.0106,2.9728,2.9351,3.0216,3.0125,2.9711,2.9889,2.9942,2.9994,2.9994,2.9942,2.9942,2.9994,2.9942,2.9942,2.9994,2.9994,3.0047,3.0287,3.0151,3.0151,3.062,3.0724,3.0827,3.1013,3.0879,3.062,3.0339,3.0151,2.9994,2.9994,2.9994,2.9942,2.9711,2.9606,2.9448,2.9132,2.9079,2.9079,2.9079,2.929,2.9554,2.9942,3.0308,3.0275,2.9824,2.9157,2.8788,2.8578,2.7938,2.7272,0.0,0.0,0.0,2.5786,0.0,0.0,0.0,2.2963,2.2871,0.0,0.0,0.0,0.0,0.0,0.0,0.0,0.0,0.0,0.0,0.0,0.0,0.0,0.0,0.0,0.0,2.5339,2.5556,2.6243,2.6517,2.6719,2.6866,2.7453,2.7783,2.7783,2.8187,2.8205,2.7783,2.7985,2.7879,2.7382,2.7977,2.8183,2.8066,2.8552,2.881,2.8945,2.9218,2.9436,2.9579,2.9662,2.9634,2.9527,2.9794,2.9333,2.8568,2.9132,2.9253,2.9179,2.9393,2.9615,2.985,3.0302,3.0048,2.9709,3.05,3.0314,2.9837,2.9942,2.9994,2.9994,2.9994,2.9994,2.9994,2.9994,2.9994,2.9994,2.9994,2.9994,3.0099,3.0339,3.0287,3.0339,3.0931,3.0983,3.1034,3.1189,3.0983,3.0724,3.0443,3.0151,2.9994,2.9994,2.9994,2.9889,2.9606,2.9606,2.9448,2.9132,2.8973,2.9099,2.9501,2.9396,2.9659,3.0391,3.0754,3.0906,3.0649,3.024,2.9905,2.9563,2.8682,2.8152,0.0,0.0,0.0,0.0,0.0,2.5073,0.0,0.0,0.0,0.0,0.0,0.0,0.0,0.0,0.0,0.0,0.0,0.0,0.0,0.0,0.0,0.0,0.0,0.0,0.0,2.4657,2.4821,2.5711,2.5782,2.6002,2.6444,2.6848,2.7105,2.7178,2.782,2.7838,2.7178,2.7803,2.777,2.7116,2.7827,2.814,2.7979,2.8435,2.8633,2.8727,2.8834,2.8993,2.9237,2.9501,2.9606,2.9606,2.9659,2.9237,2.8654,2.9343,2.9353,2.9075,2.9465,2.9746,2.9998,3.0446,3.0305,3.0056,3.0482,3.0337,2.9994,3.0047,3.0047,2.9994,2.9994,2.9994,2.9994,2.9994,2.9994,2.9994,2.9994,2.9994,3.0099,3.0391,3.0495,3.0651,3.1116,3.1167,3.124,3.127,3.0983,3.0724,3.0495,3.0203,2.9994,2.9994,2.9942,2.9837,2.9606,2.9606,2.9501,2.9237,2.9046,2.9311,3.0047,2.9711,2.9911,3.0811,3.1124,3.133,3.1396,3.1278,3.0931,3.0407,2.9592,2.921,0.0,0.0,0.0,0.0,2.7609,0.0,0.0,0.0,0.0,0.0,0.0,0.0,0.0,0.0,0.0,0.0,0.0,0.0,0.0,0.0,0.0,0.0,0.0,0.0,0.0,0.0,2.4414,2.4886,2.4922,2.5286,2.6039,2.6426,2.6811,2.716,2.727,2.727,2.7178,2.7178,2.7247,2.7368,2.8022,2.8272,2.8301,2.882,2.8927,2.8727,2.9237,2.9501,2.9554,2.9606,2.9606,2.9606,2.9889,2.9784,2.9448,2.9554,2.9595,2.9509,2.9574,2.991,3.0318,3.0129,3.0036,3.0047,3.035,3.0245,3.0047,3.0287,3.0183,2.9994,2.9994,2.9994,2.9994,2.9994,2.9994,2.9994,2.9994,2.9994,3.0151,3.0672,3.0776,3.0827,3.1137,3.1167,3.127,3.1527,3.1137,3.0776,3.0776,3.0308,2.9994,2.9994,2.9784,2.9606,2.9606,2.9606,2.9606,2.9554,2.9732,2.9994,3.0339,3.0754,3.0922,3.0874,3.136,3.1258,3.0644,3.1025,3.0828,3.0125,3.0011,2.9505,0.0,0.0,0.0,0.0,0.0,0.0,0.0,0.0,2.4361,0.0,0.0,0.0,0.0,0.0,0.0,0.0,0.0,0.0,0.0,0.0,0.0,0.0,0.0,0.0,0.0,0.0,0.0,0.0,0.0,2.4162,2.5598,2.5678,2.6008,2.6811,2.7068,2.7068,2.683,2.716,2.7341,2.7441,2.7853,2.8121,2.8281,2.8674,2.8887,2.8993,2.9396,2.9659,2.9816,2.9816,2.9816,2.9837,2.9942,2.9732,2.9343,2.9711,2.9606,2.9396,2.9869,3.0026,2.9921,2.9994,3.0286,3.059,3.0266,3.0099,3.0047,3.0151,3.0099,2.9994,2.9994,2.9994,2.9994,2.9994,2.9994,2.9994,2.9994,3.0151,3.036,3.0724,3.0931,3.1137,3.1373,3.1424,3.1476,3.1578,3.1116,3.0776,3.0776,3.0308,2.9994,2.9994,2.9889,2.9659,2.9343,2.9606,2.9784,2.9606,3.0287,3.0776,3.0858,3.1219,3.1367,3.1323,3.152,3.1469,3.1121,3.1316,3.1162,3.0713,3.013,2.9842,3.2292,0.0,0.0,0.0,0.0,0.0,0.0,0.0,0.0,0.0,0.0,0.0,0.0,0.0,0.0,0.0,0.0,0.0,0.0,0.0,0.0,0.0,0.0,0.0,0.0,0.0,0.0,0.0,0.0,0.0,2.4736,2.4832,2.5302,2.6281,2.6811,2.6921,2.6682,2.7361,2.767,2.7638,2.8067,2.8335,2.8495,2.8834,2.9046,2.9237,2.9554,2.9837,2.9994,2.9994,2.9994,2.9994,2.9994,2.9732,2.9396,2.9837,2.9732,2.9448,3.0183,3.013,2.9869,3.0047,3.0433,3.0694,3.0255,3.0047,2.9994,3.0099,3.0099,3.0099,2.9994,3.0099,3.0203,3.0047,3.0099,3.0203,3.0047,3.0183,3.0495,3.0724,3.0983,3.1167,3.1527,3.1629,3.1578,3.1527,3.1189,3.0879,3.0724,3.036,3.0099,2.9994,2.9942,2.9784,2.9501,2.9784,2.9994,3.0026,3.0858,3.1322,3.1322,3.1476,3.1629,3.1629,3.1629,3.1578,3.1476,3.1578,3.1424,3.1064,3.0363,3.023,0.0,0.0,0.0,3.1692,0.0,0.0,0.0,0.0,2.5071,0.0,0.0,0.0,0.0,0.0,0.0,0.0,0.0,0.0,0.0,0.0,0.0,0.0,0.0,0.0,0.0,0.0,0.0,0.0,0.0,0.0,2.3402,2.4101,2.4762,2.5629,2.6281,2.6755,2.6989,2.7603,2.8033,2.8301,2.8814,2.9079,2.9079,2.9396,2.9554,2.9606,2.9889,2.9994,2.9994,2.9994,2.9994,2.9994,2.9994,2.9994,2.9994,2.9994,2.9994,2.9994,3.0287,3.0391,3.0391,3.0391,3.0256,3.0067,3.0287,3.0203,3.0047,3.0287,3.0391,3.0339,3.0047,3.0412,3.062,3.0099,3.0412,3.062,3.0099,3.0183,3.0495,3.0724,3.0827,3.0983,3.1527,3.1629,3.1527,3.1219,3.1167,3.1013,3.0495,3.0391,3.0287,3.0047,2.9784,2.9816,3.0339,3.0151,3.036,3.1116,3.1424,3.1578,3.1578,3.1629,3.1629,3.1629,3.1629,3.1476,3.1219,3.1476,3.1322,3.0827,3.0776,3.0651,0.0,0.0,3.3697,3.1946,0.0,0.0,0.0,0.0,0.0,0.0,0.0,0.0,0.0,0.0,0.0,0.0,0.0,0.0,0.0,0.0,0.0,0.0,0.0,0.0,0.0,0.0,0.0,0.0,0.0,0.0,0.0,2.297,2.3892,2.516,2.5701,2.6298,2.6989,2.7368,2.7745,2.8014,2.8388,2.8654,2.8834,2.894,2.9079,2.929,2.9606,2.9711,2.9784,2.9942,2.9994,2.9994,2.9994,2.9994,2.9994,2.9994,3.0099,3.0287,3.0391,3.0651,3.0858,3.0308,3.0308,3.0516,3.0443,3.0339,3.0287,3.062,3.0547,3.0391,3.0516,3.0672,3.0724,3.0568,3.0672,3.0724,3.0568,3.0724,3.0961,3.1034,3.1086,3.1137,3.1322,3.1189,3.1086,3.1189,3.0909,3.0599,3.0443,3.0256,3.0235,3.0495,3.0422,3.0526,3.0888,3.0858,3.1219,3.2263,3.1885,3.1783,3.219,3.1834,3.1629,3.1629,3.1424,3.1373,3.1476,3.1373,3.1219,3.1086,3.0879,3.0672,3.5541,3.5438,0.0,3.2608,3.1734,0.0,2.9349,0.0,0.0,0.0,0.0,0.0,0.0,0.0,0.0,0.0,0.0,0.0,0.0,1.9907,0.0,0.0,0.0,0.0,0.0,0.0,0.0,1.9494,1.9421,0.0,0.0,0.0,2.3398,2.4589,2.5502,2.6352,2.7152,2.7422,2.7745,2.8067,2.8281,2.8514,2.8674,2.8781,2.892,2.9132,2.9554,2.9659,2.9606,2.9889,2.9994,2.9994,2.9994,3.0047,3.0151,3.0151,3.0308,3.0516,3.0443,3.0651,3.0806,3.0203,3.0256,3.0464,3.0308,3.0339,3.0443,3.062,3.0672,3.0703,3.0776,3.0931,3.1034,3.0827,3.0931,3.1034,3.0827,3.1034,3.1167,3.1086,3.1086,3.1086,3.1086,3.0827,3.0724,3.0858,3.0703,3.0443,3.0287,3.036,3.0495,3.0785,3.0991,3.1197,3.1454,3.1578,3.1936,3.2566,3.1936,3.1783,3.219,3.1834,3.1629,3.1629,3.1424,3.1424,3.1629,3.1322,3.1137,3.1034,3.0776,3.0516]}]]